[[{"header":{"parameterUnit":"m.s-1","parameterCategory":1,"la1":30.6,"la2":29.2853,"lo1":-89.7004,"lo2":-87.6739,"dy":0.0162,"dx":0.0183,"nx":112,"ny":82,"refTime":"2023-05-23T12:00:00:Z","depth":0,"parameterNumber":2,"parameterNumberName":"U-component_of_WINDS"},"data":[0.0,0.0,0.0,0.0,0.0,0.0,0.0,0.0,0.0,0.0,0.0,0.0,0.0,0.0,0.0,0.0,0.0,0.0,0.0,0.0,0.0,0.0,0.0,0.0,0.0,0.0,0.0,0.0,0.0,0.0,0.0,0.0,0.0,0.0,0.0,0.0,0.0,0.0,0.0,0.0,0.0,0.0,0.0,0.0,0.0,0.0,0.0,0.0,0.0,0.0,0.0,0.0,0.0,0.0,0.0,0.0,0.0,0.0,0.0,0.0,0.0,0.0,0.0,0.0,0.0,0.0,0.0,0.0,0.0,0.0,0.0,0.0,0.0,0.0,0.0,0.0,0.0,0.0,0.0,0.0,0.0,0.0,0.0,0.0,0.0,0.0,0.0,0.0,0.0,0.0,0.0,-0.485,-0.4186,-0.3447,-0.2456,-0.3449,-0.4142,-0.4221,0.0,0.0,0.0,0.0,0.0,0.0,0.0,0.0,0.0,0.0,0.0,0.0,0.0,0.0,0.0,0.0,0.0,0.0,0.0,0.0,0.0,0.0,0.0,0.0,0.0,0.0,0.0,0.0,0.0,0.0,0.0,0.0,0.0,0.0,0.0,0.0,0.0,0.0,0.0,0.0,0.0,0.0,0.0,0.0,0.0,0.0,0.0,0.0,0.0,0.0,0.0,0.0,0.0,0.0,0.0,0.0,0.0,0.0,0.0,0.0,0.0,0.0,0.0,0.0,0.0,0.0,0.0,0.0,0.0,0.0,0.0,0.0,0.0,0.0,0.0,0.0,0.0,0.0,0.0,0.0,0.0,0.0,0.0,0.0,0.0,0.0,0.0,0.0,0.0,0.0,0.0,0.0,0.0,0.0,0.0,0.0,0.0,0.0,0.0,0.0,0.0,0.0,0.0,0.0,-0.5211,-0.4732,-0.4296,-0.3928,-0.3625,-0.3944,-0.43,-0.4772,0.0,0.0,0.0,0.0,0.0,0.0,0.0,0.0,0.0,0.0,0.0,0.0,0.0,0.0,0.0,0.0,0.0,0.0,0.0,0.0,0.0,0.0,0.0,0.0,0.0,0.0,0.0,0.0,0.0,0.0,0.0,0.0,0.0,0.0,0.0,0.0,0.0,0.0,0.0,0.0,0.0,0.0,0.0,0.0,0.0,0.0,0.0,0.0,0.0,0.0,0.0,0.0,0.0,0.0,0.0,0.0,0.0,0.0,0.0,0.0,0.0,0.0,0.0,0.0,0.0,0.0,0.0,0.0,0.0,0.0,0.0,0.0,0.0,0.0,0.0,0.0,0.0,0.0,0.0,0.0,0.0,0.0,0.0,0.0,0.0,0.0,0.0,0.0,0.0,0.0,0.0,0.0,0.0,0.0,0.0,0.0,0.0,0.0,0.0,0.0,0.0,0.0,0.0,-0.648,-0.5665,-0.5788,-0.5339,-0.5021,-0.496,-0.4772,-0.4865,-0.5377,-0.5382,0.0,0.0,0.0,0.0,0.0,0.0,0.0,0.0,0.0,0.0,0.0,0.0,0.0,0.0,0.0,0.0,0.0,0.0,0.0,0.0,0.0,0.0,0.0,0.0,0.0,0.0,0.0,0.0,0.0,0.0,0.0,0.0,0.0,0.0,0.0,0.0,0.0,0.0,0.0,0.0,0.0,0.0,0.0,0.0,0.0,0.0,0.0,0.0,0.0,0.0,0.0,0.0,0.0,0.0,0.0,0.0,0.0,0.0,0.0,0.0,0.0,0.0,0.0,0.0,0.0,0.0,0.0,0.0,0.0,0.0,0.0,0.0,0.0,0.0,0.0,0.0,0.0,0.0,0.0,0.0,0.0,0.0,0.0,0.0,0.0,0.0,0.0,0.0,0.0,0.0,0.0,0.0,0.0,0.0,0.0,0.0,0.0,0.0,0.0,0.0,0.0,0.0,-0.7138,-0.6412,-0.6806,-0.6346,-0.602,-0.5892,-0.5554,-0.5488,-0.6086,-0.6086,0.0,0.0,0.0,0.0,0.0,0.0,0.0,0.0,0.0,0.0,0.0,0.0,0.0,0.0,0.0,0.0,0.0,0.0,0.0,0.0,0.0,0.0,0.0,0.0,0.0,0.0,0.0,0.0,0.0,0.0,0.0,0.0,0.0,0.0,0.0,0.0,0.0,0.0,0.0,0.0,0.0,0.0,0.0,0.0,0.0,0.0,0.0,0.0,0.0,0.0,0.0,0.0,0.0,0.0,0.0,0.0,0.0,0.0,0.0,0.0,0.0,0.0,0.0,0.0,0.0,0.0,0.0,0.0,0.0,0.0,0.0,0.0,0.0,0.0,0.0,0.0,0.0,0.0,0.0,0.0,0.0,0.0,0.0,0.0,0.0,0.0,0.0,0.0,0.0,0.0,0.0,0.0,0.0,0.0,0.0,0.0,0.0,0.0,0.0,0.0,0.0,0.0,-0.7657,-0.733,-0.7199,-0.6872,-0.6412,-0.5954,-0.5888,-0.6086,-0.6609,-0.6675,0.0,0.0,0.0,0.0,0.0,0.0,0.0,0.0,0.0,0.0,0.0,0.0,0.0,0.0,0.0,0.0,0.0,0.0,0.0,0.0,0.0,0.0,0.0,0.0,0.0,0.0,0.0,0.0,0.0,0.0,0.0,0.0,0.0,0.0,0.0,0.0,0.0,0.0,0.0,0.0,0.0,0.0,0.0,0.0,0.0,0.0,0.0,0.0,0.0,0.0,0.0,0.0,0.0,0.0,0.0,0.0,0.0,0.0,0.0,0.0,0.0,0.0,0.0,0.0,0.0,0.0,0.0,0.0,0.0,0.0,0.0,0.0,0.0,0.0,0.0,0.0,0.0,0.0,0.0,0.0,0.0,0.0,0.0,0.0,0.0,0.0,0.0,0.0,0.0,0.0,0.0,0.0,0.0,0.0,0.0,0.0,0.0,0.0,0.0,0.0,0.0,0.0,-0.7727,-0.733,0.0,-0.7265,-0.7134,-0.6937,-0.6609,-0.6609,-0.7195,0.0,0.0,0.0,0.0,0.0,0.0,0.0,0.0,0.0,0.0,0.0,0.0,0.0,0.0,0.0,0.0,0.0,0.0,0.0,0.0,0.0,0.0,0.0,0.0,0.0,0.0,0.0,0.0,0.0,0.0,0.0,0.0,0.0,0.0,0.0,0.0,0.0,0.0,0.0,0.0,0.0,0.0,0.0,0.0,0.0,0.0,0.0,0.0,0.0,0.0,0.0,0.0,0.0,0.0,0.0,0.0,0.0,0.0,0.0,0.0,0.0,0.0,0.0,0.0,0.0,0.0,0.0,0.0,0.0,0.0,0.0,0.0,0.0,0.0,0.0,0.0,0.0,0.0,0.0,0.0,0.0,0.0,0.0,0.0,0.0,0.0,0.0,0.0,0.0,0.0,0.0,0.0,0.0,0.0,0.0,0.0,0.0,0.0,0.0,0.0,0.0,0.0,-0.8511,-0.7792,-0.7396,0.0,-0.7591,-0.7521,-0.7521,-0.7195,-0.7134,-0.7461,0.0,0.0,0.0,0.0,0.0,0.0,0.0,0.0,0.0,0.0,0.0,0.0,0.0,0.0,0.0,0.0,0.0,0.0,0.0,0.0,0.0,0.0,0.0,0.0,0.0,0.0,0.0,0.0,0.0,0.0,0.0,0.0,0.0,0.0,0.0,0.0,0.0,0.0,0.0,0.0,0.0,0.0,0.0,0.0,0.0,0.0,0.0,0.0,0.0,0.0,0.0,0.0,0.0,0.0,0.0,0.0,0.0,0.0,0.0,0.0,0.0,0.0,0.0,0.0,0.0,0.0,0.0,0.0,0.0,0.0,0.0,0.0,0.0,0.0,0.0,0.0,0.0,0.0,0.0,0.0,0.0,0.0,0.0,0.0,0.0,0.0,0.0,0.0,0.0,0.0,0.0,0.0,0.0,0.0,0.0,0.0,0.0,0.0,0.0,0.0,0.0,0.0,-0.8517,-0.7922,-0.7661,-0.7992,-0.7727,-0.7531,-0.7531,-0.7531,-0.7531,0.0,0.0,0.0,0.0,0.0,0.0,0.0,0.0,0.0,0.0,0.0,0.0,0.0,0.0,0.0,0.0,0.0,0.0,0.0,0.0,0.0,0.0,0.0,0.0,0.0,0.0,0.0,0.0,0.0,0.0,0.0,0.0,0.0,0.0,0.0,0.0,0.0,0.0,0.0,0.0,0.0,0.0,0.0,0.0,0.0,0.0,0.0,0.0,0.0,0.0,0.0,0.0,0.0,0.0,0.0,0.0,0.0,0.0,0.0,0.0,0.0,0.0,0.0,0.0,0.0,0.0,0.0,0.0,0.0,0.0,0.0,0.0,0.0,0.0,0.0,0.0,0.0,0.0,0.0,0.0,0.0,0.0,0.0,0.0,0.0,0.0,0.0,0.0,0.0,0.0,0.0,0.0,0.0,0.0,0.0,0.0,0.0,0.0,0.0,0.0,0.0,0.0,0.0,-0.8732,-0.8348,-0.8068,-0.8088,-0.7965,-0.7896,-0.7896,-0.7896,-0.7896,-0.7896,0.0,0.0,0.0,0.0,0.0,0.0,0.0,0.0,0.0,0.0,0.0,0.0,0.0,0.0,0.0,0.0,0.0,0.0,0.0,0.0,0.0,0.0,0.0,0.0,0.0,0.0,0.0,0.0,0.0,0.0,0.0,0.0,0.0,0.0,0.0,0.0,0.0,0.0,0.0,0.0,0.0,0.0,0.0,0.0,0.0,0.0,0.0,0.0,0.0,0.0,0.0,0.0,0.0,0.0,0.0,0.0,0.0,0.0,0.0,0.0,0.0,0.0,0.0,0.0,0.0,0.0,0.0,0.0,0.0,0.0,0.0,0.0,0.0,0.0,0.0,0.0,0.0,0.0,0.0,0.0,0.0,0.0,0.0,0.0,0.0,0.0,0.0,0.0,0.0,0.0,0.0,0.0,0.0,0.0,0.0,0.0,0.0,0.0,0.0,0.0,0.0,0.0,-0.9048,-0.8854,-0.87,-0.8559,-0.8292,-0.808,-0.808,-0.808,-0.808,-0.808,0.0,0.0,0.0,0.0,0.0,0.0,0.0,0.0,0.0,0.0,0.0,0.0,0.0,0.0,0.0,0.0,0.0,0.0,0.0,0.0,0.0,0.0,0.0,0.0,0.0,0.0,0.0,0.0,0.0,0.0,0.0,0.0,0.0,0.0,0.0,0.0,0.0,0.0,0.0,0.0,0.0,0.0,0.0,0.0,0.0,0.0,0.0,0.0,0.0,0.0,0.0,0.0,0.0,0.0,0.0,0.0,0.0,0.0,0.0,0.0,0.0,0.0,0.0,0.0,0.0,0.0,0.0,0.0,0.0,0.0,0.0,0.0,0.0,0.0,0.0,0.0,0.0,0.0,0.0,0.0,0.0,0.0,0.0,0.0,0.0,0.0,0.0,0.0,0.0,0.0,0.0,0.0,0.0,0.0,0.0,0.0,0.0,0.0,0.0,0.0,0.0,0.0,-0.9449,-0.9384,-0.9465,-0.9487,-0.8846,-0.835,-0.835,-0.835,-0.835,-0.835,0.0,0.0,0.0,0.0,0.0,0.0,0.0,0.0,0.0,0.0,0.0,0.0,0.0,0.0,0.0,0.0,0.0,0.0,0.0,0.0,0.0,0.0,0.0,0.0,0.0,0.0,0.0,0.0,0.0,0.0,0.0,0.0,0.0,0.0,0.0,0.0,0.0,0.0,0.0,0.0,0.0,0.0,0.0,0.0,0.0,0.0,0.0,0.0,0.0,0.0,0.0,0.0,0.0,0.0,0.0,0.0,0.0,0.0,0.0,0.0,-1.1168,0.0,0.0,0.0,0.0,0.0,0.0,0.0,0.0,0.0,0.0,0.0,0.0,0.0,0.0,0.0,0.0,0.0,0.0,0.0,0.0,0.0,0.0,0.0,0.0,0.0,0.0,0.0,0.0,0.0,0.0,0.0,0.0,0.0,0.0,0.0,0.0,0.0,0.0,0.0,0.0,0.0,-0.9967,-1.0271,-1.0557,-1.0698,-1.0574,-1.0427,-1.0427,-1.0427,-1.0427,-1.0427,-1.0427,0.0,0.0,0.0,0.0,0.0,0.0,0.0,0.0,0.0,0.0,0.0,0.0,0.0,0.0,0.0,0.0,0.0,0.0,0.0,0.0,0.0,0.0,0.0,0.0,0.0,0.0,0.0,0.0,0.0,0.0,0.0,0.0,0.0,0.0,0.0,0.0,0.0,0.0,0.0,0.0,0.0,0.0,0.0,0.0,0.0,0.0,0.0,0.0,0.0,0.0,0.0,0.0,0.0,0.0,0.0,0.0,0.0,0.0,0.0,0.0,-1.1619,0.0,0.0,0.0,0.0,0.0,0.0,0.0,0.0,0.0,0.0,0.0,0.0,0.0,0.0,0.0,0.0,0.0,0.0,0.0,0.0,0.0,0.0,0.0,0.0,0.0,0.0,0.0,0.0,0.0,0.0,0.0,0.0,0.0,0.0,0.0,0.0,0.0,0.0,0.0,0.0,-1.1326,-1.1119,-1.0954,-1.1093,-1.0432,-1.0137,-1.0513,-1.0513,-1.0663,-1.1111,-1.1111,0.0,0.0,0.0,0.0,0.0,0.0,0.0,0.0,0.0,0.0,0.0,0.0,0.0,0.0,0.0,0.0,0.0,0.0,0.0,0.0,0.0,0.0,0.0,0.0,0.0,0.0,0.0,0.0,0.0,0.0,0.0,0.0,0.0,0.0,0.0,0.0,0.0,0.0,0.0,0.0,0.0,0.0,0.0,0.0,0.0,0.0,0.0,0.0,0.0,0.0,0.0,0.0,0.0,-1.3129,-1.3367,-1.4169,-1.3621,-1.3375,-1.3314,-1.2632,-1.2375,-1.2512,0.0,0.0,0.0,0.0,0.0,0.0,0.0,0.0,0.0,0.0,0.0,0.0,0.0,0.0,0.0,0.0,0.0,0.0,0.0,0.0,0.0,0.0,0.0,0.0,0.0,-1.2269,-1.1969,0.0,0.0,0.0,0.0,0.0,0.0,0.0,0.0,0.0,0.0,0.0,0.0,-1.2673,-1.2003,-1.1558,-1.1558,-1.0351,-0.983,-1.0438,-1.0513,-1.0812,-1.1484,-1.1484,-1.1781,0.0,0.0,0.0,0.0,0.0,0.0,0.0,0.0,0.0,0.0,0.0,0.0,0.0,0.0,0.0,0.0,0.0,0.0,0.0,0.0,0.0,0.0,0.0,0.0,0.0,0.0,0.0,0.0,0.0,0.0,0.0,0.0,-1.0121,-0.8645,0.0,0.0,0.0,0.0,0.0,0.0,0.0,0.0,0.0,0.0,0.0,0.0,0.0,0.0,-1.3124,-1.3614,-1.4081,-1.4396,-1.447,-1.4405,-1.4332,-1.4646,-1.5032,-1.5405,-1.5586,0.0,-1.2573,-1.313,0.0,0.0,0.0,0.0,0.0,0.0,0.0,0.0,0.0,0.0,0.0,0.0,0.0,0.0,0.0,0.0,0.0,0.0,0.0,0.0,0.0,0.0,-1.3255,-1.2818,-1.2861,-1.2921,0.0,-1.1978,-1.1909,-1.2186,0.0,0.0,0.0,0.0,0.0,0.0,0.0,0.0,-1.2945,-1.3185,-1.3419,-1.3419,-1.3119,-1.2893,-1.3046,-1.3046,-1.3046,-1.32,-1.32,-1.29,-1.2298,-1.2931,0.0,0.0,0.0,0.0,0.0,0.0,0.0,0.0,0.0,0.0,0.0,0.0,0.0,0.0,0.0,0.0,0.0,0.0,0.0,0.0,0.0,0.0,0.0,0.0,0.0,0.0,0.0,0.0,0.0,-1.0537,-0.9274,-0.8657,-0.977,-1.0873,0.0,0.0,0.0,0.0,0.0,0.0,0.0,0.0,0.0,-1.2987,-1.362,-1.3958,-1.4126,-1.4375,-1.4711,-1.5201,-1.5339,-1.5404,-1.5542,-1.6154,-1.6417,-1.6364,-1.6911,-1.6373,-1.5235,-1.5501,-1.5448,-1.5253,0.0,0.0,0.0,0.0,0.0,-1.603,-1.5837,-1.5572,0.0,0.0,0.0,0.0,0.0,0.0,0.0,0.0,0.0,0.0,0.0,0.0,0.0,-1.3847,-1.387,-1.3915,-1.3686,-1.3573,-1.3371,0.0,-1.2697,-1.2884,-1.3302,0.0,0.0,0.0,0.0,0.0,-1.3608,-1.3178,-1.2973,-1.2973,-1.2452,-1.2305,-1.2826,-1.282,-1.3046,-1.3492,-1.3492,-1.3346,-1.2973,-1.3346,-1.3346,0.0,0.0,0.0,0.0,0.0,0.0,0.0,0.0,0.0,0.0,0.0,0.0,0.0,0.0,0.0,0.0,0.0,0.0,0.0,0.0,0.0,0.0,0.0,0.0,0.0,0.0,0.0,0.0,-1.0122,-0.9168,-0.8763,-0.9989,-1.1076,0.0,0.0,0.0,0.0,0.0,0.0,-1.3608,-1.3974,-1.4156,-1.4156,-1.4746,-1.5124,-1.5221,-1.537,-1.5872,-1.6625,-1.6625,-1.6883,-1.7416,-1.803,-1.8082,-1.7787,-1.8395,-1.8468,-1.8093,-1.7553,-1.7076,-1.6689,-1.6868,-1.6806,-1.6689,-1.6868,-1.7066,-1.7284,-1.7211,-1.7004,-1.6806,-1.6825,0.0,-1.6919,-1.6725,0.0,0.0,0.0,0.0,-1.4504,-1.4786,-1.4792,-1.4858,-1.513,-1.5196,-1.5125,-1.4919,-1.4919,-1.4633,0.0,-1.3615,-1.3753,-1.4258,0.0,0.0,0.0,0.0,-1.4072,-1.4201,-1.3397,-1.2739,-1.2739,-1.215,-1.1929,-1.2526,-1.2599,-1.2893,-1.3492,-1.3492,-1.3492,-1.3492,-1.3492,-1.3492,-1.3492,0.0,0.0,0.0,0.0,0.0,0.0,0.0,0.0,0.0,0.0,0.0,0.0,0.0,0.0,0.0,0.0,0.0,0.0,0.0,0.0,0.0,0.0,0.0,0.0,0.0,0.0,0.0,0.0,0.0,-0.8464,-1.0317,0.0,0.0,0.0,0.0,-1.3584,-1.404,-1.4304,-1.4172,-1.4689,-1.4885,-1.4754,-1.5404,-1.591,-1.6287,-1.693,-1.7794,-1.8839,-1.8839,-1.9236,-1.9901,-2.0267,-2.0448,-2.0448,-2.0876,-2.0824,-2.0298,-1.8187,-1.7274,-1.7274,-1.775,-1.7626,-1.7336,-1.775,-1.7637,-1.7274,-1.7274,-1.7066,-1.6796,-1.6796,-1.7071,-1.7409,-1.7773,-1.7775,0.0,0.0,-1.7151,-1.6738,-1.6757,-1.6766,-1.6766,-1.6793,-1.6793,-1.6594,-1.5903,-1.5762,-1.5692,0.0,-1.5621,-1.5692,-1.5692,0.0,-1.5409,-1.4713,-1.4569,-1.4569,-1.4569,-1.4274,-1.3985,-1.3985,-1.363,-1.3419,-1.3419,-1.3419,-1.3492,-1.3492,-1.3492,-1.3492,-1.3492,-1.3492,-1.3492,-1.3492,-1.3499,0.0,0.0,0.0,0.0,0.0,0.0,0.0,0.0,0.0,0.0,0.0,0.0,0.0,0.0,0.0,0.0,0.0,0.0,0.0,0.0,0.0,0.0,0.0,0.0,0.0,0.0,0.0,0.0,-1.1083,-1.2096,0.0,-1.2799,-1.4158,-1.5016,-1.5016,-1.548,-1.5813,-1.5771,-1.6102,-1.6373,-1.6315,-1.7311,-1.8105,-1.8612,-1.9308,-2.002,-2.073,-2.0361,-2.0355,-2.0621,-2.0812,-2.0794,-2.059,-2.1019,-2.0967,-2.0549,-1.9979,-1.9265,-1.8622,-1.8751,-1.8751,-1.8633,-1.8751,-1.8955,-1.9105,-1.8976,-1.8966,-1.8901,-1.8901,-1.8747,-1.8507,-1.8526,-1.823,-1.7833,-1.755,-1.7267,-1.7051,-1.7051,-1.6991,-1.6932,-1.6932,-1.6932,-1.6793,-1.6585,-1.6524,-1.6664,-1.7139,-1.6455,-1.5833,-1.5833,-1.6175,-1.6245,-1.548,-1.5267,-1.5188,-1.5188,-1.4418,-1.3928,-1.3928,-1.3637,-1.3492,-1.3492,-1.3492,-1.3492,-1.3492,-1.3492,-1.3492,-1.3492,-1.3492,-1.3492,-1.3492,-1.3492,-1.3637,0.0,0.0,0.0,0.0,0.0,0.0,0.0,0.0,0.0,0.0,0.0,0.0,0.0,0.0,0.0,0.0,0.0,0.0,0.0,0.0,0.0,0.0,0.0,0.0,0.0,0.0,-1.3462,-1.2692,-1.3573,-1.4222,-1.4155,-1.5224,-1.6093,-1.6369,-1.6688,-1.7053,-1.7293,-1.7647,-1.7858,-1.7938,-1.8686,-1.9369,-2.0014,-2.0498,-2.121,-2.2012,-2.1677,-2.1666,-2.1867,-2.1997,-2.1899,-2.1694,-2.1987,-2.1793,-2.1325,-2.1327,-2.0913,-2.0161,-2.0194,-2.0257,-2.0193,-2.002,-2.0096,-2.0388,-2.0074,-2.0009,-2.0085,-2.0085,-1.9813,-1.9462,-1.9562,-1.9166,-1.8633,-1.8623,-1.8277,-1.793,-1.793,-1.7813,-1.7696,-1.7696,-1.7696,-1.755,-1.7345,-1.7276,-1.7413,-1.7901,-1.7207,-1.6524,-1.6524,-1.6932,-1.7001,-1.6245,-1.6035,-1.5948,-1.5948,-1.5251,-1.4768,-1.4768,-1.4553,-1.441,-1.4338,-1.441,-1.441,-1.4266,-1.4338,-1.4266,-1.3992,-1.4194,-1.4266,-1.4065,-1.4266,-1.441,-1.4617,0.0,0.0,0.0,0.0,0.0,0.0,0.0,0.0,0.0,0.0,0.0,0.0,0.0,0.0,0.0,0.0,0.0,0.0,0.0,0.0,0.0,0.0,0.0,-1.5852,-1.5108,-1.4281,-1.32,-1.4705,-1.563,-1.5046,-1.5825,-1.6701,-1.7477,-1.7559,-1.7933,-1.8784,-1.9141,-1.936,-1.936,-1.936,-1.9785,-2.0573,-2.0634,-2.1339,-2.2741,-2.273,-2.3147,-2.3797,-2.3839,-2.3839,-2.3839,-2.3827,-2.3427,-2.2707,-2.2243,-2.1958,-2.1943,-2.2005,-2.2101,-2.2039,-2.1365,-2.1123,-2.1071,-2.0388,-2.014,-2.014,-2.014,-2.014,-2.0259,-2.0944,-2.056,-2.0129,-2.0764,-2.0313,-1.9671,-1.9671,-1.9473,-1.9341,-1.9351,-1.9274,-1.8998,-1.824,-1.8104,-1.8094,-1.8104,-1.8104,-1.8037,-1.8037,-1.8037,-1.7765,-1.707,-1.6932,0.0,-1.6932,-1.6715,-1.6636,-1.6636,-1.6437,-1.6228,-1.6009,-1.6158,-1.6158,-1.5745,-1.5869,-1.5658,-1.4974,-1.5587,-1.5737,-1.5267,-1.5737,-1.5939,-1.5745,0.0,0.0,0.0,0.0,0.0,0.0,0.0,0.0,0.0,0.0,0.0,0.0,0.0,0.0,0.0,0.0,0.0,0.0,0.0,0.0,0.0,0.0,-1.7491,-1.6673,-1.6175,-1.591,-1.6168,-1.6714,-1.7117,-1.7251,-1.8044,-1.8556,-1.8774,-1.9324,-1.962,-1.9805,-1.9733,-1.9939,-2.0339,-2.0755,-2.1469,-2.2677,-2.3167,-2.3781,-2.4588,-2.4208,-2.4098,-2.4302,-2.4382,-2.4406,-2.4406,-2.4524,-2.4511,-2.4292,-2.4402,-2.4455,-2.4227,-2.2159,-2.1678,-2.2113,-2.1865,-2.1803,-2.1803,-2.1616,-2.1553,-2.1553,-2.1553,-2.1553,-2.1553,-2.1803,-2.1678,-2.1553,-2.1741,-2.1187,-2.0635,-2.1123,-2.073,-2.0344,-2.0752,-2.0816,-2.0677,-2.0333,-2.0268,-2.0074,-1.9628,-1.9497,-1.9166,-1.8172,-1.8452,-1.8519,-1.7823,-1.7687,0.0,-1.7687,-1.706,-1.6636,-1.6636,-1.6437,-1.6306,-1.6228,-1.6298,-1.6228,-1.6167,-1.6079,-1.5939,-1.5728,-1.5869,-1.6009,-1.6026,-1.6158,-1.6158,0.0,0.0,0.0,0.0,0.0,0.0,0.0,0.0,0.0,0.0,0.0,0.0,0.0,0.0,0.0,0.0,0.0,0.0,0.0,0.0,0.0,0.0,-1.8713,-1.837,-1.8286,-1.7502,-1.7106,-1.7733,-1.8068,-1.8389,-1.8635,-1.9348,-1.9934,-2.0326,-2.0657,-2.1181,-2.187,-2.158,-2.172,-2.2496,-2.2644,-2.3301,-2.4411,-2.4786,-2.5445,-2.6322,-2.6017,-2.6012,-2.6268,-2.6063,-2.6013,0.0,-2.5826,-2.5711,-2.5555,-2.5535,-2.5576,0.0,0.0,0.0,0.0,0.0,-2.3079,-2.2826,-2.2826,-2.2693,-2.245,-2.245,-2.2294,-2.2163,-2.2408,-2.2347,-2.2163,-2.2408,-2.199,-2.1502,-2.1877,-2.1553,-2.1175,-2.1439,-2.1451,-2.1325,-2.1123,-2.1123,-2.0869,-2.0226,-2.0355,0.0,-1.871,-1.8798,-1.8931,-1.8519,-1.8452,-1.8452,-1.8452,-1.7959,-1.7677,-1.7677,-1.7541,-1.7413,-1.7345,-1.7413,0.0,0.0,0.0,-1.7189,-1.7189,-1.6982,0.0,0.0,0.0,-1.7276,-1.7217,0.0,0.0,0.0,-1.5046,-1.4697,0.0,0.0,0.0,0.0,0.0,0.0,0.0,0.0,0.0,0.0,0.0,0.0,0.0,0.0,0.0,0.0,-1.963,-1.9565,-2.0421,-1.933,-1.8495,-1.8601,-1.9238,-1.9717,-1.9752,-2.0529,-2.1383,-2.2029,-2.211,-2.2778,-2.432,0.0,0.0,0.0,0.0,-2.5027,-2.5824,-2.5824,-2.6422,-2.7717,-2.7791,-2.8084,-2.8664,-2.828,-2.8105,-2.8092,-2.7588,-2.7207,-2.679,-2.6324,-2.607,-2.6074,-2.6046,-2.606,-2.5985,-2.5192,-2.4526,-2.4006,-2.4006,0.0,0.0,-2.3347,-2.2943,-2.2604,-2.3215,-2.2972,-2.2665,-2.3215,-2.2898,-2.2406,-2.248,-2.2356,-2.2181,-2.2106,-2.1993,-2.1816,-2.1614,-2.1551,-2.136,-2.0716,-2.1039,-2.0975,-1.9743,-1.9327,-1.9198,-1.9131,-1.9075,-1.9075,-1.9075,-1.9075,-1.9075,-1.9075,0.0,0.0,-1.8875,-1.9008,-1.8942,-1.8617,-1.8674,-1.8808,-1.8808,-1.8317,-1.8317,-1.8808,-1.8808,-1.8674,-1.8549,-1.7901,-1.755,-1.7482,-1.6298,-1.5824,0.0,0.0,0.0,0.0,0.0,0.0,0.0,0.0,0.0,0.0,0.0,0.0,0.0,0.0,0.0,-2.1097,-2.1384,-2.1959,-2.2783,-2.2535,-2.1998,-2.1206,-2.1881,-2.2413,-2.2415,-2.3861,-2.457,-2.4048,-2.4592,-2.516,-2.5492,-2.526,0.0,-2.613,-2.5877,-2.603,-2.6697,-2.6697,-2.6772,-2.7073,0.0,0.0,-2.7999,-2.8918,-2.9302,-2.9289,-2.9613,-2.9697,-2.9575,-2.9027,-2.8319,-2.7538,-2.6356,-2.5936,-2.606,-2.5749,-2.5547,-2.5421,-2.5421,-2.5356,-2.5266,-2.5266,-2.5189,-2.5099,-2.5224,-2.5161,0.0,-2.5224,-2.481,-2.4406,-2.4961,-2.4684,-2.4355,-2.4709,-2.4785,-2.4722,-2.4507,-2.4392,-2.4137,-2.3477,-2.3281,-2.3006,-2.2195,-2.0875,-1.9715,-1.9198,-1.9075,-1.9075,-1.9075,-1.9075,-1.9075,-1.9075,-1.9075,-1.9065,-1.9075,-1.9065,-1.9075,-1.9008,-1.8875,-1.8808,-1.8808,-1.8539,-1.8607,-1.8998,-1.8875,-1.8808,-1.8741,-1.8596,-1.8462,-1.8259,-1.6862,-1.5886,0.0,0.0,0.0,0.0,0.0,0.0,0.0,0.0,0.0,0.0,0.0,-2.1771,0.0,0.0,-2.2862,-2.2907,-2.3317,-2.3779,-2.4407,-2.4591,-2.4223,-2.3238,-2.3919,-2.45,-2.4535,-2.5498,-2.5959,-2.5554,-2.6097,-2.6642,-2.7125,-2.6956,-2.7113,-2.7912,-2.7669,-2.7681,-2.7859,-2.8154,-2.8383,-2.8599,-2.9187,-2.9718,-3.0012,-3.0326,-3.0418,-3.0475,-3.0389,-3.0405,-3.0391,-2.9984,-2.9551,-2.9174,-2.8146,-2.7367,-2.6803,-2.6674,-2.6674,-2.6674,-2.6674,-2.6491,-2.6242,-2.6242,-2.6059,-2.5824,-2.5824,-2.5824,-2.5824,-2.5824,-2.5547,-2.5408,-2.5686,-2.5547,-2.5345,-2.5573,-2.5586,-2.551,-2.5358,-2.5243,-2.4975,-2.4304,-2.4369,-2.4173,-2.3077,-2.2468,-2.1724,-2.0665,-1.9986,-1.9715,-2.0042,-1.9846,-1.9584,-1.9584,-1.9584,-1.9452,-1.9131,-1.9075,-1.9075,-1.9075,-1.9008,-1.8942,-1.8942,-1.8875,-1.8875,-1.9075,-1.9008,-1.8942,-1.8942,-1.8942,-1.8875,-1.8808,-1.8037,-1.7413,0.0,0.0,0.0,0.0,0.0,0.0,0.0,0.0,-2.2273,-2.2183,-2.1876,-2.1896,-2.2805,-2.3112,-2.3621,-2.4703,-2.5083,-2.5433,-2.5917,-2.6141,-2.5985,-2.5374,-2.5853,-2.614,-2.6089,-2.6718,-2.7041,-2.6883,-2.7472,-2.8108,-2.8712,-2.8688,-2.8912,-2.9639,-2.9496,-2.9341,-2.925,-2.9704,-3.0088,-3.0317,-3.0921,-3.1468,-3.1996,-3.1608,-3.1463,-3.1436,-3.0961,-3.069,-3.0581,-3.0416,-3.0348,-3.0323,-3.0006,-2.9074,-2.7917,-2.7799,-2.7628,-2.7523,-2.7523,-2.7223,-2.6844,-2.6909,-2.6594,-2.6151,-2.6151,-2.6151,-2.6151,-2.6151,-2.6151,-2.6151,-2.6151,-2.6151,-2.6087,-2.596,-2.5973,-2.5896,-2.5756,-2.5692,-2.555,-2.4993,-2.5279,-2.5227,-2.3989,-2.4129,-2.3886,-2.2329,-2.1181,-2.0618,-2.1197,-2.0669,-2.0291,-2.0291,-2.0291,-2.0107,-1.9518,-1.9396,-1.9264,-1.9264,-1.9198,-1.9075,-1.9075,-1.9075,-1.9075,-1.9075,-1.9075,-1.9075,-1.9075,-1.9075,-1.9075,-1.9075,-1.9075,-1.8875,-2.4047,-2.3975,-2.3255,-2.2089,-2.2075,-2.2297,0.0,0.0,-2.1906,-2.242,-2.2445,-2.2437,-2.2669,-2.4183,-2.5528,-2.594,-2.6404,-2.6978,-2.756,-2.7766,-2.7908,-2.8064,-2.7783,-2.7442,-2.7013,-2.8433,-2.9123,-2.8299,-2.9628,-3.0228,-2.9702,-3.0241,-3.0519,-3.0456,-3.0456,-3.0532,-3.067,-3.0745,-3.0607,-3.0317,-3.0921,-3.1233,-3.1307,-3.1869,-3.2074,-3.2074,-3.2006,-3.168,-3.1192,-3.1192,-3.0726,-3.0158,-3.0089,-2.987,-2.9558,-2.8847,-2.8116,-2.7523,-2.7723,-2.7617,-2.7432,-2.7617,-2.7512,-2.734,-2.734,-2.734,-2.734,-2.734,-2.734,-2.734,-2.734,-2.734,-2.734,-2.7274,-2.7274,-2.7274,-2.7274,-2.7141,-2.7074,-2.7007,-2.6886,-2.6764,-2.6604,-2.6063,-2.4992,-2.301,-2.2154,-2.1755,-2.182,-2.1323,-2.0996,-2.0996,-2.0996,-2.0933,-2.0869,-2.0355,-1.9977,-1.9977,-1.9462,-1.9075,-1.9075,-1.9075,-1.9075,-1.9075,-1.9075,-1.9075,-1.9075,-1.9075,-1.9075,-1.9075,-1.9075,-1.8721,-2.3255,-2.316,0.0,0.0,-2.1776,-2.2195,-2.2155,-2.2277,-2.2559,-2.2876,-2.3364,-2.385,-2.439,-2.5667,-2.6835,0.0,-2.8132,-2.8654,-2.8837,-2.9113,-2.926,-2.9263,-2.9426,-2.9351,-2.8767,-2.9716,-3.0114,-2.9287,-3.0683,-3.1267,-3.0482,-3.1206,-3.1563,-3.1489,-3.1489,-3.1489,-3.1415,-3.1502,-3.1442,-3.1206,-3.1616,-3.1776,-3.1776,-3.2096,-3.2182,-3.2182,-3.2182,-3.2046,-3.1802,-3.1802,-3.1653,-3.1351,-3.1351,-3.0993,-3.0462,-2.9678,-2.9167,-2.8942,-2.901,-2.8942,-2.8873,-2.8887,-2.8805,-2.8805,-2.9119,-2.8609,-2.821,-2.9034,-2.8411,-2.759,-2.7973,-2.7776,-2.7523,-2.7523,-2.7523,-2.7523,-2.7523,-2.7469,-2.7403,-2.7403,-2.7335,-2.7268,-2.7214,-2.694,-2.6349,-2.5358,-2.3972,-2.3168,-2.3506,-2.2791,-2.2096,-2.1714,-2.1302,-2.1123,-2.1123,-2.0869,-2.0677,-2.0677,-2.0031,-1.9649,-1.9649,-1.933,-1.9075,-1.9075,-1.9075,-1.9075,-1.9075,-1.9075,-1.9075,-1.9075,-1.9075,-1.8931,-2.2884,0.0,0.0,-2.1914,-2.2127,-2.266,-2.2781,-2.303,-2.3292,-2.353,-2.4285,-2.5136,-2.5988,-2.7105,-2.8105,-2.8664,-2.9679,-3.0283,-2.974,-3.025,-3.0596,-3.0139,-3.0914,-3.1294,-3.0739,-3.1156,-3.136,-3.0958,-3.2219,-3.2562,-3.1819,-3.2488,-3.2942,-3.2942,-3.2942,-3.2942,-3.2882,-3.2877,-3.265,-3.2345,-3.2368,-3.2314,-3.2182,-3.2182,-3.2182,-3.2182,-3.2182,-3.2182,-3.2182,-3.2182,-3.2182,-3.2182,-3.2182,-3.1825,-3.1236,-3.0747,-3.0244,-2.995,-3.0144,-3.02,-3.02,-3.0337,-3.0337,-3.0323,-3.065,-3.0079,-2.9538,-3.049,-2.9728,-2.8705,-2.9217,-2.8969,-2.8572,-2.8572,-2.8572,-2.8519,-2.8318,-2.8199,-2.8013,-2.7758,-2.7628,-2.7469,-2.7403,-2.7335,-2.7268,-2.7079,-2.5695,-2.4723,-2.5059,-2.4147,-2.3274,-2.2713,-2.2166,-2.1855,-2.1639,-2.1502,-2.1376,-2.1376,-2.0741,-2.0355,-2.0355,-1.9715,-1.9396,-1.9396,-1.9198,-1.9075,-1.9075,-1.9075,-1.9075,-1.9075,-1.9075,-1.9075,0.0,0.0,-2.4762,-2.3313,-2.3325,-2.3702,-2.3831,-2.3821,-2.3899,-2.4474,-2.5148,-2.598,-2.7062,-2.8444,-2.9469,-2.9718,-3.1037,-3.1607,-3.0266,-3.1381,-3.1955,-3.097,-3.2057,-3.2942,0.0,-3.2928,-3.3173,-3.3832,-3.4655,-3.4729,-3.3949,-3.4655,-3.5127,-3.5127,-3.5127,-3.5289,-3.5696,-3.5068,-3.4398,-3.3615,-3.2994,-3.2503,-3.2182,-3.2182,-3.2182,-3.2182,-3.2182,-3.2182,-3.2182,-3.2182,-3.2182,-3.2182,-3.2182,-3.2169,-3.2155,-3.2128,-3.1168,-3.0019,-3.0867,-3.1026,-3.1013,-3.1947,-3.2062,-3.1919,-3.1767,-3.1716,-3.1701,-3.149,-3.1411,-3.1396,-3.1396,-3.1396,-3.1396,-3.1396,-3.1396,-3.1198,-3.046,-2.9875,-2.9201,-2.8484,-2.7902,-2.7523,-2.7456,-2.7403,-2.7268,-2.7268,-2.6892,-2.6405,-2.5927,-2.5199,-2.4518,-2.4029,-2.3904,-2.3679,-2.3115,-2.2433,-2.2039,-2.2039,-2.1439,-2.106,-2.106,-2.042,-2.0096,-2.0096,-1.9462,-1.9075,-1.9075,-1.9075,-1.9075,-1.9075,-1.9075,-1.9075,-2.4515,0.0,-2.4042,-2.3323,-2.3603,-2.4051,-2.3907,-2.47,-2.5473,-2.5741,-2.6701,-2.7562,-2.795,-2.9449,-3.0661,-3.0713,-3.1828,-3.2526,-3.1942,-3.22,-3.2259,-3.1783,-3.291,0.0,0.0,0.0,0.0,-3.399,-3.5229,-3.5624,-3.4859,-3.5551,-3.5928,-3.5928,-3.5928,-3.6014,-3.6101,-3.5683,-3.5353,-3.5062,-3.3921,-3.3193,-3.2752,-3.2359,-3.2182,-3.2182,-3.2182,-3.2182,-3.2182,-3.2182,-3.2182,-3.2182,-3.2182,-3.2182,-3.2241,-3.2704,-3.2555,-3.2068,-3.1885,-3.2416,-3.3111,-3.2786,-3.2976,-3.3379,-3.3754,-3.3252,-3.2709,-3.3451,-3.268,-3.1781,-3.2091,-3.1846,-3.1519,-3.1519,-3.1519,-3.1453,-3.1188,-3.0954,-3.0748,-3.0482,-2.9603,-2.8812,-2.8812,-2.804,-2.7403,-2.7335,-2.693,-2.6443,-2.5807,-2.5514,-2.5134,-2.4607,-2.4217,-2.3916,-2.3715,-2.3095,-2.275,-2.275,-2.2113,-2.1741,-2.1741,-2.1112,-2.0549,-2.0096,-1.9911,-1.9518,-1.9075,-1.9075,-1.9075,-1.9075,-1.9075,-1.9075,-2.4784,-2.4709,-2.4632,-2.4008,-2.448,-2.4946,-2.465,-2.5605,-2.6458,-2.6408,-2.7527,-2.8531,-2.873,-3.0283,-3.1557,-3.1515,-3.2654,-3.3339,-3.2704,-3.2917,-3.2974,-3.2506,-3.3914,-3.511,0.0,0.0,0.0,-3.5577,-3.6427,-3.675,-3.6294,-3.675,-3.6983,-3.6983,-3.6983,-3.6983,-3.6983,-3.6562,-3.6128,-3.5753,-3.4598,-3.3974,-3.3812,-3.3131,-3.2772,-3.2714,-3.2568,-3.2372,-3.2182,-3.2182,-3.2182,-3.2182,-3.2182,-3.2182,-3.2241,-3.2704,-3.3157,-3.3561,-3.3381,-3.3919,-3.4647,-3.4298,-3.4514,-3.4978,-3.527,-3.4762,-3.4227,-3.4976,-3.4282,-3.3366,-3.3559,-3.3302,-3.2977,-3.2926,-3.2941,-3.2861,-3.2568,-3.2345,-3.2122,-3.1857,-3.0954,-3.0207,-3.0207,-2.9119,-2.8026,-2.7361,-2.7066,-2.6722,-2.6072,-2.5967,-2.5753,-2.5159,-2.4782,-2.4494,-2.4305,-2.3766,-2.3439,-2.3439,-2.28,-2.2433,-2.2433,-2.1803,-2.1239,-2.0794,-2.0613,-2.0226,-1.9846,-1.9846,-1.9715,-1.9462,-1.9462,-1.933,-2.4318,-2.5116,-2.6245,-2.5393,-2.5807,-2.6332,-2.6027,-2.6483,-2.6905,-2.6552,-2.7577,-2.8763,0.0,0.0,-3.2162,-3.2039,-3.3546,-3.4167,-3.269,-3.3632,-3.4113,0.0,0.0,0.0,0.0,0.0,0.0,-3.8202,0.0,-3.8202,-3.8202,-3.8202,-3.8202,-3.8202,-3.8202,-3.8202,-3.8202,-3.7636,-3.6822,-3.5853,-3.506,-3.4896,-3.5194,-3.4341,-3.3861,-3.3771,-3.3328,-3.2839,-3.2296,-3.2223,-3.2209,-3.2182,-3.2182,-3.2241,-3.2241,-3.2314,-3.3185,-3.4447,-3.519,-3.5464,-3.5544,-3.6226,-3.6492,-3.6492,-3.6274,-3.6211,-3.6211,-3.6037,-3.6037,-3.5958,-3.5752,-3.5688,-3.5703,-3.5554,-3.5504,-3.5279,-3.4528,-3.3929,-3.339,-3.2695,-3.2065,-3.1561,-3.1533,-3.0436,-2.908,-2.7654,-2.7374,-2.7227,-2.6794,-2.6726,-2.6443,-2.5699,-2.5611,-2.5398,-2.4895,-2.4356,-2.4029,-2.4004,-2.3477,-2.3103,-2.3078,-2.2494,-2.2113,-2.2101,-2.1502,-2.1123,-2.1123,-2.1123,-2.0741,-2.0161,-2.0161,-1.9781,-2.4878,-2.5029,-2.5148,-2.5566,-2.6282,-2.6726,-2.6389,-2.6837,-2.751,-2.7881,-2.8623,-2.937,0.0,0.0,0.0,-3.2754,-3.3425,0.0,-3.4124,-3.4264,0.0,-3.4113,0.0,-3.6301,-3.6301,-3.7462,0.0,0.0,-3.8202,-3.8202,-3.8202,-3.8202,-3.8202,-3.8202,-3.8202,-3.8202,-3.8202,-3.8043,-3.7673,-3.7139,-3.649,-3.6038,-3.5826,-3.5139,-3.4845,-3.478,-3.4394,-3.39,-3.3276,-3.2981,-3.2576,-3.2182,-3.2182,-3.2503,-3.303,-3.3575,-3.4312,-3.519,-3.5943,-3.6226,-3.6148,-3.5816,-3.6085,-3.6492,-3.6414,-3.6414,-3.6414,-3.6211,-3.6148,-3.6085,-3.5958,-3.5831,-3.5688,-3.5638,-3.5539,-3.5424,-3.5213,-3.508,-3.4896,-3.4765,-3.3747,-3.268,-3.1669,-3.1194,-3.0543,-2.916,-2.8946,-2.8465,-2.713,-2.6794,-2.6595,-2.6443,-2.5917,-2.5536,-2.541,-2.4908,-2.4443,-2.4029,-2.3866,-2.359,-2.309,-2.2944,-2.2616,-2.2101,-2.1916,-2.1616,-2.1123,-2.1123,-2.0996,-2.0869,-2.0869,-2.0484,-2.5043,-2.5373,-2.5754,-2.6271,-2.6824,-2.7242,-2.7284,-2.763,-2.8157,-2.8776,-2.942,0.0,0.0,0.0,0.0,0.0,0.0,0.0,-3.4083,-3.4307,-3.4414,0.0,-3.5532,0.0,-3.6301,-3.7462,-3.8202,0.0,-3.8202,-3.8202,-3.8202,-3.8202,-3.8202,-3.8202,-3.8202,-3.8202,-3.8202,-3.8202,-3.8052,-3.7839,-3.7315,-3.7068,-3.6992,-3.6335,-3.5949,-3.5844,0.0,-3.491,-3.4339,-3.3894,-3.3553,-3.3225,-3.2744,-3.2828,-3.3193,-3.334,-3.4041,-3.4993,-3.54,-3.5943,-3.6414,-3.6022,-3.6148,-3.6492,-3.6492,-3.6492,-3.6492,-3.6352,-3.6352,-3.6274,-3.6148,-3.6006,-3.5879,-3.5752,-3.5638,-3.5539,-3.5504,-3.5504,-3.5504,-3.5504,-3.4916,-3.3973,-3.2585,-3.2405,-3.1914,-3.0571,-2.9857,-2.9173,-2.8198,-2.7411,-2.693,-2.6714,-2.6367,-2.603,-2.5975,-2.5473,-2.5021,-2.472,-2.4255,-2.3853,-2.3527,-2.3215,-2.2944,-2.2555,-2.2555,-2.2372,-2.2002,-2.2002,-2.1815,-2.1553,-2.1553,-2.1175,-2.5076,-2.5788,-2.687,-2.7015,-2.7242,-2.7656,-2.8352,-2.8481,-2.8725,-2.9456,0.0,-3.0478,-3.0433,-3.1214,-3.1806,-3.1833,0.0,-3.3369,-3.3456,-3.4008,-3.4414,-3.4414,-3.5532,-3.6301,-3.6301,-3.7462,-3.8202,-3.8202,-3.8202,-3.8202,-3.8202,-3.8202,-3.8202,-3.8202,-3.8202,-3.8202,-3.8202,-3.8202,-3.8202,-3.8202,-3.7839,-3.7839,-3.8202,-3.7519,-3.7068,-3.6842,0.0,0.0,-3.5353,-3.4966,-3.4774,-3.4574,-3.3751,-3.3471,-3.3537,-3.2932,-3.3578,-3.4698,-3.461,-3.54,-3.6492,-3.6492,-3.6492,-3.6492,-3.6492,-3.6492,-3.6492,-3.6492,-3.6492,-3.6492,-3.6274,-3.6211,-3.6148,-3.5816,-3.5752,-3.5703,-3.5554,-3.5504,-3.5504,-3.5504,-3.5504,-3.5115,-3.3988,-3.3755,-3.3325,-3.1943,-3.0787,-2.9923,-2.964,-2.8266,-2.7201,-2.6794,-2.6794,-2.6658,-2.6602,-2.6068,-2.574,-2.5665,-2.472,-2.418,-2.4117,-2.3552,-2.3251,-2.3251,-2.3115,-2.3078,-2.3078,-2.3078,-2.2811,-2.2237,-2.2237,-2.1865,-2.4772,-2.5275,-2.6025,-2.7126,-2.7456,-2.7656,-2.8352,-2.8481,0.0,0.0,-3.0343,-3.0493,-3.1043,-3.1087,-3.1172,-3.1699,0.0,0.0,0.0,0.0,-3.4414,0.0,0.0,0.0,0.0,0.0,0.0,0.0,0.0,-3.8202,-3.8202,-3.8202,-3.8202,-3.8202,-3.8202,-3.8202,-3.8202,-3.8202,-3.8202,-3.8202,-3.8127,-3.8127,-3.8202,-3.8052,-3.7979,-3.7878,-3.7515,0.0,-3.6408,-3.5972,-3.5541,-3.5064,-3.4892,-3.5408,-3.6181,-3.5441,-3.5941,-3.6896,-3.6331,-3.6289,-3.6492,-3.6492,-3.6492,-3.6492,-3.6492,-3.6492,-3.6492,-3.6492,-3.6492,-3.6492,-3.6492,-3.6336,-3.6211,-3.6148,-3.6022,-3.591,-3.5703,-3.5604,-3.5504,-3.5504,-3.5504,-3.5409,-3.521,-3.5115,-3.4697,-3.334,-3.2955,-3.2219,-3.0558,-2.8571,-2.7268,-2.7201,-2.7079,-2.6943,-2.6956,-2.6637,-2.6304,-2.5848,-2.5501,-2.5121,-2.4695,-2.4142,-2.3853,-2.3853,-2.3376,-2.3078,-2.3078,-2.3078,-2.3065,-2.2944,-2.2944,-2.2567,-2.5191,-2.5679,-2.6321,-2.7246,-2.7523,-2.7776,-2.8776,0.0,0.0,0.0,-3.0807,-3.0762,-3.0999,-3.0881,0.0,0.0,0.0,0.0,0.0,0.0,0.0,0.0,0.0,0.0,0.0,0.0,0.0,0.0,0.0,-3.8202,-3.8202,-3.8202,-3.8202,-3.8202,-3.8202,-3.8202,-3.8202,-3.8202,-3.8202,-3.8202,-3.8202,-3.8202,-3.8202,-3.8202,-3.8202,-3.8202,-3.7991,0.0,-3.744,-3.7078,-3.6694,-3.6382,-3.5906,-3.6182,-3.6793,-3.6096,-3.6556,-3.7486,-3.6687,-3.6667,-3.6953,-3.6599,-3.6492,-3.6492,-3.6492,-3.6492,-3.6492,-3.6492,-3.6492,-3.6492,-3.6492,-3.6414,-3.6352,-3.6211,-3.6085,-3.5973,-3.5752,-3.5638,-3.5604,-3.5504,-3.5504,-3.5504,-3.5504,-3.5504,-3.5255,-3.4667,-3.3973,-3.2999,-3.1682,-3.0053,-2.8675,-2.7868,-2.7403,-2.7079,-2.7024,-2.6943,-2.6761,-2.6493,-2.6041,-2.563,-2.5378,-2.4784,-2.4431,-2.4431,-2.3866,-2.359,-2.359,-2.3215,-2.3078,-2.3078,-2.3078,-2.2944,-2.6012,-2.6532,-2.7063,-2.7578,-2.7842,-2.8208,-2.9205,-2.9594,0.0,0.0,-3.1292,-3.1249,-3.0999,0.0,-3.0984,0.0,0.0,0.0,0.0,0.0,0.0,0.0,0.0,0.0,0.0,0.0,0.0,0.0,0.0,0.0,-3.8202,-3.8352,-3.8352,-3.8202,-3.8202,-3.8202,-3.8202,-3.8202,-3.8202,-3.8202,-3.8202,-3.8202,-3.8202,-3.8202,-3.8202,-3.8202,-3.8202,0.0,0.0,-3.7991,-3.7839,-3.763,-3.7114,-3.7183,-3.7434,-3.6836,-3.7292,-3.8089,-3.7304,-3.7353,-3.7664,-3.6985,-3.6677,-3.6492,-3.6492,-3.6492,-3.6492,-3.6492,-3.6492,-3.6492,-3.6492,-3.6492,-3.6492,-3.6274,-3.6148,-3.6022,-3.5816,-3.5752,-3.5703,-3.5539,-3.5504,-3.5504,-3.5504,-3.5504,-3.5504,-3.5504,-3.4573,-3.3724,-3.3035,-3.1731,-3.0453,-2.91,-2.8224,-2.7656,-2.7335,-2.7268,-2.7214,-2.7024,-2.6388,-2.6067,-2.6,-2.535,-2.4983,-2.4983,-2.4456,-2.4117,-2.4004,-2.354,-2.3263,-2.3078,-2.3078,-2.3078,-2.7218,-2.7556,-2.7737,-2.8268,-2.8839,-2.9331,-2.9296,0.0,0.0,-3.1073,-3.164,-3.1966,-3.1495,0.0,0.0,0.0,0.0,-3.2359,0.0,0.0,0.0,0.0,0.0,0.0,0.0,0.0,0.0,0.0,0.0,0.0,-3.8277,-3.8723,-3.8797,-3.8202,-3.8202,-3.8202,-3.8202,-3.8202,-3.8202,-3.8202,-3.8202,-3.8202,-3.8202,-3.8202,-3.8202,-3.8202,-3.8202,0.0,0.0,-3.8723,-3.8664,-3.8263,-3.9188,-3.9546,-3.9429,-3.9253,-3.9498,-3.9753,-3.9069,-3.8756,-3.8552,-3.7886,-3.7125,-3.6492,-3.6492,-3.6492,-3.6492,-3.6492,-3.6492,-3.6492,-3.6492,-3.6492,-3.6492,-3.6492,-3.6336,-3.6211,-3.6133,-3.5943,-3.5688,-3.5688,-3.5604,-3.5504,-3.5504,-3.5504,-3.5504,-3.5504,-3.5394,-3.5096,-3.4409,-3.3128,-3.2014,-3.1267,-3.0029,-2.9016,-2.8417,-2.8222,-2.7842,-2.7011,-2.6744,-2.6582,-2.6445,-2.5824,-2.5523,-2.5523,-2.5008,-2.4506,-2.4004,-2.3941,-2.3653,-2.3078,-2.3078,-2.3078,-2.7451,-2.7963,-2.8421,-2.8906,-2.9219,-2.9628,-3.0058,0.0,-3.0925,-3.1263,-3.1724,-3.1894,-3.1437,0.0,0.0,0.0,0.0,0.0,-3.3487,0.0,0.0,0.0,0.0,0.0,0.0,0.0,0.0,0.0,0.0,0.0,-3.9262,-3.9147,-3.8797,-3.8202,-3.8202,-3.8202,-3.8202,-3.8202,-3.8202,-3.8202,-3.8202,-3.8202,-3.8202,-3.8202,-3.8202,-3.8202,-3.8202,0.0,0.0,-3.9031,-3.9162,-3.9262,-3.9748,-4.006,-4.0339,-4.0201,-4.038,-4.0704,-3.9982,-3.9601,-3.9265,-3.8647,-3.8116,-3.7554,-3.6738,-3.6492,-3.6492,-3.6492,-3.6492,-3.6492,-3.6492,-3.6492,-3.6492,-3.6492,-3.6414,-3.6352,-3.6211,-3.6085,-3.5943,-3.5752,-3.5638,-3.5589,-3.5504,-3.5504,-3.5504,-3.5504,-3.5504,-3.525,-3.4562,-3.3687,-3.2847,-3.2196,-3.052,-2.9205,-2.8546,-2.8481,-2.8105,-2.7335,-2.7134,-2.7066,-2.6998,-2.6646,-2.6396,-2.6236,-2.5719,-2.5327,-2.4958,-2.4644,-2.4368,-2.4142,-2.3803,-2.3653,-2.8083,-2.8696,-2.9316,-2.951,-2.9842,-3.0133,0.0,0.0,-3.1218,-3.1537,-3.1992,-3.2176,-3.1781,-3.2048,0.0,0.0,0.0,-3.2562,-3.3905,-3.4103,0.0,0.0,0.0,0.0,0.0,0.0,0.0,0.0,0.0,0.0,-4.02,-3.9793,-3.9235,-3.8501,-3.8277,-3.8202,-3.8202,-3.8202,-3.8202,-3.8202,-3.8202,-3.8202,-3.8202,-3.8202,-3.8277,-3.8501,0.0,0.0,0.0,-3.9523,-3.9722,-3.996,-4.0239,-4.0547,-4.0799,-4.0836,-4.1039,-4.1327,-4.0673,-4.0368,-4.0044,-3.9346,-3.8932,-3.86,-3.7446,-3.6953,-3.6738,-3.6553,-3.6492,-3.6492,-3.6492,-3.6492,-3.6492,-3.6492,-3.6492,-3.6492,-3.6336,-3.6274,-3.6133,-3.5816,-3.5752,-3.5638,-3.5489,-3.5504,-3.5504,-3.5504,-3.5504,-3.5325,-3.4846,-3.4203,-3.3529,-3.2871,-3.1375,-2.9964,-2.8853,-2.8967,-2.8712,-2.7776,-2.7656,-2.759,-2.751,-2.7201,-2.6943,-2.6714,-2.6333,-2.5975,-2.5598,-2.5222,-2.4971,-2.4808,-2.4418,-2.4155,-2.9372,-2.9912,-3.045,-3.0312,-3.0807,-3.1161,0.0,0.0,-3.2135,-3.1936,-3.2617,-3.3118,-3.2656,-3.2958,-3.3309,-3.3309,0.0,0.0,-3.4372,-3.4632,0.0,0.0,0.0,0.0,0.0,0.0,0.0,0.0,0.0,0.0,-4.0799,-4.0799,-4.0231,-3.9104,-3.8501,-3.8202,-3.8202,-3.8202,-3.8202,-3.8202,-3.8202,-3.8202,-3.8202,-3.8202,-3.8501,0.0,0.0,0.0,0.0,-4.0578,-4.0424,-4.003,-4.1158,-4.1256,-4.0851,-4.139,-4.1588,-4.1588,-4.1374,-4.1205,-4.0909,-4.006,-3.9642,-3.9385,-3.8692,-3.8015,-3.7353,-3.6676,-3.6492,-3.6492,-3.6492,-3.6492,-3.6492,-3.6492,-3.6492,-3.6492,-3.6492,-3.6352,-3.6148,-3.6037,-3.5831,-3.5638,-3.5489,-3.5504,-3.5504,-3.5504,-3.5504,-3.5504,-3.5489,-3.4891,-3.4218,-3.3559,-3.2901,-3.1661,-2.9685,-3.0072,-2.9842,-2.8417,-2.8287,-2.8208,-2.7986,-2.739,-2.6943,-2.6714,-2.6714,-2.6367,-2.5598,-2.5586,-2.5322,-2.482,-2.4808,-2.4519,-3.0022,-3.0904,-3.1807,-3.1849,-3.2074,-3.2256,-3.2018,0.0,-3.2594,-3.2437,-3.2888,-3.3187,-3.2711,-3.2996,-3.3309,-3.3309,-3.3187,0.0,0.0,0.0,0.0,0.0,0.0,0.0,0.0,0.0,0.0,0.0,0.0,0.0,-4.1323,-4.1003,-4.0439,-3.9707,-3.9478,-3.9205,-3.8797,-3.9205,-3.8972,-3.8202,-3.8649,-3.8575,-3.8202,-3.8649,0.0,0.0,0.0,0.0,0.0,-4.0715,-4.0919,-4.1091,-4.144,-4.1522,-4.139,-4.1522,-4.1588,-4.1588,-4.1522,-4.1355,-4.107,-4.0785,-4.0421,-4.0078,-3.94,-3.8415,-3.7353,-3.6676,-3.6492,-3.6492,-3.6492,-3.6492,-3.6492,-3.6492,-3.6492,-3.6492,-3.6492,-3.6429,-3.6289,-3.6037,-3.5973,-3.5846,-3.5569,-3.5504,-3.5504,-3.5504,-3.5504,-3.5504,-3.5504,-3.4906,-3.4218,-3.3559,-3.2901,-3.1856,-3.0326,-3.0389,-3.0086,-2.9205,-2.8725,-2.8417,-2.8338,-2.7709,-2.7268,-2.7134,-2.7011,-2.6786,-2.654,-2.6324,-2.59,-2.536,-2.536,-2.5071,0.0,-3.1389,-3.2398,-3.2437,-3.2492,0.0,0.0,0.0,-3.2812,-3.2834,-3.3118,-3.3187,-3.2888,-3.3118,-3.3309,-3.3309,-3.3309,0.0,0.0,0.0,0.0,0.0,0.0,0.0,0.0,0.0,0.0,0.0,0.0,0.0,-4.1588,-4.1256,-4.0904,-4.0531,-4.01,-3.9763,-3.9436,-3.9763,-3.9535,-3.8841,-3.9205,-3.922,-3.8841,-3.922,0.0,0.0,0.0,0.0,0.0,-4.1122,-4.1323,-4.1588,-4.1588,-4.1588,-4.1588,-4.1588,-4.1588,-4.1588,-4.1522,-4.1339,-4.1169,-4.1117,-4.0898,-4.0423,-3.9416,-3.8369,-3.7353,-3.6676,-3.6492,-3.6492,-3.6492,-3.6492,-3.6492,-3.6492,-3.6492,-3.6492,-3.6492,-3.6492,-3.6429,-3.6148,-3.61,-3.5973,-3.5733,-3.5619,-3.5604,-3.5604,-3.5554,-3.5504,-3.5504,-3.513,-3.4517,-3.3589,-3.3125,-3.2318,-3.0969,-3.0896,-3.0584,-2.995,-2.9268,-2.8903,-2.8903,-2.796,-2.7469,-2.7268,-2.7214,-2.7079,-2.7024,-2.6739,-2.64,-2.598,-2.598,-2.5636,0.0,-3.1495,0.0,0.0,0.0,0.0,0.0,0.0,0.0,-3.3187,-3.3309,-3.3309,-3.3309,-3.3309,-3.3309,-3.3309,-3.3309,0.0,0.0,0.0,0.0,0.0,0.0,0.0,0.0,0.0,0.0,0.0,0.0,0.0,0.0,-4.1588,-4.1588,-4.1588,-4.06,-3.996,-3.996,-3.996,-3.996,-3.9889,-3.996,-3.996,-3.9889,-3.996,0.0,0.0,0.0,0.0,0.0,-4.1588,-4.1588,-4.1588,-4.1588,-4.1588,-4.1588,-4.1588,-4.1588,-4.1588,-4.139,-4.1323,-4.1256,-4.1169,-4.095,-4.0551,-3.899,-3.8077,-3.7415,-3.6692,-3.6492,-3.6492,-3.6492,-3.6492,-3.6492,-3.6492,-3.6492,-3.6492,-3.6492,-3.6492,-3.6414,-3.6274,-3.6196,-3.6148,-3.6037,-3.5831,-3.5688,-3.5688,-3.5589,-3.5504,-3.5504,-3.5504,-3.4996,-3.3634,-3.3499,-3.2961,-3.1586,-3.1482,-3.1219,-3.0584,-2.995,-2.9566,-2.9504,-2.8274,-2.7456,-2.7335,-2.7335,-2.7214,-2.7024,-2.6794,-2.6714,-2.6714,-2.6589,-2.6176,-3.1678,0.0,-3.3134,-3.3277,-3.333,-3.333,0.0,0.0,0.0,0.0,0.0,-3.3309,-3.3309,-3.3309,-3.3309,-3.3309,-3.3309,0.0,0.0,0.0,0.0,0.0,0.0,0.0,0.0,0.0,0.0,0.0,0.0,0.0,0.0,-4.1588,-4.1588,-4.1588,-4.1374,-4.1024,-4.0578,-4.0972,-4.0737,-3.9889,-4.0355,-4.0339,-3.9905,-4.0355,0.0,0.0,0.0,0.0,-4.1588,-4.1588,-4.1588,-4.1588,-4.1588,-4.1588,-4.1588,-4.1588,-4.1588,-4.1588,-4.1522,-4.1456,-4.1256,-4.1169,-4.1034,-4.0702,-3.9187,-3.8531,-3.8015,-3.683,-3.6492,-3.6492,-3.6492,-3.6492,-3.6492,-3.6492,-3.6492,-3.6492,-3.6492,-3.6492,-3.6414,-3.6274,-3.6196,-3.6148,-3.6037,-3.5973,-3.591,-3.591,-3.5767,-3.5638,-3.5638,-3.5539,-3.4996,-3.3634,-3.3499,-3.2961,-3.1586,-3.1482,-3.1409,-3.1278,-3.0644,-3.0011,-2.9504,-2.8712,-2.8039,-2.7469,-2.7469,-2.7268,-2.7024,-2.6943,-2.6875,-2.6714,-2.6589,-2.6389,-3.2602,-3.2946,-3.3346,-3.3503,-3.3503,-3.3503,0.0,0.0,0.0,0.0,0.0,0.0,-3.3309,0.0,0.0,0.0,-3.3309,0.0,0.0,0.0,0.0,0.0,0.0,0.0,0.0,0.0,0.0,0.0,0.0,0.0,0.0,-4.1588,-4.1588,-4.1588,-4.1588,-4.1456,-4.1189,-4.1456,-4.1307,-4.0668,-4.1039,-4.0972,-4.0668,-4.1039,-4.1205,0.0,0.0,0.0,-4.1588,-4.1588,-4.1588,-4.1588,-4.1588,-4.1588,-4.1588,-4.1588,-4.1588,-4.1588,-4.1588,-4.1522,-4.1343,-4.0912,-4.0751,-4.0435,-3.8916,-3.8384,-3.8023,-3.6847,-3.6492,-3.6492,-3.6492,-3.6492,-3.6492,-3.6492,-3.6723,-3.6831,-3.6554,-3.6723,-3.6769,-3.6399,-3.6352,-3.6289,-3.6226,-3.6163,-3.6085,-3.6085,-3.5958,-3.5831,-3.5831,-3.5718,-3.5213,-3.4162,-3.3726,-3.308,-3.2078,-3.1704,-3.1482,-3.1482,-3.0896,-3.0329,-2.995,-2.903,-2.8157,-2.7523,-2.7523,-2.7403,-2.7146,-2.7011,-2.6943,-2.6794,-2.6602,-2.6521,-3.3357,-3.3468,-3.3398,-3.3309,-3.3309,-3.3309,0.0,0.0,0.0,0.0,0.0,0.0,0.0,0.0,0.0,0.0,0.0,0.0,0.0,0.0,0.0,0.0,0.0,0.0,0.0,0.0,0.0,0.0,0.0,0.0,0.0,-4.1588,-4.1541,-4.1446,-4.143,-4.1383,-4.1272,-4.1478,-4.1588,-4.1588,-4.1588,-4.1588,-4.1588,-4.1588,-4.1588,0.0,0.0,0.0,-4.143,-4.143,-4.1367,-4.1272,-4.1272,-4.1272,-4.1272,-4.1272,-4.1272,-4.1272,-4.1272,-4.1272,-4.1178,-4.0383,-4.0195,-3.9894,-3.8466,-3.8029,-3.7826,-3.6879,-3.6554,-3.6554,-3.6492,-3.6492,-3.6492,-3.6616,-3.7013,-3.7298,-3.6892,-3.7178,-3.7401,-3.6892,-3.6723,-3.6662,-3.6662,-3.6399,-3.6274,-3.6274,-3.61,-3.5973,-3.5973,-3.5831,-3.5446,-3.4768,-3.3935,-3.323,-3.2572,-3.1913,-3.1482,-3.1482,-3.097,-3.0584,-3.0329,-2.9156,-2.8157,-2.7523,-2.7523,-2.7469,-2.7335,-2.7146,-2.7011,-2.7011,-2.6671,-2.6589,-3.3657,-3.3746,-3.3848,-3.3398,-3.3309,-3.3309,0.0,0.0,0.0,0.0,0.0,0.0,0.0,0.0,0.0,0.0,0.0,0.0,0.0,0.0,0.0,0.0,0.0,0.0,0.0,0.0,0.0,0.0,0.0,0.0,0.0,-4.1588,-4.1336,-4.0767,-4.0751,-4.0451,-3.9819,-4.0988,-4.1588,-4.1588,-4.1588,-4.1588,-4.1588,-4.1588,-4.1588,0.0,0.0,-4.1272,-4.0751,-4.0751,-4.0388,-3.9819,-3.9819,-3.9819,-3.9819,-3.9819,-3.9819,-3.9819,-3.9819,-3.9819,-3.9803,-3.9692,-3.9598,-3.9456,-3.8513,-3.8277,-3.8074,-3.7186,-3.68,-3.6662,-3.6554,-3.6492,-3.66,-3.7118,-3.7358,-3.7519,-3.7953,-3.8124,-3.8108,-3.8067,-3.7621,-3.7238,-3.7238,-3.6831,-3.6429,-3.6429,-3.6163,-3.5973,-3.5973,-3.5733,-3.5299,-3.461,-3.3888,-3.323,-3.2572,-3.1913,-3.1482,-3.1482,-3.1409,-3.0837,-2.969,-2.8903,-2.8157,-2.7523,-2.7523,-2.7456,-2.7469,-2.7335,-2.7268,-2.7268,-2.6863,-2.6658,-3.443,-3.4234,-3.3949,-3.345,-3.3309,0.0,0.0,0.0,0.0,0.0,0.0,0.0,0.0,0.0,0.0,0.0,0.0,0.0,0.0,0.0,0.0,0.0,0.0,0.0,0.0,0.0,0.0,0.0,0.0,0.0,0.0,0.0,-4.0324,-4.0024,-4.0008,-3.9835,-3.9503,-4.0135,-4.0467,-4.0467,-4.0467,-4.0467,-4.0467,-4.0467,-4.0467,-4.0467,0.0,-4.0293,-4.0008,-4.0008,-3.9803,-3.9503,-3.9503,-3.9503,-3.9503,-3.9503,-3.9503,-3.9503,-3.9503,-3.9503,-3.9439,-3.9076,-3.8965,-3.8839,-3.8099,-3.8042,-3.8184,-3.7646,-3.7074,-3.6662,-3.66,-3.6785,-3.7074,-3.7358,-3.7911,-3.8367,-3.8294,-3.8574,-3.8684,-3.8334,-3.7796,-3.7417,-3.7417,-3.6892,-3.6492,-3.6492,-3.6367,-3.6226,-3.6148,-3.591,-3.5612,-3.5217,-3.4475,-3.3769,-3.3095,-3.2437,-3.1913,-3.1497,-3.1482,-3.1087,-3.0072,-2.9718,-2.9282,-2.8583,-2.8222,-2.7973,-2.7908,-2.7523,-2.7268,-2.7268,-2.6863,-2.6794,-3.5245,-3.48,-3.4134,-3.3607,0.0,0.0,0.0,0.0,0.0,0.0,0.0,0.0,0.0,0.0,0.0,0.0,0.0,0.0,0.0,0.0,0.0,0.0,0.0,0.0,0.0,0.0,0.0,0.0,0.0,0.0,0.0,0.0,-3.9424,-3.9281,-3.9281,-3.9187,-3.9029,-3.9029,-3.9187,-3.9503,-3.9503,-3.9503,-3.9503,-3.9503,-3.9503,-3.9503,-3.9503,-3.9408,-3.9281,-3.9281,-3.9171,-3.9029,-3.9029,-3.9136,-3.9243,-3.9243,-3.9304,-3.9425,-3.9425,-3.9425,-3.9329,-3.8654,-3.8539,-3.8547,-3.7902,-3.8042,-3.8463,-3.8197,-3.7695,-3.7163,-3.7103,-3.7342,-3.7637,-3.7812,-3.8535,-3.9082,-3.8794,-3.8974,-3.9082,-3.8794,-3.8026,-3.746,-3.7578,-3.7013,-3.6492,-3.6492,-3.6492,-3.6352,-3.6211,-3.6085,-3.5894,-3.5688,-3.4988,-3.4205,-3.3335,-3.2662,-3.2078,-3.1511,-3.1482,-3.1219,-3.0524,-3.0524,-3.0208,-2.9504,-2.8839,-2.8481,-2.8352,-2.7656,-2.7335,-2.7335,-2.6998,-2.693,-3.5977,-3.5311,-3.4642,-3.4134,0.0,0.0,0.0,0.0,0.0,0.0,0.0,0.0,0.0,0.0,0.0,0.0,0.0,0.0,0.0,0.0,0.0,0.0,0.0,0.0,0.0,0.0,0.0,0.0,0.0,0.0,0.0,0.0,0.0,-3.8602,-3.8586,-3.827,-3.7622,-3.7622,-3.8254,-3.9503,-3.9503,-3.9503,-3.9503,-3.9503,-3.9503,-3.9503,-3.9503,-3.9155,-3.8586,-3.8586,-3.8207,-3.7622,-3.7622,-3.7929,-3.8383,-3.8383,-3.8737,-3.9247,-3.9247,-3.9247,-3.9122,-3.8504,-3.8711,-3.9056,-3.8423,-3.8629,-3.9098,-3.8974,-3.8739,-3.8502,-3.8238,-3.8238,-3.8407,-3.892,-3.9152,-3.9365,-3.985,-3.9575,-3.9365,-3.985,-3.8574,-3.7578,-3.8124,-3.7282,-3.6492,-3.6492,-3.6352,-3.6211,-3.6196,-3.6085,-3.5894,-3.5688,-3.5085,-3.4134,-3.2691,-3.1988,-3.1526,-3.1482,-3.1482,-3.1219,-3.0524,-3.0524,-3.0208,-2.9504,-2.8839,-2.8481,-2.8481,-2.7776,-2.7456,-2.7469,-2.7335,-2.7268,-3.5654,-3.5111,-3.4593,-3.3781,0.0,0.0,0.0,0.0,0.0,0.0,0.0,0.0,0.0,0.0,0.0,0.0,0.0,0.0,0.0,0.0,0.0,0.0,0.0,0.0,0.0,0.0,0.0,0.0,0.0,0.0,0.0,0.0,0.0,-3.7875,-3.7875,-3.7749,-3.748,-3.748,-3.7733,-3.8254,-3.8254,-3.8254,-3.8254,-3.8254,-3.8254,-3.8254,-3.8254,-3.8096,-3.7919,-3.8227,-3.8025,-3.7524,-3.7886,-3.8141,-3.8351,-3.8739,-3.9028,-3.9206,-3.9206,-3.9206,-3.9135,-3.892,-3.9028,-3.9152,-3.892,-3.9226,-3.9645,-3.9558,-3.9662,-3.9594,-3.8668,-3.8629,-3.892,-3.9152,-3.947,-3.9799,-4.007,-3.9918,-3.985,-4.007,-3.9242,-3.8463,-3.8351,-3.7895,-3.7504,-3.7118,-3.7326,-3.731,-3.6829,-3.6723,-3.6492,-3.5958,-3.5163,-3.4269,-3.32,-3.2527,-3.1973,-3.1497,-3.1482,-3.1409,-3.1146,-3.1087,-3.1029,-3.0777,-2.9704,-2.9142,-2.9142,-2.8026,-2.7523,-2.7523,-2.7335,-2.7214,-3.5548,-3.5035,-3.4513,0.0,0.0,0.0,0.0,0.0,0.0,0.0,0.0,0.0,0.0,0.0,0.0,0.0,0.0,0.0,0.0,0.0,0.0,0.0,0.0,0.0,0.0,0.0,0.0,0.0,0.0,0.0,0.0,0.0,0.0,0.0,-3.748,-3.748,-3.748,-3.748,-3.748,-3.748,-3.748,-3.748,-3.7539,-3.7685,-3.7727,-3.7786,-3.796,-3.8017,-3.8075,-3.8423,-3.8367,-3.8059,-3.8423,-3.8668,-3.8887,-3.9279,-3.9558,-3.9731,-3.9731,-3.9731,-3.9731,-3.9506,-3.9558,-3.9731,-3.9506,-3.9868,-4.0286,-4.0137,-4.032,-4.032,-3.9385,-3.9295,-3.947,-3.947,-3.9799,-4.007,-4.007,-3.9969,-3.985,-4.007,-3.947,-3.8865,-3.8629,-3.8407,-3.8181,-3.7738,-3.7838,-3.7838,-3.7251,-3.7027,-3.6677,-3.61,-3.5178,-3.4403,-3.3844,-3.3021,-3.2317,-3.181,-3.1644,-3.1482,-3.1482,-3.1482,-3.1482,-3.1482,-3.0389,-2.9827,-2.9827,-2.8698,-2.8026,-2.7776,-2.7723,-2.7469,-3.5907,-3.5207,0.0,0.0,0.0,0.0,0.0,0.0,0.0,0.0,0.0,0.0,0.0,0.0,0.0,0.0,0.0,0.0,0.0,0.0,0.0,0.0,0.0,0.0,0.0,0.0,0.0,0.0,0.0,0.0,0.0,0.0,0.0,0.0,-3.748,-3.748,-3.748,-3.748,-3.748,-3.748,-3.748,-3.748,-3.7539,-3.8042,-3.8278,-3.8334,-3.892,-3.9206,-3.9206,-3.9206,-3.9206,-3.9206,-3.9206,-3.9558,-4.0003,-4.0003,-4.0385,-4.0888,-4.0888,-4.0888,-4.0823,-4.022,-4.0385,-4.0776,-4.017,-4.0434,-4.0888,-4.0745,-4.0697,-4.0648,-4.0534,-4.032,-4.0121,-4.007,-4.007,-4.007,-4.007,-3.9644,-3.9365,-3.9969,-3.9119,-3.8518,-3.9098,-3.8684,-3.8351,-3.8294,-3.7796,-3.7417,-3.7417,-3.6892,-3.6367,-3.6037,-3.513,-3.4487,-3.4472,-3.3275,-3.2527,-3.2512,-3.1898,-3.1482,-3.1482,-3.1482,-3.1482,-3.1482,-3.0837,-3.0524,-3.0524,-2.9827,-2.9142,-2.8481,-2.8481,-2.8105,-3.5786,-3.5249,0.0,0.0,0.0,0.0,0.0,0.0,0.0,0.0,0.0,0.0,0.0,0.0,0.0,0.0,0.0,0.0,0.0,0.0,0.0,0.0,0.0,0.0,0.0,0.0,0.0,0.0,0.0,0.0,0.0,0.0,0.0,0.0,-3.748,-3.748,-3.748,-3.748,-3.748,-3.748,-3.748,-3.748,-3.7539,-3.8042,-3.8278,-3.8334,-3.892,-3.9206,-3.9206,-3.9206,-3.9401,-3.9749,-3.9749,-3.9851,-4.0053,-4.05,-4.0776,-4.0888,-4.0888,-4.0888,-4.0871,-4.071,-4.0758,-4.0871,-4.071,-4.0776,-4.0888,-4.084,-4.0793,-4.0697,-4.0648,-4.0485,-4.0387,-4.0238,-4.0238,-4.0188,-4.0138,-3.9969,-3.9918,-4.007,-3.9799,-3.947,-3.9259,-3.9418,-3.9401,-3.8974,-3.881,-3.8367,-3.7535,-3.6892,-3.6429,-3.6148,-3.5902,-3.541,-3.4691,-3.3878,-3.3141,-3.2542,-3.1898,-3.1482,-3.1482,-3.1482,-3.1482,-3.1482,-3.0837,-3.0524,-3.0524,-2.9827,-2.9142,-2.8481,-2.8481,-2.8105,-3.5386,0.0,0.0,0.0,0.0,0.0,0.0,0.0,0.0,0.0,0.0,0.0,0.0,0.0,0.0,0.0,0.0,0.0,0.0,0.0,0.0,0.0,0.0,0.0,0.0,0.0,0.0,0.0,0.0,0.0,0.0,0.0,0.0,0.0,-3.7844,-3.7943,-3.8173,-3.8189,-3.8189,-3.8189,-3.8189,-3.8189,-3.8189,-3.8535,-3.8684,-3.8684,-3.9506,-3.9885,-3.9885,-3.9885,-4.0087,-4.0385,-4.0385,-4.0385,-4.0385,-4.0776,-4.0888,-4.0888,-4.0888,-4.0888,-4.0888,-4.0888,-4.0888,-4.0888,-4.0888,-4.0888,-4.0888,-4.0888,-4.084,-4.0793,-4.0793,-4.0728,-4.0631,-4.0436,-4.0337,-4.0305,-4.0188,-4.0138,-4.007,-4.007,-4.007,-3.9969,-3.9644,-3.985,-3.9969,-3.9592,-3.9365,-3.8865,-3.7911,-3.7385,-3.7071,-3.6935,-3.689,-3.6491,-3.5661,-3.4973,-3.4136,-3.3081,-3.2362,-3.1867,-3.1482,-3.1482,-3.1482,-3.1482,-3.1087,-3.0896,-3.0896,-3.0208,-2.958,-2.8903,-2.8597,-2.8105,0.0,0.0,0.0,0.0,0.0,0.0,0.0,0.0,0.0,0.0,0.0,0.0,0.0,0.0,0.0,0.0,0.0,0.0,0.0,0.0,0.0,0.0,0.0,0.0,0.0,0.0,0.0,0.0,0.0,0.0,0.0,0.0,0.0,-3.8351,-3.839,-3.8629,-3.9206,-3.9206,-3.9206,0.0,-3.9206,-3.9206,-3.9206,-3.9259,-3.9312,-3.9418,-4.0451,-4.0888,-4.0888,-4.0888,-4.0888,-4.0888,-4.0888,-4.0888,-4.0888,-4.0888,-4.0888,-4.0888,-4.0888,-4.0888,-4.0888,-4.0888,-4.0888,-4.0888,-4.0888,-4.0888,-4.0888,-4.0888,-4.0888,-4.0888,-4.0888,-4.0888,-4.084,-4.0566,-4.0436,-4.0288,-4.0288,-4.0188,-4.007,-4.007,-4.007,-4.007,-4.007,-4.007,-4.007,-4.002,-3.9523,-3.8974,-3.8407,-3.8133,-3.806,-3.806,-3.7905,-3.7589,-3.6951,-3.6326,-3.5301,-3.3925,-3.32,-3.2419,-3.1569,-3.1539,-3.1482,-3.1482,-3.1482,-3.1482,-3.1482,-3.0896,-3.0269,-2.958,-2.8967,-2.8222,0.0,0.0,0.0,0.0,0.0,0.0,0.0,0.0,0.0,0.0,0.0,0.0,0.0,0.0,0.0,0.0,0.0,0.0,0.0,0.0,0.0,0.0,0.0,0.0,0.0,0.0,0.0,0.0,0.0,0.0,0.0,0.0,0.0,-3.8974,-3.9028,-3.9082,-3.9206,-3.9206,-3.9206,0.0,-3.9206,-3.9206,-3.9206,-3.9662,-4.007,-4.0566,-4.0776,-4.0888,-4.0888,-4.0888,-4.0888,-4.0888,-4.0888,-4.0888,-4.0888,-4.0888,-4.0888,-4.0888,-4.0888,-4.0888,-4.0888,-4.0888,-4.0888,-4.0888,-4.0888,-4.0888,-4.0888,-4.0888,-4.0888,-4.0888,-4.0888,-4.0888,-4.0888,-4.084,-4.0631,-4.0436,-4.0337,-4.0188,-4.007,-4.007,-4.007,-4.007,-4.007,-4.007,-3.9969,-3.947,-3.9259,-3.8974,-3.8407,-3.8278,-3.8222,-3.8222,-3.8222,-3.7879,-3.7115,-3.6428,-3.5478,-3.403,-3.3304,-3.2579,-3.1757,-3.1597,-3.1482,-3.1482,-3.1482,-3.1482,-3.1482,-3.1351,-3.097,-3.0269,-3.0147,-2.9407,0.0,0.0,0.0,0.0,0.0,0.0,0.0,0.0,0.0,0.0,0.0,0.0,0.0,0.0,0.0,0.0,0.0,0.0,0.0,0.0,0.0,0.0,0.0,0.0,0.0,0.0,0.0,0.0,0.0,0.0,0.0,-3.9028,-3.9295,-3.9542,-3.9594,-3.9714,-3.9986,-3.9986,-3.9986,-3.9986,-3.9986,-3.9986,-3.9986,-4.0003,-4.0336,-4.0888,-4.0888,-4.0888,-4.0888,-4.0888,-4.0888,-4.0888,-4.0888,-4.0888,-4.0888,-4.0888,-4.0888,-4.0888,-4.0888,-4.0888,-4.0888,-4.0888,-4.0888,-4.0888,-4.0888,-4.0888,-4.0888,-4.0888,-4.0888,-4.0888,-4.0888,-4.0888,-4.0888,-4.0888,-4.068,-4.0485,-4.0387,-4.0238,-4.007,-4.007,-4.007,-4.007,-4.007,-4.007,-3.9969,-3.9696,-3.9644,-3.9523,-3.9172,-3.9172,-3.9172,-3.9172,-3.9172,-3.8778,-3.7764,-3.7371,-3.6274,-3.421,-3.371,-3.297,-3.1829,-3.1597,-3.1482,-3.1482,-3.1482,-3.1482,-3.1482,-3.1161,-3.0837,-3.0524,-3.0147,-2.9456,0.0,0.0,0.0,0.0,0.0,0.0,0.0,0.0,0.0,0.0,0.0,0.0,0.0,0.0,0.0,0.0,0.0,0.0,0.0,0.0,0.0,0.0,0.0,0.0,0.0,0.0,0.0,0.0,0.0,0.0,-3.9348,-3.9285,-3.9461,-3.9917,-3.9848,-4.0061,-4.0681,-4.0681,-4.075,-4.0888,-4.0888,-4.0888,-4.0871,-4.0385,-4.0434,-4.0888,-4.0888,-4.0888,-4.0888,-4.0888,-4.0888,-4.0888,-4.0888,-4.0888,-4.0888,-4.0888,-4.0888,-4.0888,-4.0888,-4.0888,-4.0888,-4.0888,-4.0888,-4.0888,-4.0888,-4.0888,-4.0888,-4.0888,-4.0888,-4.0888,-4.0888,-4.0888,-4.0888,-4.0888,-4.0728,-4.0534,-4.0534,-4.032,-4.0171,-4.0138,-4.0138,-4.007,-4.007,-4.007,-4.007,-4.007,-4.007,-4.007,-4.007,-4.007,-4.007,-4.007,-4.007,-3.9627,-3.8574,-3.8463,-3.7391,-3.4895,-3.4432,-3.36,-3.2266,-3.1829,-3.1597,-3.1539,-3.1539,-3.1482,-3.1482,-3.097,-3.0644,-3.0644,-3.0072,-2.9393,0.0,0.0,0.0,0.0,0.0,0.0,0.0,0.0,0.0,0.0,0.0,0.0,0.0,0.0,0.0,0.0,0.0,0.0,0.0,0.0,0.0,0.0,0.0,0.0,0.0,0.0,0.0,0.0,0.0,0.0,-3.9902,-3.9754,-3.965,-3.9743,-3.9124,-3.9152,-3.9853,-3.9853,-4.0198,-4.0888,-4.0888,-4.0888,-4.0888,-4.0823,-4.0823,-4.0888,-4.0888,-4.0888,-4.0888,-4.0888,-4.0888,-4.0888,-4.0888,-4.0888,-4.0888,-4.0888,-4.0888,-4.0888,-4.0888,-4.0888,-4.0888,-4.0888,-4.0888,-4.0888,-4.0888,-4.0888,-4.0888,-4.0888,-4.0888,-4.0888,-4.0888,-4.0888,-4.0888,-4.0888,-4.0793,-4.0648,-4.0648,-4.0534,-4.0436,-4.0288,-4.0188,-4.007,-4.007,-4.007,-4.007,-4.007,-4.007,-4.007,-4.007,-4.007,-4.007,-4.007,-4.007,-3.9799,-3.9135,-3.9082,-3.845,-3.6964,-3.5816,-3.4816,-3.3834,-3.2609,-3.1883,-3.1727,-3.1597,-3.1482,-3.1482,-3.1409,-3.1351,-3.1351,-3.1278,-3.0584,0.0,0.0,0.0,0.0,0.0,0.0,0.0,0.0,0.0,0.0,0.0,0.0,0.0,0.0,0.0,0.0,0.0,0.0,0.0,0.0,0.0,0.0,0.0,0.0,0.0,0.0,0.0,0.0,0.0,-3.9217,-3.9217,-3.9158,-3.9077,-3.9077,-3.8767,-3.875,-3.9077,-3.9077,-3.925,-3.9595,-3.9595,-3.9595,-3.9612,-4.0026,-4.0457,-4.0888,-4.0888,-4.0888,-4.0888,-4.0888,-4.0888,-4.0888,-4.0888,-4.0888,-4.0888,-4.0888,-4.0888,-4.0888,-4.0888,-4.0888,-4.0888,-4.0888,-4.0888,-4.0888,-4.0888,-4.0888,-4.0888,-4.0888,-4.0888,-4.0888,-4.0888,-4.0888,-4.0888,-4.0888,-4.0823,-4.0793,-4.0793,-4.0631,-4.0468,-4.0436,-4.0387,-4.032,-4.032,-4.0288,-4.0188,-4.0188,-4.0138,-4.007,-4.007,-4.007,-4.007,-4.007,-4.007,-3.9867,-3.9259,-3.9206,-3.8661,-3.7384,-3.6291,-3.5204,-3.4125,-3.2958,-3.215,-3.1799,-3.1597,-3.1482,-3.1482,-3.1482,-3.1482,-3.1482,-3.1482,-3.097,0.0,0.0,0.0,0.0,0.0,0.0,0.0,0.0,0.0,0.0,0.0,0.0,0.0,0.0,0.0,0.0,0.0,0.0,0.0,0.0,0.0,0.0,0.0,0.0,0.0,0.0,0.0,0.0,0.0,-3.8594,-3.8594,-3.8405,-3.8301,-3.8301,-3.8112,-3.8094,-3.8301,-3.8491,-3.8594,-3.8594,-3.8594,-3.8594,-3.8612,-3.9163,-3.9836,-4.0595,-4.0802,-4.0888,-4.0888,-4.0888,-4.0888,-4.0888,-4.0888,-4.0888,-4.0888,-4.0888,-4.0888,-4.0888,-4.0888,-4.0888,-4.0888,-4.0888,-4.0888,-4.0888,-4.0888,-4.0888,-4.0888,-4.0888,-4.0888,-4.0888,-4.0888,-4.0888,-4.0888,-4.0888,-4.0888,-4.0888,-4.0888,-4.0728,-4.0534,-4.0534,-4.0534,-4.0485,-4.0485,-4.0387,-4.0305,-4.0305,-4.0188,-4.007,-4.007,-4.007,-4.007,-4.007,-4.007,-3.9918,-3.947,-3.9418,-3.901,-3.8077,-3.6857,-3.5808,-3.492,-3.3619,-3.2695,-3.2247,-3.2064,-3.1838,-3.1482,-3.1482,-3.1482,-3.1482,-3.1482,-3.1161,0.0,0.0,0.0,0.0,0.0,0.0,0.0,0.0,0.0,0.0,0.0,0.0,0.0,0.0,0.0,0.0,0.0,0.0,0.0,0.0,0.0,0.0,0.0,0.0,0.0,0.0,0.0,0.0,0.0,-3.8594,-3.8594,-3.7922,-3.7542,-3.7542,-3.6818,-3.6784,-3.7542,-3.8232,-3.8594,-3.8594,-3.8594,-3.8594,-3.8594,-3.8629,-3.906,-3.9802,-4.056,-4.0888,-4.0888,-4.0888,-4.0888,-4.0888,-4.0888,-4.0888,-4.0888,-4.0888,-4.0888,-4.0888,-4.0888,-4.0888,-4.0888,-4.0888,-4.0888,-4.0888,-4.0888,-4.0888,-4.0888,-4.0888,-4.0888,-4.0888,-4.0888,-4.0888,-4.0888,-4.0888,-4.0888,-4.0888,-4.0888,-4.0793,-4.0697,-4.0697,-4.0583,-4.0485,-4.0485,-4.0387,-4.0305,-4.0305,-4.0188,-4.007,-4.007,-4.007,-4.007,-4.007,-4.007,-4.007,-4.007,-4.007,-4.0003,-3.9969,-3.8103,-3.6985,-3.6952,-3.4866,-3.3684,-3.3495,-3.3391,-3.2718,-3.1482,-3.1482,-3.1482,-3.1482,-3.1482,-3.1161,0.0,0.0,0.0,0.0,0.0,0.0,0.0,0.0,0.0,0.0,0.0,0.0,0.0,0.0,0.0,0.0,0.0,0.0,0.0,0.0,0.0,0.0,0.0,0.0,0.0,0.0,0.0,0.0,0.0,0.0,-3.7111,-3.687,-3.6715,-3.6715,-3.6456,-3.6439,-3.6715,-3.6991,-3.7111,-3.7111,-3.7111,-3.7111,-3.7129,-3.7646,-3.8025,-3.8353,-3.9577,-4.0405,-4.0888,-4.0888,-4.0888,-4.0888,-4.0888,-4.0888,-4.0888,-4.0888,-4.0888,-4.0888,-4.0888,-4.0888,-4.0888,-4.0888,-4.0888,-4.0888,-4.0888,-4.0888,-4.0888,-4.0888,-4.0888,-4.0888,-4.0888,-4.0888,-4.0888,-4.0888,-4.0888,-4.0888,-4.0888,-4.0888,-4.084,-4.084,-4.0776,-4.0776,-4.0776,-4.0648,-4.0551,-4.0436,-4.0288,-4.0188,-4.0121,-4.007,-4.007,-4.007,-4.007,-4.007,-4.007,-4.007,-4.007,-4.007,-3.8553,-3.7484,-3.7119,-3.5284,-3.4137,-3.3735,-3.3479,-3.313,-3.2571,-3.2272,-3.2079,-3.2064,-3.1697,-3.1351,0.0,0.0,0.0,0.0,0.0,0.0,0.0,0.0,0.0,0.0,0.0,0.0,0.0,0.0,0.0,0.0,0.0,0.0,0.0,0.0,0.0,0.0,0.0,0.0,0.0,0.0,0.0,0.0,0.0,0.0,-3.6557,-3.6557,-3.6516,-3.6492,-3.6701,-3.6684,-3.6492,-3.6516,-3.6451,-3.6301,-3.6301,-3.6301,-3.6318,-3.6853,-3.7232,-3.7542,-3.8525,-3.9543,-4.0509,-4.0767,-4.0888,-4.0888,-4.0888,-4.0888,-4.0888,-4.0888,-4.0888,-4.0888,-4.0888,-4.0888,-4.0888,-4.0888,-4.0888,-4.0888,-4.0888,-4.0888,-4.0888,-4.0888,-4.0888,-4.0888,-4.0888,-4.0888,-4.0888,-4.0888,-4.0888,-4.0888,-4.0888,-4.0888,-4.0888,-4.0888,-4.0888,-4.0888,-4.0888,-4.0793,-4.0648,-4.0583,-4.0436,-4.0337,-4.0188,-4.0188,-4.0138,-4.0121,-4.007,-4.007,-4.007,-4.007,-4.007,-4.007,-3.8717,-3.7745,-3.7386,-3.5804,-3.4752,-3.4366,-3.4169,-3.3969,-3.3834,-3.3055,-3.2602,-3.2398,-3.1966,-3.1697,0.0,0.0,0.0,0.0,0.0,0.0,0.0,0.0,0.0,0.0,0.0,0.0,0.0,0.0,0.0,0.0,0.0,0.0,0.0,0.0,0.0,0.0,0.0,0.0,0.0,0.0,0.0,0.0,0.0,-3.6981,-3.6981,-3.6981,-3.6999,-3.6939,-3.7434,-3.747,-3.6939,-3.6999,-3.6803,-3.6326,-3.6343,-3.6343,-3.6343,-3.6343,-3.6757,-3.7482,-3.7517,-3.8363,-3.9715,-4.0526,-4.0853,-4.0888,-4.0888,-4.0888,-4.0888,-4.0888,-4.0888,-4.0888,-4.0888,-4.0888,-4.0888,-4.0888,-4.0888,-4.0888,-4.0888,-4.0888,-4.0888,-4.0888,-4.0888,-4.0871,-4.0918,-4.0935,-4.0871,-4.0918,-4.0935,-4.0888,-4.0888,-4.0888,-4.0888,-4.0888,-4.0888,-4.0888,-4.0888,-4.0793,-4.0697,-4.0697,-4.0583,-4.0436,-4.0337,-4.0305,-4.0238,-4.0138,-4.0138,-4.0121,-4.007,-4.007,-4.007,-4.007,-3.8734,-3.7922,-3.7905,-3.6451,-3.5611,-3.5492,-3.5383,-3.5245,-3.5105,-3.3818,-3.2949,-3.2453,-3.2398,-3.2079,-3.693,0.0,0.0,0.0,0.0,0.0,0.0,0.0,0.0,0.0,0.0,0.0,0.0,0.0,0.0,0.0,0.0,0.0,0.0,0.0,0.0,0.0,0.0,0.0,0.0,0.0,0.0,0.0,-3.6377,-3.6771,-3.6771,-3.6995,-3.7266,-3.747,-3.7631,-3.7631,-3.747,-3.7506,-3.7452,-3.7324,-3.7268,-3.7248,-3.721,-3.69,-3.6881,-3.7108,-3.7703,-3.8295,-3.8957,-3.9715,-4.0353,-4.0888,-4.0888,-4.0888,-4.0888,-4.0888,-4.0888,-4.0888,-4.0888,-4.0888,-4.0888,-4.0888,-4.0888,-4.0888,-4.0888,-4.0888,-4.0888,-4.0888,-4.0888,-4.0965,-4.1237,-4.1117,-4.0965,-4.1283,-4.1117,-4.0888,-4.0888,-4.0888,-4.0888,-4.0888,-4.0888,-4.0888,-4.0888,-4.0888,-4.0793,-4.0697,-4.0648,-4.06,-4.0485,-4.0436,-4.0387,-4.0238,-4.0238,-4.0188,-4.0138,-4.007,-4.007,-4.007,-3.9208,-3.8464,-3.7922,-3.6975,-3.6197,-3.5594,-3.5475,-3.5446,-3.54,-3.4366,-3.3764,-3.361,-3.2765,-3.2287,0.0,0.0,0.0,0.0,0.0,0.0,-3.7223,-3.7206,0.0,0.0,0.0,0.0,0.0,0.0,0.0,0.0,0.0,0.0,0.0,0.0,0.0,0.0,0.0,0.0,0.0,0.0,0.0,-3.5416,-3.6023,-3.6541,-3.6897,-3.727,-3.7633,-3.7941,-3.8158,-3.819,-3.7959,-3.7993,-3.7873,-3.7701,-3.7649,-3.7631,-3.7631,-3.7342,-3.723,-3.7266,-3.7745,-3.8227,-3.8778,-3.9508,-4.0244,-4.0888,-4.0888,-4.0888,-4.0888,-4.0888,-4.0888,-4.0888,-4.0888,-4.0888,-4.0888,-4.0888,-4.0995,-4.1163,-4.1163,-4.1163,-4.1209,-4.1373,-4.1463,-4.1463,-4.149,-4.1328,-4.1163,-4.1237,-4.1088,-4.0888,-4.0888,-4.1041,-4.1071,-4.0918,-4.0888,-4.0888,-4.0888,-4.1041,-4.1117,-4.1041,-4.1024,-4.0977,-4.0772,-4.0597,-4.0436,-4.0238,-4.0188,-4.0188,-4.0138,-4.007,-4.007,-4.007,-3.9394,-3.8667,-3.7939,-3.7178,-3.6417,-3.5639,-3.552,-3.5492,-3.54,-3.4787,-3.4349,-3.4101,-3.3177,-3.2586,0.0,0.0,0.0,0.0,0.0,0.0,-3.7126,-3.7281,-3.7413,0.0,0.0,0.0,0.0,0.0,0.0,0.0,0.0,0.0,0.0,0.0,0.0,0.0,0.0,0.0,0.0,-3.5169,-3.5223,-3.5223,-3.5665,-3.6291,-3.7034,-3.7552,-3.7968,-3.824,-3.881,-3.8865,-3.8405,-3.8449,-3.8273,-3.7873,-3.7839,-3.7839,-3.7839,-3.7771,-3.7771,-3.7771,-3.7771,-3.8204,-3.8959,-3.9748,-4.0412,-4.092,-4.1007,-4.1041,-4.1041,-4.1041,-4.1041,-4.1041,-4.1041,-4.1041,-4.1041,-4.1041,-4.1283,-4.1561,-4.1561,-4.1561,-4.1648,-4.2074,-4.2198,-4.2115,-4.1692,-4.1516,-4.1445,-4.1134,-4.0995,-4.0965,-4.1041,-4.1328,-4.149,-4.1134,-4.1041,-4.1041,-4.1041,-4.1328,-4.1561,-4.1561,-4.1516,-4.1428,-4.1185,-4.0819,-4.0436,-4.0171,-4.0121,-4.0121,-4.0121,-4.0138,-4.007,-4.007,-3.9462,-3.8751,-3.7939,-3.7263,-3.6502,-3.5639,-3.552,-3.5446,-3.5291,-3.5198,-3.4804,-3.4201,-3.3578,-3.3002,0.0,0.0,0.0,0.0,0.0,0.0,-3.7339,-3.7469,-3.7469,0.0,0.0,0.0,0.0,0.0,0.0,0.0,0.0,0.0,0.0,0.0,0.0,0.0,0.0,0.0,0.0,-3.4261,-3.4641,-3.4641,-3.5281,-3.589,-3.6362,-3.7103,-3.7642,-3.7961,-3.8693,-3.9045,-3.8923,-3.897,-3.8923,-3.8818,-3.8778,-3.8766,-3.8718,-3.8373,-3.8176,-3.8176,-3.8176,-3.8413,-3.8903,-4.0041,-4.0721,-4.1126,-4.17,-4.1966,-4.1966,-4.1966,-4.1966,-4.1966,-4.1966,-4.1966,-4.1966,-4.1966,-4.199,-4.2074,-4.2074,-4.2074,-4.2074,-4.2157,-4.2198,-4.2157,-4.2074,-4.1778,-4.1561,-4.1881,-4.1666,-4.149,-4.1864,-4.199,-4.2032,-4.1948,-4.1966,-4.1966,-4.1966,-4.199,-4.2074,-4.2074,-4.1735,-4.1472,-4.1428,-4.1071,-4.0776,-4.06,-4.0485,-4.0387,-4.0288,-4.0188,-4.007,-4.007,-3.9935,-3.9276,-3.7973,-3.777,-3.7043,-3.5656,-3.5577,-3.5549,-3.5446,-3.5354,-3.5152,-3.4899,-3.4301,-3.3665,0.0,0.0,0.0,-3.7206,0.0,0.0,0.0,-3.765,-3.7809,0.0,0.0,0.0,0.0,0.0,0.0,0.0,0.0,0.0,0.0,0.0,0.0,0.0,0.0,0.0,0.0,-3.4092,-3.433,-3.433,-3.4697,-3.5174,-3.5818,-3.6224,-3.6712,-3.7281,-3.8079,-3.8488,-3.8488,-3.8897,-3.9101,-3.9101,-3.9064,-3.9064,-3.9045,-3.8807,-3.87,-3.87,-3.87,-3.8799,-3.9053,-4.0478,-4.111,-4.1252,-4.1934,-4.2198,-4.2198,-4.2198,-4.2198,-4.2198,-4.2198,-4.2198,-4.2198,-4.2198,-4.2378,-4.2537,-4.2537,-4.2693,-4.2808,-4.2634,-4.2693,-4.2808,-4.2577,-4.2378,-4.2198,-4.2198,-4.2032,-4.1906,-4.2157,-4.2378,-4.2537,-4.2537,-4.2693,-4.2732,-4.2279,-4.2378,-4.2537,-4.2537,-4.2338,-4.2157,-4.2115,-4.1735,-4.1401,-4.1248,-4.1202,-4.1111,-4.1007,-4.0943,-4.0896,-4.0784,-4.0784,-4.0112,-3.8612,-3.8543,-3.7836,-3.6301,-3.6266,-3.6224,-3.6199,-3.6139,-3.5766,-3.5088,-3.4771,-3.4301,0.0,0.0,0.0,0.0,0.0,-3.7185,0.0,0.0,0.0,-3.8201,0.0,0.0,0.0,0.0,0.0,0.0,0.0,0.0,0.0,0.0,0.0,0.0,0.0,0.0,0.0,-3.4269,-3.4269,-3.4269,-3.4221,-3.4494,-3.52,-3.5404,-3.5795,-3.6445,-3.7392,-3.7894,-3.7894,-3.8692,-3.9101,-3.9101,-3.9101,-3.9101,-3.9101,-3.9101,-3.9101,-3.9101,-3.9101,-3.9101,-3.9203,-4.0833,-4.141,-4.1383,-4.2157,-4.244,-4.244,-4.244,-4.244,-4.244,-4.244,-4.244,-4.244,-4.244,-4.2711,-4.3013,-4.3013,-4.3232,-4.3444,-4.3105,-4.3268,-4.3444,-4.3014,-4.2939,-4.2826,-4.244,-4.232,-4.2378,-4.244,-4.275,-4.3013,-4.3013,-4.3268,-4.3286,-4.2559,-4.275,-4.3013,-4.3013,-4.2957,-4.2844,-4.275,-4.2342,-4.1997,-4.1895,-4.1853,-4.1828,-4.1778,-4.1735,-4.1648,-4.1543,-4.1525,-4.0797,-3.9252,-3.8901,-3.8164,-3.6917,-3.69,-3.69,-3.69,-3.69,-3.6333,-3.5304,-3.5304,-3.4866,0.0,0.0,0.0,0.0,-3.7206,0.0,0.0,0.0,-3.8548,-3.8548,0.0,-3.8841,-3.7988,0.0,0.0,0.0,0.0,0.0,0.0,0.0,0.0,0.0,0.0,0.0,0.0,0.0,-3.4539,-3.4539,-3.434,-3.4234,-3.4327,-3.507,-3.5535,-3.5627,-3.7113,-3.7894,-3.7894,-3.8692,-3.9101,-3.9101,-3.9101,-3.9101,-3.9101,-3.9101,-3.9101,-3.9101,-3.9101,-3.9073,-3.9137,-4.0822,-4.141,-4.1427,-4.2886,-4.3391,-4.3356,-4.3356,-4.3356,-4.3356,-4.3356,-4.3356,-4.3356,-4.3356,-4.341,-4.341,-4.341,-4.3444,-4.3479,-4.3513,-4.3548,-4.3495,-4.3159,-4.3051,-4.2995,-4.2903,-4.2846,-4.292,-4.3286,-4.341,-4.341,-4.341,-4.3463,-4.3479,-4.3375,-4.341,-4.341,-4.341,-4.3123,-4.2882,-4.2882,-4.2458,-4.2157,-4.2157,-4.2038,-4.1979,-4.1955,-4.1803,-4.1692,-4.1692,-4.1587,-4.0797,-3.9252,-3.7883,-3.7075,-3.69,-3.69,-3.69,-3.69,-3.69,-3.658,-3.5985,-3.5985,-3.5357,0.0,0.0,0.0,0.0,0.0,0.0,-3.7685,0.0,-3.841,0.0,0.0,0.0,0.0,0.0,0.0,0.0,0.0,0.0,0.0,0.0,0.0,0.0,0.0,0.0,0.0,0.0,0.0,0.0,0.0,-3.4564,-3.445,-3.4764,-3.4923,-3.4736,-3.5887,-3.6723,-3.7188,-3.7986,-3.8637,-3.9101,-3.9101,-3.9101,-3.9101,-3.9101,-3.9101,-3.9101,-3.9101,-3.9073,-3.9194,-4.0863,-4.1501,-4.1558,-4.3171,-4.3734,-4.3686,-4.3686,-4.3686,-4.3686,-4.3686,-4.3686,-4.3686,-4.3686,-4.3686,-4.3686,-4.3686,-4.3686,-4.3686,-4.3719,-4.3719,-4.3667,-4.3529,-4.3513,-4.3479,-4.3479,-4.3356,-4.3356,-4.3513,-4.3532,-4.3497,-4.3497,-4.3497,-4.3497,-4.3497,-4.3497,-4.3497,-4.3497,-4.3339,-4.3268,-4.3268,-4.3087,-4.2958,-4.2958,-4.2903,-4.2865,-4.2808,-4.2732,-4.2652,-4.2534,-4.1518,-4.0617,-3.9973,-3.8491,-3.765,-3.765,-3.765,-3.765,-3.765,-3.765,-3.7413,-3.6882,-3.6274,-3.5509,-3.6316,0.0,0.0,0.0,0.0,0.0,0.0,0.0,0.0,0.0,0.0,0.0,0.0,0.0,-3.6479,0.0,0.0,0.0,0.0,0.0,0.0,0.0,0.0,0.0,0.0,0.0,0.0,0.0,0.0,0.0,-3.4689,-3.4689,-3.4586,-3.439,-3.5179,-3.5951,-3.677,-3.7511,-3.8302,-3.9101,-3.9101,-3.9101,-3.9101,-3.9101,-3.9101,-3.9101,-3.9101,-3.9101,-3.9231,-4.0903,-4.1579,-4.1686,-4.3299,-4.3915,-4.3851,-4.3804,-4.3804,-4.3804,-4.3804,-4.3804,-4.3804,-4.3804,-4.3804,-4.3804,-4.3804,-4.3804,-4.3804,-4.3837,-4.3837,-4.3818,-4.3851,-4.3818,-4.3837,-4.3837,-4.3753,-4.3667,-4.3667,-4.36,-4.3566,-4.3566,-4.3566,-4.3566,-4.3566,-4.3532,-4.3497,-4.3497,-4.3497,-4.3497,-4.3497,-4.3497,-4.3497,-4.3497,-4.3497,-4.3463,-4.3446,-4.3429,-4.3323,-4.3123,-4.1488,-4.0545,-4.0545,-3.9059,-3.8192,-3.8192,-3.8192,-3.8192,-3.8192,-3.8192,-3.7967,-3.7469,-3.6706,-3.602,0.0,0.0,0.0,-3.6851,0.0,0.0,0.0,0.0,-3.8688,0.0,0.0,0.0,0.0,0.0,0.0,0.0,0.0,0.0,0.0,0.0,0.0,0.0,0.0,0.0,0.0,0.0,0.0,0.0,0.0,0.0,-3.4908,-3.4908,-3.4889,-3.4889,-3.548,-3.6175,-3.6977,-3.7597,-3.8302,-3.9101,-3.9101,-3.9101,-3.9101,-3.9101,-3.9101,-3.9101,-3.9101,-3.9101,-3.9231,-4.0903,-4.159,-4.1757,-4.3373,-4.4005,-4.3974,-4.3851,-4.3804,-4.3804,-4.3804,-4.3804,-4.3804,-4.3804,-4.3804,-4.3804,-4.3804,-4.3804,-4.3804,-4.3883,-4.3915,-4.3897,-4.3974,-4.3961,-4.3915,-4.3915,-4.3851,-4.3804,-4.3804,-4.3804,-4.3804,-4.3804,-4.3804,-4.3804,-4.3804,-4.3652,-4.3497,-4.3497,-4.3497,-4.3497,-4.3497,-4.3497,-4.3497,-4.3497,-4.3497,-4.3497,-4.3497,-4.3446,-4.334,-4.3214,-4.1595,-4.0688,-4.0688,-3.9093,-3.8192,-3.8192,-3.8192,-3.8192,-3.8192,-3.8192,-3.7967,-3.7505,-3.7451,-3.7076,0.0,0.0,-3.5065,-3.602,0.0,0.0,0.0,0.0,0.0,0.0,0.0,0.0,0.0,0.0,0.0,0.0,0.0,0.0,0.0,0.0,0.0,0.0,0.0,0.0,0.0,0.0,0.0,0.0,0.0,0.0,0.0,-3.5089,-3.5037,-3.4889,-3.5095,-3.5584,-3.6394,-3.7,-3.7723,-3.8502,-3.8904,-3.9101,-3.9101,-3.9101,-3.9101,-3.9101,-3.9101,-3.9101,-3.9231,-4.0903,-4.159,-4.1757,-4.3373,-4.4005,-4.4005,-4.3961,-4.3929,-4.3929,-4.3929,-4.3929,-4.3929,-4.3929,-4.3929,-4.3929,-4.3929,-4.3929,-4.3929,-4.3942,-4.3992,-4.3974,-4.4005,-4.3974,-4.3992,-4.3992,-4.3897,-4.3851,-4.3851,-4.3818,-4.3804,-4.3804,-4.3804,-4.3804,-4.3804,-4.3686,-4.3548,-4.3548,-4.3513,-4.3497,-4.3497,-4.3497,-4.3497,-4.3497,-4.3497,-4.3497,-4.3497,-4.3446,-4.3394,-4.334,-4.1719,-4.0792,-4.0792,-3.9161,-3.8274,-3.8274,-3.8207,-3.8192,-3.8192,-3.8192,-3.8106,-3.7967,-3.7967,-3.7487,-3.4153,-3.4284,0.0,-3.5369,-3.5504,0.0,-3.7122,0.0,0.0,0.0,0.0,0.0,0.0,0.0,0.0,0.0,0.0,0.0,0.0,-3.5493,0.0,0.0,0.0,0.0,0.0,0.0,0.0,-3.5493,-3.5493,0.0,0.0,0.0,-3.5242,-3.5107,-3.5054,-3.5381,-3.6198,-3.6812,-3.7468,-3.8196,-3.8906,-3.9192,-3.9101,-3.9101,-3.9101,-3.9101,-3.9101,-3.9268,-3.9658,-4.1033,-4.1757,-4.2166,-4.3485,-4.4005,-4.4005,-4.4005,-4.4005,-4.4005,-4.4005,-4.4005,-4.4005,-4.4005,-4.4005,-4.4005,-4.4005,-4.4005,-4.4005,-4.4005,-4.4005,-4.4005,-4.4005,-4.4005,-4.4005,-4.4005,-4.3974,-4.3929,-4.3929,-4.3897,-4.3883,-4.3883,-4.3883,-4.3883,-4.3883,-4.3878,-4.3777,-4.3615,-4.3548,-4.3497,-4.3497,-4.3615,-4.3615,-4.3513,-4.3615,-4.3615,-4.3532,-4.3463,-4.3446,-4.3446,-4.1823,-4.086,-4.0808,-3.9176,-3.8307,-3.8274,-3.8207,-3.8192,-3.8192,-3.8192,-3.8192,-3.8192,-3.8192,-3.7845]},{"header":{"parameterUnit":"m.s-1","parameterCategory":1,"la1":30.6,"la2":29.2853,"lo1":-89.7004,"lo2":-87.6739,"dy":0.0162,"dx":0.0183,"nx":112,"ny":82,"refTime":"2023-05-23T12:00:00:Z","depth":0,"parameterNumber":3,"parameterNumberName":"V-component_of_WINDS"},"data":[0.0,0.0,0.0,0.0,0.0,0.0,0.0,0.0,0.0,0.0,0.0,0.0,0.0,0.0,0.0,0.0,0.0,0.0,0.0,0.0,0.0,0.0,0.0,0.0,0.0,0.0,0.0,0.0,0.0,0.0,0.0,0.0,0.0,0.0,0.0,0.0,0.0,0.0,0.0,0.0,0.0,0.0,0.0,0.0,0.0,0.0,0.0,0.0,0.0,0.0,0.0,0.0,0.0,0.0,0.0,0.0,0.0,0.0,0.0,0.0,0.0,0.0,0.0,0.0,0.0,0.0,0.0,0.0,0.0,0.0,0.0,0.0,0.0,0.0,0.0,0.0,0.0,0.0,0.0,0.0,0.0,0.0,0.0,0.0,0.0,0.0,0.0,0.0,0.0,0.0,0.0,-2.7862,-2.8009,-2.807,-2.8076,-2.809,-2.8134,-2.8241,0.0,0.0,0.0,0.0,0.0,0.0,0.0,0.0,0.0,0.0,0.0,0.0,0.0,0.0,0.0,0.0,0.0,0.0,0.0,0.0,0.0,0.0,0.0,0.0,0.0,0.0,0.0,0.0,0.0,0.0,0.0,0.0,0.0,0.0,0.0,0.0,0.0,0.0,0.0,0.0,0.0,0.0,0.0,0.0,0.0,0.0,0.0,0.0,0.0,0.0,0.0,0.0,0.0,0.0,0.0,0.0,0.0,0.0,0.0,0.0,0.0,0.0,0.0,0.0,0.0,0.0,0.0,0.0,0.0,0.0,0.0,0.0,0.0,0.0,0.0,0.0,0.0,0.0,0.0,0.0,0.0,0.0,0.0,0.0,0.0,0.0,0.0,0.0,0.0,0.0,0.0,0.0,0.0,0.0,0.0,0.0,0.0,0.0,0.0,0.0,0.0,0.0,0.0,0.0,-2.7777,-2.7902,-2.7913,-2.7948,-2.8008,-2.8064,-2.8348,-2.8905,0.0,0.0,0.0,0.0,0.0,0.0,0.0,0.0,0.0,0.0,0.0,0.0,0.0,0.0,0.0,0.0,0.0,0.0,0.0,0.0,0.0,0.0,0.0,0.0,0.0,0.0,0.0,0.0,0.0,0.0,0.0,0.0,0.0,0.0,0.0,0.0,0.0,0.0,0.0,0.0,0.0,0.0,0.0,0.0,0.0,0.0,0.0,0.0,0.0,0.0,0.0,0.0,0.0,0.0,0.0,0.0,0.0,0.0,0.0,0.0,0.0,0.0,0.0,0.0,0.0,0.0,0.0,0.0,0.0,0.0,0.0,0.0,0.0,0.0,0.0,0.0,0.0,0.0,0.0,0.0,0.0,0.0,0.0,0.0,0.0,0.0,0.0,0.0,0.0,0.0,0.0,0.0,0.0,0.0,0.0,0.0,0.0,0.0,0.0,0.0,0.0,0.0,0.0,-2.8932,-2.9142,-2.9098,-2.9164,-2.922,-2.925,-2.9301,-2.9464,-2.9733,-2.9394,0.0,0.0,0.0,0.0,0.0,0.0,0.0,0.0,0.0,0.0,0.0,0.0,0.0,0.0,0.0,0.0,0.0,0.0,0.0,0.0,0.0,0.0,0.0,0.0,0.0,0.0,0.0,0.0,0.0,0.0,0.0,0.0,0.0,0.0,0.0,0.0,0.0,0.0,0.0,0.0,0.0,0.0,0.0,0.0,0.0,0.0,0.0,0.0,0.0,0.0,0.0,0.0,0.0,0.0,0.0,0.0,0.0,0.0,0.0,0.0,0.0,0.0,0.0,0.0,0.0,0.0,0.0,0.0,0.0,0.0,0.0,0.0,0.0,0.0,0.0,0.0,0.0,0.0,0.0,0.0,0.0,0.0,0.0,0.0,0.0,0.0,0.0,0.0,0.0,0.0,0.0,0.0,0.0,0.0,0.0,0.0,0.0,0.0,0.0,0.0,0.0,0.0,-3.0022,-3.0166,-3.0079,-3.018,-3.0266,-3.0312,-3.0336,-3.0348,-3.0253,-3.0253,0.0,0.0,0.0,0.0,0.0,0.0,0.0,0.0,0.0,0.0,0.0,0.0,0.0,0.0,0.0,0.0,0.0,0.0,0.0,0.0,0.0,0.0,0.0,0.0,0.0,0.0,0.0,0.0,0.0,0.0,0.0,0.0,0.0,0.0,0.0,0.0,0.0,0.0,0.0,0.0,0.0,0.0,0.0,0.0,0.0,0.0,0.0,0.0,0.0,0.0,0.0,0.0,0.0,0.0,0.0,0.0,0.0,0.0,0.0,0.0,0.0,0.0,0.0,0.0,0.0,0.0,0.0,0.0,0.0,0.0,0.0,0.0,0.0,0.0,0.0,0.0,0.0,0.0,0.0,0.0,0.0,0.0,0.0,0.0,0.0,0.0,0.0,0.0,0.0,0.0,0.0,0.0,0.0,0.0,0.0,0.0,0.0,0.0,0.0,0.0,0.0,0.0,-2.9874,-2.9956,-2.9988,-3.0064,-3.0166,-3.0279,-3.0292,-3.0253,-3.0123,-3.0109,0.0,0.0,0.0,0.0,0.0,0.0,0.0,0.0,0.0,0.0,0.0,0.0,0.0,0.0,0.0,0.0,0.0,0.0,0.0,0.0,0.0,0.0,0.0,0.0,0.0,0.0,0.0,0.0,0.0,0.0,0.0,0.0,0.0,0.0,0.0,0.0,0.0,0.0,0.0,0.0,0.0,0.0,0.0,0.0,0.0,0.0,0.0,0.0,0.0,0.0,0.0,0.0,0.0,0.0,0.0,0.0,0.0,0.0,0.0,0.0,0.0,0.0,0.0,0.0,0.0,0.0,0.0,0.0,0.0,0.0,0.0,0.0,0.0,0.0,0.0,0.0,0.0,0.0,0.0,0.0,0.0,0.0,0.0,0.0,0.0,0.0,0.0,0.0,0.0,0.0,0.0,0.0,0.0,0.0,0.0,0.0,0.0,0.0,0.0,0.0,0.0,0.0,-2.9876,-2.9956,0.0,-2.9972,-3.0003,-3.0049,-3.0123,-3.0123,-2.9969,0.0,0.0,0.0,0.0,0.0,0.0,0.0,0.0,0.0,0.0,0.0,0.0,0.0,0.0,0.0,0.0,0.0,0.0,0.0,0.0,0.0,0.0,0.0,0.0,0.0,0.0,0.0,0.0,0.0,0.0,0.0,0.0,0.0,0.0,0.0,0.0,0.0,0.0,0.0,0.0,0.0,0.0,0.0,0.0,0.0,0.0,0.0,0.0,0.0,0.0,0.0,0.0,0.0,0.0,0.0,0.0,0.0,0.0,0.0,0.0,0.0,0.0,0.0,0.0,0.0,0.0,0.0,0.0,0.0,0.0,0.0,0.0,0.0,0.0,0.0,0.0,0.0,0.0,0.0,0.0,0.0,0.0,0.0,0.0,0.0,0.0,0.0,0.0,0.0,0.0,0.0,0.0,0.0,0.0,0.0,0.0,0.0,0.0,0.0,0.0,0.0,0.0,-2.9683,-2.9859,-2.994,0.0,-2.9891,-2.9888,-2.9888,-2.9969,-3.0003,-2.9924,0.0,0.0,0.0,0.0,0.0,0.0,0.0,0.0,0.0,0.0,0.0,0.0,0.0,0.0,0.0,0.0,0.0,0.0,0.0,0.0,0.0,0.0,0.0,0.0,0.0,0.0,0.0,0.0,0.0,0.0,0.0,0.0,0.0,0.0,0.0,0.0,0.0,0.0,0.0,0.0,0.0,0.0,0.0,0.0,0.0,0.0,0.0,0.0,0.0,0.0,0.0,0.0,0.0,0.0,0.0,0.0,0.0,0.0,0.0,0.0,0.0,0.0,0.0,0.0,0.0,0.0,0.0,0.0,0.0,0.0,0.0,0.0,0.0,0.0,0.0,0.0,0.0,0.0,0.0,0.0,0.0,0.0,0.0,0.0,0.0,0.0,0.0,0.0,0.0,0.0,0.0,0.0,0.0,0.0,0.0,0.0,0.0,0.0,0.0,0.0,0.0,0.0,-2.9701,-2.9825,-2.9893,-2.9827,-2.9876,-2.9926,-2.9926,-2.9926,-2.9926,0.0,0.0,0.0,0.0,0.0,0.0,0.0,0.0,0.0,0.0,0.0,0.0,0.0,0.0,0.0,0.0,0.0,0.0,0.0,0.0,0.0,0.0,0.0,0.0,0.0,0.0,0.0,0.0,0.0,0.0,0.0,0.0,0.0,0.0,0.0,0.0,0.0,0.0,0.0,0.0,0.0,0.0,0.0,0.0,0.0,0.0,0.0,0.0,0.0,0.0,0.0,0.0,0.0,0.0,0.0,0.0,0.0,0.0,0.0,0.0,0.0,0.0,0.0,0.0,0.0,0.0,0.0,0.0,0.0,0.0,0.0,0.0,0.0,0.0,0.0,0.0,0.0,0.0,0.0,0.0,0.0,0.0,0.0,0.0,0.0,0.0,0.0,0.0,0.0,0.0,0.0,0.0,0.0,0.0,0.0,0.0,0.0,0.0,0.0,0.0,0.0,0.0,0.0,-3.0452,-3.0621,-3.0918,-3.1558,-3.165,-3.1667,-3.1667,-3.1667,-3.1667,-3.1667,0.0,0.0,0.0,0.0,0.0,0.0,0.0,0.0,0.0,0.0,0.0,0.0,0.0,0.0,0.0,0.0,0.0,0.0,0.0,0.0,0.0,0.0,0.0,0.0,0.0,0.0,0.0,0.0,0.0,0.0,0.0,0.0,0.0,0.0,0.0,0.0,0.0,0.0,0.0,0.0,0.0,0.0,0.0,0.0,0.0,0.0,0.0,0.0,0.0,0.0,0.0,0.0,0.0,0.0,0.0,0.0,0.0,0.0,0.0,0.0,0.0,0.0,0.0,0.0,0.0,0.0,0.0,0.0,0.0,0.0,0.0,0.0,0.0,0.0,0.0,0.0,0.0,0.0,0.0,0.0,0.0,0.0,0.0,0.0,0.0,0.0,0.0,0.0,0.0,0.0,0.0,0.0,0.0,0.0,0.0,0.0,0.0,0.0,0.0,0.0,0.0,0.0,-3.1296,-3.1393,-3.1638,-3.2222,-3.2353,-3.2406,-3.2406,-3.2406,-3.2406,-3.2406,0.0,0.0,0.0,0.0,0.0,0.0,0.0,0.0,0.0,0.0,0.0,0.0,0.0,0.0,0.0,0.0,0.0,0.0,0.0,0.0,0.0,0.0,0.0,0.0,0.0,0.0,0.0,0.0,0.0,0.0,0.0,0.0,0.0,0.0,0.0,0.0,0.0,0.0,0.0,0.0,0.0,0.0,0.0,0.0,0.0,0.0,0.0,0.0,0.0,0.0,0.0,0.0,0.0,0.0,0.0,0.0,0.0,0.0,0.0,0.0,0.0,0.0,0.0,0.0,0.0,0.0,0.0,0.0,0.0,0.0,0.0,0.0,0.0,0.0,0.0,0.0,0.0,0.0,0.0,0.0,0.0,0.0,0.0,0.0,0.0,0.0,0.0,0.0,0.0,0.0,0.0,0.0,0.0,0.0,0.0,0.0,0.0,0.0,0.0,0.0,0.0,0.0,-3.2156,-3.2195,-3.2212,-3.2287,-3.2448,-3.258,-3.258,-3.258,-3.258,-3.258,0.0,0.0,0.0,0.0,0.0,0.0,0.0,0.0,0.0,0.0,0.0,0.0,0.0,0.0,0.0,0.0,0.0,0.0,0.0,0.0,0.0,0.0,0.0,0.0,0.0,0.0,0.0,0.0,0.0,0.0,0.0,0.0,0.0,0.0,0.0,0.0,0.0,0.0,0.0,0.0,0.0,0.0,0.0,0.0,0.0,0.0,0.0,0.0,0.0,0.0,0.0,0.0,0.0,0.0,0.0,0.0,0.0,0.0,0.0,0.0,-2.6471,0.0,0.0,0.0,0.0,0.0,0.0,0.0,0.0,0.0,0.0,0.0,0.0,0.0,0.0,0.0,0.0,0.0,0.0,0.0,0.0,0.0,0.0,0.0,0.0,0.0,0.0,0.0,0.0,0.0,0.0,0.0,0.0,0.0,0.0,0.0,0.0,0.0,0.0,0.0,0.0,0.0,-3.2857,-3.2825,-3.298,-3.3673,-3.3794,-3.384,-3.384,-3.384,-3.384,-3.384,-3.384,0.0,0.0,0.0,0.0,0.0,0.0,0.0,0.0,0.0,0.0,0.0,0.0,0.0,0.0,0.0,0.0,0.0,0.0,0.0,0.0,0.0,0.0,0.0,0.0,0.0,0.0,0.0,0.0,0.0,0.0,0.0,0.0,0.0,0.0,0.0,0.0,0.0,0.0,0.0,0.0,0.0,0.0,0.0,0.0,0.0,0.0,0.0,0.0,0.0,0.0,0.0,0.0,0.0,0.0,0.0,0.0,0.0,0.0,0.0,0.0,-2.7043,0.0,0.0,0.0,0.0,0.0,0.0,0.0,0.0,0.0,0.0,0.0,0.0,0.0,0.0,0.0,0.0,0.0,0.0,0.0,0.0,0.0,0.0,0.0,0.0,0.0,0.0,0.0,0.0,0.0,0.0,0.0,0.0,0.0,0.0,0.0,0.0,0.0,0.0,0.0,0.0,-3.3364,-3.3475,-3.3714,-3.4141,-3.439,-3.4498,-3.4386,-3.4386,-3.434,-3.4197,-3.4197,0.0,0.0,0.0,0.0,0.0,0.0,0.0,0.0,0.0,0.0,0.0,0.0,0.0,0.0,0.0,0.0,0.0,0.0,0.0,0.0,0.0,0.0,0.0,0.0,0.0,0.0,0.0,0.0,0.0,0.0,0.0,0.0,0.0,0.0,0.0,0.0,0.0,0.0,0.0,0.0,0.0,0.0,0.0,0.0,0.0,0.0,0.0,0.0,0.0,0.0,0.0,0.0,0.0,-2.8315,-2.8182,-2.7809,-2.8082,-2.82,-2.8229,-2.854,-2.8461,-2.8102,0.0,0.0,0.0,0.0,0.0,0.0,0.0,0.0,0.0,0.0,0.0,0.0,0.0,0.0,0.0,0.0,0.0,0.0,0.0,0.0,0.0,0.0,0.0,0.0,0.0,-3.1147,-3.118,0.0,0.0,0.0,0.0,0.0,0.0,0.0,0.0,0.0,0.0,0.0,0.0,-3.3671,-3.3895,-3.4049,-3.4049,-3.4394,-3.4567,-3.4409,-3.4386,-3.4293,-3.4074,-3.4074,-3.3972,0.0,0.0,0.0,0.0,0.0,0.0,0.0,0.0,0.0,0.0,0.0,0.0,0.0,0.0,0.0,0.0,0.0,0.0,0.0,0.0,0.0,0.0,0.0,0.0,0.0,0.0,0.0,0.0,0.0,0.0,0.0,0.0,-2.878,-2.942,0.0,0.0,0.0,0.0,0.0,0.0,0.0,0.0,0.0,0.0,0.0,0.0,0.0,0.0,-2.9134,-2.8865,-2.9031,-2.9681,-2.9667,-2.9699,-2.9712,-2.9537,-2.9343,-2.9126,-2.9007,0.0,-2.8075,-2.784,0.0,0.0,0.0,0.0,0.0,0.0,0.0,0.0,0.0,0.0,0.0,0.0,0.0,0.0,0.0,0.0,0.0,0.0,0.0,0.0,0.0,0.0,-3.0485,-3.0756,-3.1436,-3.1981,0.0,-3.1616,-3.1433,-3.2163,0.0,0.0,0.0,0.0,0.0,0.0,0.0,0.0,-3.3504,-3.3473,-3.3422,-3.3422,-3.352,-3.3587,-3.3549,-3.3549,-3.3549,-3.3509,-3.3509,-3.3605,-3.3788,-3.3468,0.0,0.0,0.0,0.0,0.0,0.0,0.0,0.0,0.0,0.0,0.0,0.0,0.0,0.0,0.0,0.0,0.0,0.0,0.0,0.0,0.0,0.0,0.0,0.0,0.0,0.0,0.0,0.0,0.0,-2.8755,-2.9412,-3.019,-2.9848,-2.9672,0.0,0.0,0.0,0.0,0.0,0.0,0.0,0.0,0.0,-2.9515,-2.9207,-2.9263,-2.9616,-2.9474,-2.9505,-2.9673,-2.9624,-2.959,-2.954,-2.9143,-2.9017,-2.907,-2.871,-2.8503,-2.8354,-2.8254,-2.8305,-2.8388,0.0,0.0,0.0,0.0,0.0,-2.8047,-2.8134,-2.8237,0.0,0.0,0.0,0.0,0.0,0.0,0.0,0.0,0.0,0.0,0.0,0.0,0.0,-3.1846,-3.2283,-3.2583,-3.2637,-3.2367,-3.2282,0.0,-3.3076,-3.313,-3.3343,0.0,0.0,0.0,0.0,0.0,-3.3262,-3.3455,-3.3577,-3.3577,-3.3753,-3.3807,-3.3633,-3.3615,-3.3549,-3.3393,-3.3393,-3.3452,-3.3577,-3.3452,-3.3452,0.0,0.0,0.0,0.0,0.0,0.0,0.0,0.0,0.0,0.0,0.0,0.0,0.0,0.0,0.0,0.0,0.0,0.0,0.0,0.0,0.0,0.0,0.0,0.0,0.0,0.0,0.0,0.0,-2.9606,-3.0222,-3.1073,-3.0742,-3.0638,0.0,0.0,0.0,0.0,0.0,0.0,-3.0564,-3.0313,-3.0185,-3.0185,-2.9902,-2.9843,-3.0035,-3.0003,-2.9851,-2.9685,-2.9685,-2.9539,-2.9273,-2.8853,-2.8797,-2.9026,-2.8599,-2.8575,-2.8814,-2.8643,-2.8703,-2.8907,-2.878,-2.8817,-2.8907,-2.878,-2.8686,-2.8624,-2.8645,-2.8723,-2.8817,-2.8851,0.0,-2.9158,-2.9561,0.0,0.0,0.0,0.0,-3.0928,-3.1529,-3.1721,-3.1862,-3.2446,-3.2588,-3.2621,-3.2737,-3.2737,-3.2866,0.0,-3.328,-3.3202,-3.2988,0.0,0.0,0.0,0.0,-3.3152,-3.3055,-3.3368,-3.3625,-3.3625,-3.3842,-3.3921,-3.3726,-3.3698,-3.3587,-3.3393,-3.3393,-3.3393,-3.3393,-3.3393,-3.3393,-3.3393,0.0,0.0,0.0,0.0,0.0,0.0,0.0,0.0,0.0,0.0,0.0,0.0,0.0,0.0,0.0,0.0,0.0,0.0,0.0,0.0,0.0,0.0,0.0,0.0,0.0,0.0,0.0,0.0,0.0,-3.2147,-3.1518,0.0,0.0,0.0,0.0,-3.0511,-3.0282,-3.0159,-3.0221,-2.9951,-2.9854,-2.9919,-2.959,-2.9765,-3.0471,-3.0231,-3.0207,-3.0443,-3.0443,-3.0194,-2.9783,-2.9488,-2.9339,-2.9339,-2.9132,-2.9194,-2.9396,-2.8824,-2.8607,-2.8607,-2.8268,-2.8345,-2.8569,-2.8268,-2.8362,-2.8607,-2.8607,-2.8686,-2.88,-2.88,-2.9272,-3.0002,-3.0784,-3.1099,0.0,0.0,-3.1425,-3.1647,-3.1681,-3.1699,-3.1699,-3.175,-3.175,-3.1877,-3.2249,-3.2318,-3.2352,0.0,-3.2386,-3.2352,-3.2352,0.0,-3.2488,-3.2852,-3.2916,-3.2916,-3.2916,-3.3024,-3.3147,-3.3147,-3.3316,-3.3422,-3.3422,-3.3422,-3.3393,-3.3393,-3.3393,-3.3393,-3.3393,-3.3393,-3.3393,-3.3393,-3.3411,0.0,0.0,0.0,0.0,0.0,0.0,0.0,0.0,0.0,0.0,0.0,0.0,0.0,0.0,0.0,0.0,0.0,0.0,0.0,0.0,0.0,0.0,0.0,0.0,0.0,0.0,0.0,0.0,-3.2188,-3.1926,0.0,-3.2492,-3.1987,-3.1659,-3.1659,-3.139,-3.1202,-3.1289,-3.1098,-3.0956,-3.1009,-3.0442,-3.0432,-3.113,-3.0749,-3.0828,-3.132,-3.0908,-3.0607,-3.0429,-2.9585,-2.9287,-2.9406,-2.9198,-2.9259,-2.9483,-2.907,-2.9244,-2.9658,-2.9576,-2.9576,-2.9674,-2.9576,-2.9469,-2.9419,-2.9502,-2.9486,-2.9527,-2.9527,-2.9856,-3.0349,-3.068,-3.0948,-3.1201,-3.1338,-3.1473,-3.1568,-3.1568,-3.1623,-3.1677,-3.1677,-3.1677,-3.175,-3.186,-3.1913,-3.1841,-3.1565,-3.1949,-3.2283,-3.2283,-3.2091,-3.2056,-3.2454,-3.2555,-3.257,-3.257,-3.2961,-3.3214,-3.3214,-3.3334,-3.3393,-3.3393,-3.3393,-3.3393,-3.3393,-3.3393,-3.3393,-3.3393,-3.3393,-3.3393,-3.3393,-3.3393,-3.3334,0.0,0.0,0.0,0.0,0.0,0.0,0.0,0.0,0.0,0.0,0.0,0.0,0.0,0.0,0.0,0.0,0.0,0.0,0.0,0.0,0.0,0.0,0.0,0.0,0.0,0.0,-3.1714,-3.2638,-3.2367,-3.2322,-3.2947,-3.2834,-3.2634,-3.2475,-3.2576,-3.2585,-3.2524,-3.2334,-3.2217,-3.2195,-3.1722,-3.1608,-3.1874,-3.1565,-3.1445,-3.1582,-3.1101,-3.0799,-3.0656,-2.9863,-2.9595,-2.9722,-2.9579,-2.9722,-3.0035,-2.9626,-2.9729,-3.0173,-2.9798,-2.9613,-2.9657,-2.9821,-2.9793,-2.9665,-2.9902,-2.9946,-2.9918,-2.9918,-3.0076,-3.0258,-3.0123,-3.0377,-3.0707,-3.069,-3.0874,-3.1055,-3.1055,-3.1167,-3.1278,-3.1278,-3.1278,-3.1338,-3.1452,-3.149,-3.1414,-3.1162,-3.1528,-3.1913,-3.1913,-3.1677,-3.164,-3.2056,-3.2162,-3.2162,-3.2162,-3.2519,-3.2784,-3.2784,-3.288,-3.2943,-3.2975,-3.2943,-3.2943,-3.3006,-3.2975,-3.3006,-3.3165,-3.3037,-3.3006,-3.3135,-3.3006,-3.2943,-3.283,0.0,0.0,0.0,0.0,0.0,0.0,0.0,0.0,0.0,0.0,0.0,0.0,0.0,0.0,0.0,0.0,0.0,0.0,0.0,0.0,0.0,0.0,0.0,-3.2144,-3.2586,-3.3042,-3.3509,-3.2834,-3.2404,-3.2636,-3.3177,-3.3314,-3.2869,-3.3731,-3.4086,-3.3714,-3.349,-3.3364,-3.3364,-3.3364,-3.3091,-3.2607,-3.2545,-3.2087,-3.1158,-3.1142,-3.0857,-3.0458,-3.0376,-3.0376,-3.0376,-3.036,-3.067,-3.111,-3.0336,-3.0085,-2.9927,-2.8807,-2.8288,-2.8336,-2.8873,-2.9074,-2.9136,-2.9665,-2.9858,-2.9858,-2.9858,-2.9858,-2.9754,-2.9227,-2.9499,-2.9842,-2.938,-2.9694,-3.0146,-3.0146,-3.0274,-3.0359,-3.0375,-3.0401,-3.0551,-3.0965,-3.1044,-3.1027,-3.1044,-3.1044,-3.1083,-3.1083,-3.1083,-3.124,-3.1603,-3.1677,0.0,-3.1677,-3.177,-3.1789,-3.1789,-3.1914,-3.2021,-3.2109,-3.2056,-3.2056,-3.2283,-3.2179,-3.2282,-3.2669,-3.2316,-3.2265,-3.2555,-3.2265,-3.2144,-3.2283,0.0,0.0,0.0,0.0,0.0,0.0,0.0,0.0,0.0,0.0,0.0,0.0,0.0,0.0,0.0,0.0,0.0,0.0,0.0,0.0,0.0,0.0,-3.1393,-3.1858,-3.2091,-3.2441,-3.2967,-3.2804,-3.2882,-3.3494,-3.3407,-3.3304,-3.3182,-3.3136,-3.3143,-3.3125,-3.3168,-3.3021,-3.2707,-3.2422,-3.2283,-3.2237,-3.1887,-3.1847,-3.2044,-3.1548,-3.1263,-3.1105,-3.0243,-2.9872,-2.9872,-2.975,-2.9735,-2.9864,-2.947,-2.9274,-2.926,-2.9009,-2.8638,-2.8304,-2.8496,-2.8543,-2.8543,-2.8685,-2.8732,-2.8732,-2.8732,-2.8732,-2.8732,-2.8543,-2.8638,-2.8732,-2.8591,-2.9028,-2.947,-2.9074,-2.9332,-2.9601,-2.9364,-2.9319,-2.9393,-2.9585,-2.9629,-2.9761,-3.0081,-3.0166,-3.0377,-3.1004,-3.0861,-3.0821,-3.1184,-3.1261,0.0,-3.1261,-3.1585,-3.1789,-3.1789,-3.1914,-3.2003,-3.2021,-3.1986,-3.2021,-3.2074,-3.2074,-3.2144,-3.2248,-3.2179,-3.2109,-3.2144,-3.2056,-3.2056,0.0,0.0,0.0,0.0,0.0,0.0,0.0,0.0,0.0,0.0,0.0,0.0,0.0,0.0,0.0,0.0,0.0,0.0,0.0,0.0,0.0,0.0,-3.1297,-3.1658,-3.2156,-3.2235,-3.2513,-3.3175,-3.3105,-3.3174,-3.3618,-3.4024,-3.4182,-3.3996,-3.4549,-3.4735,-3.4329,-3.4535,-3.4424,-3.3828,-3.3729,-3.3588,-3.3445,-3.3192,-3.3011,-3.2944,-3.2562,-3.2266,-3.2007,-3.1061,-3.0592,0.0,-3.0238,-3.0104,-3.0186,-2.9766,-2.9551,0.0,0.0,0.0,0.0,0.0,-2.8885,-2.9085,-2.9085,-2.8916,-2.8735,-2.8735,-2.8535,-2.824,-2.8046,-2.8094,-2.824,-2.8046,-2.84,-2.8795,-2.8511,-2.8732,-2.9012,-2.8842,-2.8858,-2.8951,-2.9074,-2.9074,-2.9257,-2.9705,-2.9617,0.0,-3.0683,-3.0675,-3.0593,-3.0821,-3.0861,-3.0861,-3.0861,-3.1106,-3.1244,-3.1244,-3.1321,-3.1414,-3.1452,-3.1414,0.0,0.0,0.0,-3.1493,-3.1493,-3.1605,0.0,0.0,0.0,-3.149,-3.1545,0.0,0.0,0.0,-3.2636,-3.2816,0.0,0.0,0.0,0.0,0.0,0.0,0.0,0.0,0.0,0.0,0.0,0.0,0.0,0.0,0.0,0.0,-3.1722,-3.2243,-3.284,-3.2816,-3.3025,-3.3905,-3.366,-3.3472,-3.37,-3.4852,-3.5412,-3.5083,-3.6616,-3.717,-3.6226,0.0,0.0,0.0,0.0,-3.5742,-3.5219,-3.5219,-3.4747,-3.3774,-3.3713,-3.3469,-3.2974,-3.2247,-3.1907,-3.1892,-3.132,-3.1161,-3.1367,-3.0686,-3.0389,-3.0127,-2.8927,-2.844,-2.8482,-2.9108,-2.9621,-3.0044,-3.0044,0.0,0.0,-2.922,-2.8843,-2.829,-2.779,-2.7991,-2.824,-2.779,-2.8026,-2.8422,-2.8388,-2.8486,-2.8647,-2.868,-2.8792,-2.895,-2.9077,-2.9124,-2.9264,-2.9723,-2.9496,-2.9542,-3.0402,-3.0483,-3.0426,-3.0468,-3.0526,-3.0526,-3.0526,-3.0526,-3.0526,-3.0526,0.0,0.0,-3.0651,-3.0568,-3.0609,-3.0831,-3.0773,-3.0692,-3.0692,-3.0942,-3.0942,-3.0692,-3.0692,-3.0773,-3.0871,-3.1162,-3.1338,-3.1376,-3.1986,-3.2266,0.0,0.0,0.0,0.0,0.0,0.0,0.0,0.0,0.0,0.0,0.0,0.0,0.0,0.0,0.0,-3.0553,-3.1114,-3.1951,-3.3304,-3.3567,-3.3874,-3.4605,-3.4182,-3.4513,-3.6223,-3.5711,-3.5417,-3.5821,-3.5782,-3.56,-3.5411,-3.5577,0.0,-3.4992,-3.5131,-3.5018,-3.4635,-3.4635,-3.4577,-3.4342,0.0,0.0,-3.3516,-3.2543,-3.2118,-3.2104,-3.1618,-3.1432,-3.1439,-3.0722,-3.0368,-3.0053,-2.9016,-2.8553,-2.844,-2.8722,-2.8876,-2.8987,-2.8987,-2.8913,-2.8811,-2.8811,-2.8723,-2.862,-2.851,-2.8565,0.0,-2.851,-2.8793,-2.9086,-2.8714,-2.8901,-2.9154,-2.8931,-2.8892,-2.8946,-2.9077,-2.9199,-2.9411,-2.9915,-3.0068,-3.0254,-3.083,-3.0373,-3.007,-3.0426,-3.0526,-3.0526,-3.0526,-3.0526,-3.0526,-3.0526,-3.0526,-3.051,-3.0526,-3.051,-3.0526,-3.0568,-3.0651,-3.0692,-3.0692,-3.0855,-3.0814,-3.0551,-3.0651,-3.0692,-3.0733,-3.0797,-3.0878,-3.0998,-3.1714,-3.2214,0.0,0.0,0.0,0.0,0.0,0.0,0.0,0.0,0.0,0.0,0.0,-2.9422,0.0,0.0,-3.0339,-3.0817,-3.151,-3.2431,-3.3593,-3.4159,-3.4755,-3.5444,-3.4965,-3.499,-3.6034,-3.5912,-3.5894,-3.6159,-3.6251,-3.6169,-3.5833,-3.5935,-3.5817,-3.5248,-3.5414,-3.543,-3.5339,-3.5079,-3.4894,-3.4693,-3.4174,-3.3739,-3.3478,-3.2663,-3.2336,-3.2255,-3.1744,-3.1485,-3.1471,-3.1185,-3.1005,-3.0743,-3.0448,-2.9997,-2.9507,-2.9624,-2.9624,-2.9624,-2.9624,-2.9421,-2.9145,-2.9145,-2.8942,-2.8681,-2.8681,-2.8681,-2.8681,-2.8681,-2.8876,-2.8972,-2.8779,-2.8876,-2.9028,-2.8905,-2.892,-2.8961,-2.9042,-2.9167,-2.9372,-2.9879,-2.9826,-2.9985,-3.0763,-3.0364,-3.0038,-3.0209,-3.0196,-3.007,-2.9853,-2.9984,-3.0156,-3.0156,-3.0156,-3.0241,-3.0468,-3.0526,-3.0526,-3.0526,-3.0568,-3.0609,-3.0609,-3.0651,-3.0651,-3.0526,-3.0568,-3.0609,-3.0609,-3.0609,-3.0651,-3.0692,-3.1083,-3.1414,0.0,0.0,0.0,0.0,0.0,0.0,0.0,0.0,-2.8253,-2.8521,-2.9564,-3.0275,-2.972,-3.0394,-3.1063,-3.1336,-3.2105,-3.2996,-3.3929,-3.4691,-3.5439,-3.6071,-3.5584,-3.5326,-3.5581,-3.5943,-3.6213,-3.633,-3.6622,-3.6631,-3.6258,-3.6228,-3.6024,-3.5479,-3.5623,-3.5752,-3.58,-3.54,-3.5073,-3.4876,-3.4341,-3.3894,-3.3423,-3.2875,-3.2581,-3.2553,-3.2061,-3.178,-3.1668,-3.1773,-3.1702,-3.1537,-3.1758,-3.1452,-3.087,-3.0739,-3.0684,-3.0568,-3.0568,-3.0234,-2.9813,-2.9754,-2.9407,-2.9044,-2.9044,-2.9044,-2.9044,-2.9044,-2.9044,-2.9044,-2.9044,-2.9044,-2.9101,-2.9214,-2.9229,-2.9271,-2.9369,-2.9425,-2.9522,-2.9918,-2.9729,-2.9799,-3.0705,-3.047,-3.0164,-3.0176,-2.997,-2.972,-2.931,-2.9518,-2.9661,-2.9661,-2.9661,-2.981,-3.0199,-3.03,-3.0384,-3.0384,-3.0426,-3.0526,-3.0526,-3.0526,-3.0526,-3.0526,-3.0526,-3.0526,-3.0526,-3.0526,-3.0526,-3.0526,-3.0526,-3.0651,-2.6707,-2.6745,-2.7348,-2.8273,-2.8383,-2.8284,0.0,0.0,-2.8808,-2.935,-2.965,-3.0047,-3.0775,-3.0676,-3.0694,-3.1468,-3.2173,-3.3167,-3.4804,-3.5064,-3.5401,-3.6245,-3.5721,-3.5763,-3.701,-3.623,-3.5804,-3.6384,-3.531,-3.4927,-3.5554,-3.4942,-3.4647,-3.4728,-3.4728,-3.4662,-3.4514,-3.4447,-3.4595,-3.4876,-3.4341,-3.4085,-3.4016,-3.3437,-3.3213,-3.3213,-3.3143,-3.2806,-3.23,-3.23,-3.2097,-3.1641,-3.1707,-3.1752,-3.1697,-3.1343,-3.0953,-3.0568,-3.0387,-3.0404,-3.0466,-3.0271,-3.0288,-3.0364,-3.0364,-3.0364,-3.0364,-3.0364,-3.0364,-3.0364,-3.0364,-3.0364,-3.0364,-3.0424,-3.0424,-3.0424,-3.0424,-3.0543,-3.0602,-3.0661,-3.0793,-3.0925,-3.1012,-3.0651,-3.0452,-3.0814,-3.0353,-2.9943,-2.9896,-2.9484,-2.9166,-2.9166,-2.9166,-2.9212,-2.9257,-2.9617,-2.9897,-2.9897,-3.0258,-3.0526,-3.0526,-3.0526,-3.0526,-3.0526,-3.0526,-3.0526,-3.0526,-3.0526,-3.0526,-3.0526,-3.0526,-3.0699,-2.7348,-2.7479,0.0,0.0,-2.8637,-2.8537,-2.9135,-2.9164,-2.9268,-3.0083,-3.0448,-3.0664,-3.0662,-3.1136,-3.1559,0.0,-3.2505,-3.355,-3.4367,-3.485,-3.5337,-3.5816,-3.5224,-3.5135,-3.6165,-3.5415,-3.5103,-3.5846,-3.4528,-3.3973,-3.4758,-3.4056,-3.3699,-3.3768,-3.3768,-3.3768,-3.3837,-3.3782,-3.3865,-3.4056,-3.3756,-3.3632,-3.3632,-3.3382,-3.3326,-3.3326,-3.3326,-3.3185,-3.2932,-3.2932,-3.2778,-3.2607,-3.2607,-3.2518,-3.2241,-3.1825,-3.1553,-3.1309,-3.1246,-3.1309,-3.1372,-3.1386,-3.1435,-3.1435,-3.109,-3.1085,-3.0921,-3.0066,-3.0202,-3.0507,-3.0129,-3.0312,-3.0568,-3.0568,-3.0568,-3.0568,-3.0568,-3.0642,-3.0702,-3.0702,-3.0762,-3.0821,-3.0895,-3.072,-3.0715,-3.1036,-3.0545,-3.0057,-2.9817,-2.9435,-2.9057,-2.8685,-2.8919,-2.9074,-2.9074,-2.9257,-2.9393,-2.9393,-2.9837,-3.0113,-3.0113,-3.0342,-3.0526,-3.0526,-3.0526,-3.0526,-3.0526,-3.0526,-3.0526,-3.0526,-3.0526,-3.0593,-2.776,0.0,0.0,-2.895,-2.8836,-2.8744,-2.9689,-2.9743,-2.9812,-3.0665,-3.0944,-3.104,-3.0971,-3.1457,-3.1907,-3.2115,-3.2674,-3.3339,-3.4212,-3.4494,-3.4735,-3.5133,-3.4636,-3.4452,-3.5052,-3.4603,-3.4524,-3.5301,-3.4101,-3.3719,-3.4421,-3.379,-3.3376,-3.3376,-3.3376,-3.3376,-3.3461,-3.3165,-3.3225,-3.3494,-3.3227,-3.3171,-3.3326,-3.3326,-3.3326,-3.3326,-3.3326,-3.3326,-3.3326,-3.3326,-3.3326,-3.3326,-3.3326,-3.31,-3.2772,-3.2401,-3.2151,-3.1838,-3.1627,-3.1547,-3.1547,-3.1415,-3.1415,-3.1401,-3.1054,-3.1012,-3.0856,-2.9832,-2.9989,-3.0381,-2.9861,-3.0129,-3.0506,-3.0506,-3.0506,-3.0583,-3.0769,-3.0639,-3.0571,-3.0829,-3.0684,-3.0642,-3.0702,-3.0762,-3.0821,-3.1014,-3.0758,-3.0394,-2.9864,-2.9554,-2.9129,-2.8427,-2.8757,-2.8872,-2.8716,-2.8795,-2.8889,-2.8889,-2.9348,-2.9617,-2.9617,-3.007,-3.03,-3.03,-3.0426,-3.0526,-3.0526,-3.0526,-3.0526,-3.0526,-3.0526,-3.0526,0.0,0.0,-2.7744,-2.9048,-2.9063,-2.9009,-2.9959,-3.0216,-3.0452,-3.1044,-3.0779,-3.0824,-3.2109,-3.1315,-3.119,-3.3296,-3.2422,-3.2305,-3.4817,-3.3948,-3.3381,-3.4245,-3.4227,-3.4112,0.0,-3.4098,-3.4351,-3.4882,-3.4204,-3.4128,-3.485,-3.4204,-3.3774,-3.3774,-3.3774,-3.3634,-3.3287,-3.2701,-3.2785,-3.3615,-3.2994,-3.2931,-3.3326,-3.3326,-3.3326,-3.3326,-3.3326,-3.3326,-3.3326,-3.3326,-3.3326,-3.3326,-3.3326,-3.3312,-3.3297,-3.3269,-3.2701,-3.1772,-3.0867,-3.0623,-3.0609,-2.9661,-2.9508,-2.9635,-2.9883,-2.9966,-2.9952,-3.0146,-3.0201,-3.0187,-3.0187,-3.0187,-3.0187,-3.0187,-3.0187,-3.0392,-3.1132,-3.0802,-3.0637,-3.1358,-3.0988,-3.0568,-3.0628,-3.0702,-3.0821,-3.0821,-3.1073,-3.1053,-3.0357,-2.9899,-2.9349,-2.8637,-2.8614,-2.8344,-2.767,-2.8076,-2.8336,-2.8336,-2.8842,-2.912,-2.912,-2.9572,-2.9793,-2.9793,-3.0258,-3.0526,-3.0526,-3.0526,-3.0526,-3.0526,-3.0526,-3.0526,-2.8326,0.0,-2.8652,-2.9986,-2.994,-2.9833,-3.1016,-3.0639,-3.0357,-3.1227,-3.1263,-3.1291,-3.1731,-3.1718,-3.1889,-3.2649,-3.2389,-3.2384,-3.3367,-3.3199,-3.3115,-3.3492,-3.3489,0.0,0.0,0.0,0.0,-3.4892,-3.3725,-3.3365,-3.4107,-3.3443,-3.3066,-3.3066,-3.3066,-3.3001,-3.2935,-3.2985,-3.3111,-3.3419,-3.3334,-3.3484,-3.3916,-3.3508,-3.3326,-3.3326,-3.3326,-3.3326,-3.3326,-3.3326,-3.3326,-3.3326,-3.3326,-3.3326,-3.3241,-3.2704,-3.2272,-3.2068,-3.2305,-3.1717,-3.0876,-3.1249,-3.1021,-3.0586,-3.0259,-3.0204,-3.0103,-2.9336,-2.9555,-2.9896,-2.9535,-2.9827,-3.0173,-3.0173,-3.0173,-3.0241,-3.0515,-3.0418,-3.0349,-3.0616,-3.0521,-3.0495,-3.0495,-3.06,-3.0702,-3.0762,-3.1117,-3.1098,-3.0485,-3.0272,-2.9953,-2.9325,-2.8861,-2.8502,-2.8263,-2.8017,-2.7845,-2.7845,-2.8304,-2.8591,-2.8591,-2.9058,-2.9483,-2.9793,-2.9941,-3.0199,-3.0526,-3.0526,-3.0526,-3.0526,-3.0526,-3.0526,-2.8764,-2.9059,-2.9355,-3.0591,-3.0365,-3.0262,-3.1551,-3.1061,-3.057,-3.1332,-3.1114,-3.0864,-3.108,-3.1222,-3.142,-3.193,-3.1949,-3.2055,-3.2704,-3.2489,-3.2403,-3.2791,-3.2894,-3.3028,0.0,0.0,0.0,-3.4658,-3.3821,-3.3528,-3.3993,-3.3528,-3.33,-3.33,-3.33,-3.33,-3.33,-3.3357,-3.3396,-3.3341,-3.3704,-3.3974,-3.4108,-3.401,-3.3788,-3.3435,-3.3578,-3.3522,-3.3326,-3.3326,-3.3326,-3.3326,-3.3326,-3.3326,-3.3241,-3.2704,-3.216,-3.1709,-3.1955,-3.1355,-3.0519,-3.0882,-3.067,-3.0139,-2.9858,-2.9821,-2.9753,-2.8961,-2.915,-2.952,-2.9301,-2.9593,-2.9954,-3.0039,-3.0053,-3.0111,-3.037,-3.0294,-3.0218,-3.0497,-3.0418,-3.0339,-3.0339,-3.0418,-3.0585,-3.0791,-3.0999,-3.1013,-3.0798,-3.081,-3.0556,-2.9983,-2.9535,-2.919,-2.8966,-2.8323,-2.7934,-2.7934,-2.8031,-2.8076,-2.8076,-2.8543,-2.8966,-2.9287,-2.9438,-2.9705,-2.9984,-2.9984,-3.007,-3.0258,-3.0258,-3.0342,-2.8981,-2.9277,-2.9927,-3.0805,-3.0485,-3.0291,-3.1573,-3.1422,-3.1087,-3.1364,-3.0493,-2.9785,0.0,0.0,-2.9861,-3.1348,-3.101,-3.1172,-3.269,-3.1776,-3.1259,0.0,0.0,0.0,0.0,0.0,0.0,-3.4397,0.0,-3.4397,-3.4397,-3.4397,-3.4397,-3.4397,-3.4397,-3.4397,-3.4397,-3.3888,-3.3594,-3.3434,-3.4153,-3.4292,-3.3987,-3.4794,-3.4608,-3.3624,-3.4064,-3.3858,-3.3297,-3.3368,-3.3354,-3.3326,-3.3326,-3.3241,-3.3241,-3.3171,-3.2187,-3.0745,-2.9922,-2.9626,-2.9561,-2.8816,-2.851,-2.851,-2.8724,-2.8803,-2.8803,-2.9052,-2.9052,-2.9118,-2.9341,-2.9419,-2.9431,-2.9702,-2.9792,-2.9998,-3.0683,-3.0416,-3.0197,-3.0891,-3.0562,-3.0213,-3.0186,-3.0303,-3.051,-3.0713,-3.0805,-3.091,-3.1234,-3.1292,-3.1098,-3.0627,-3.0522,-3.0268,-2.9669,-2.9026,-2.8637,-2.8607,-2.7979,-2.7655,-2.7625,-2.8027,-2.8304,-2.8288,-2.8795,-2.9074,-2.9074,-2.9074,-2.9348,-2.975,-2.975,-3.0027,-2.9913,-3.0498,-3.1055,-3.1571,-3.1183,-3.0881,-3.145,-3.1146,-3.0553,-3.0162,-3.0162,-3.0149,0.0,0.0,0.0,-3.0543,-3.0361,0.0,-3.1132,-3.1123,0.0,-3.1259,0.0,-3.2685,-3.2685,-3.3731,0.0,0.0,-3.4397,-3.4397,-3.4397,-3.4397,-3.4397,-3.4397,-3.4397,-3.4397,-3.4397,-3.4254,-3.437,-3.4633,-3.4326,-3.4348,-3.4597,-3.438,-3.4093,-3.3881,-3.4245,-3.4048,-3.3567,-3.3856,-3.3733,-3.3326,-3.3326,-3.2931,-3.2318,-3.1723,-3.0895,-2.9922,-2.9106,-2.8816,-2.8882,-2.9263,-2.8961,-2.851,-2.8578,-2.8578,-2.8578,-2.8803,-2.8882,-2.8961,-2.9118,-2.9275,-2.9419,-2.9509,-2.9689,-2.9856,-3.0075,-2.9961,-2.9936,-3.0087,-3.0121,-3.0077,-3.0185,-3.0256,-3.0278,-3.0461,-3.0502,-3.0659,-3.1073,-3.1234,-3.1276,-3.1098,-3.075,-3.0432,-3.0283,-2.9684,-2.9131,-2.8637,-2.8442,-2.8113,-2.764,-2.771,-2.7929,-2.8288,-2.8432,-2.8685,-2.9074,-2.9074,-2.9166,-2.9257,-2.9257,-2.9528,-2.9978,-3.0644,-3.1242,-3.1447,-3.1131,-3.0792,-3.0703,-3.0418,-2.9931,-2.9282,-2.9164,0.0,0.0,0.0,0.0,0.0,0.0,0.0,-3.042,-3.0755,-3.0986,0.0,-3.1993,0.0,-3.2685,-3.3731,-3.4397,0.0,-3.4397,-3.4397,-3.4397,-3.4397,-3.4397,-3.4397,-3.4397,-3.4397,-3.4397,-3.4397,-3.4564,-3.4825,-3.4645,-3.4566,-3.4647,-3.4631,-3.4414,-3.4014,0.0,-3.4306,-3.3745,-3.4191,-3.4144,-3.381,-3.376,-3.3406,-3.2904,-3.2196,-3.1193,-3.0152,-2.9704,-2.9106,-2.8578,-2.904,-2.8882,-2.851,-2.851,-2.851,-2.851,-2.8657,-2.8657,-2.8724,-2.8882,-2.9028,-2.9184,-2.9341,-2.9509,-2.9689,-2.9792,-2.9792,-2.9792,-2.9792,-2.9821,-2.9925,-3.0122,-3.0086,-3.0153,-3.0306,-3.0383,-3.0475,-3.0773,-3.0982,-3.1117,-3.1278,-3.1008,-3.0884,-3.0956,-3.0357,-2.9819,-2.946,-2.8906,-2.8427,-2.8038,-2.779,-2.771,-2.7978,-2.7978,-2.8125,-2.8415,-2.8415,-2.8559,-2.8732,-2.8732,-2.9012,-2.9491,-3.0193,-3.0911,-3.094,-3.0792,-3.0447,-2.9747,-2.9623,-2.9359,-2.857,0.0,-2.7564,-2.7643,-2.7738,-2.7893,-2.804,0.0,-3.0045,-3.0124,-3.062,-3.0986,-3.0986,-3.1993,-3.2685,-3.2685,-3.3731,-3.4397,-3.4397,-3.4397,-3.4397,-3.4397,-3.4397,-3.4397,-3.4397,-3.4397,-3.4397,-3.4397,-3.4397,-3.4397,-3.4397,-3.4825,-3.4825,-3.4397,-3.5141,-3.5023,-3.4206,0.0,0.0,-3.3991,-3.4361,-3.4472,-3.4424,-3.4196,-3.406,-3.3831,-3.3221,-3.2004,-3.0698,-3.062,-2.9704,-2.851,-2.851,-2.851,-2.851,-2.851,-2.851,-2.851,-2.851,-2.851,-2.851,-2.8724,-2.8803,-2.8882,-2.9263,-2.9341,-2.9431,-2.9702,-2.9792,-2.9792,-2.9792,-2.9792,-2.9859,-2.9938,-2.9995,-3.0006,-3.018,-3.0254,-3.0318,-3.0294,-3.0578,-3.0881,-3.1234,-3.1234,-3.1351,-3.1424,-3.0929,-3.0541,-3.0451,-2.946,-2.8816,-2.8742,-2.8068,-2.7709,-2.7709,-2.767,-2.7625,-2.7625,-2.7625,-2.7795,-2.8207,-2.8207,-2.8496,-2.9262,-2.9988,-3.0607,-3.066,-3.0628,-3.0447,-2.9747,-2.9623,0.0,0.0,-2.7683,-2.7577,-2.6985,-2.7143,-2.7579,-2.8045,0.0,0.0,0.0,0.0,-3.0986,0.0,0.0,0.0,0.0,0.0,0.0,0.0,0.0,-3.4397,-3.4397,-3.4397,-3.4397,-3.4397,-3.4397,-3.4397,-3.4397,-3.4397,-3.4397,-3.4397,-3.4481,-3.4481,-3.4397,-3.4564,-3.4498,-3.4406,-3.4831,0.0,-3.4099,-3.4587,-3.4471,-3.4009,-3.399,-3.3309,-3.2293,-3.1772,-3.0696,-2.948,-2.9029,-2.8736,-2.851,-2.851,-2.851,-2.851,-2.851,-2.851,-2.851,-2.851,-2.851,-2.851,-2.851,-2.8645,-2.8803,-2.8882,-2.904,-2.9209,-2.9431,-2.9611,-2.9792,-2.9792,-2.9792,-2.9844,-2.9807,-2.9859,-2.9897,-3.0019,-3.0066,-2.9914,-2.9509,-3.0239,-3.0821,-3.0881,-3.1014,-3.1132,-3.1146,-3.1188,-3.0934,-3.0398,-3.0257,-2.9939,-2.943,-2.8771,-2.8427,-2.8427,-2.7859,-2.7625,-2.7625,-2.7625,-2.761,-2.771,-2.771,-2.7993,-2.8851,-2.954,-3.0146,-3.0527,-3.0568,-3.0312,-2.9282,0.0,0.0,0.0,-2.7255,-2.7335,-2.7066,-2.7201,0.0,0.0,0.0,0.0,0.0,0.0,0.0,0.0,0.0,0.0,0.0,0.0,0.0,0.0,0.0,-3.4397,-3.4397,-3.4397,-3.4397,-3.4397,-3.4397,-3.4397,-3.4397,-3.4397,-3.4397,-3.4397,-3.4397,-3.4397,-3.4397,-3.4397,-3.4397,-3.4397,-3.466,0.0,-3.4307,-3.4727,-3.4821,-3.4525,-3.4373,-3.374,-3.2839,-3.2358,-3.136,-3.0086,-2.9708,-2.9297,-2.8871,-2.8595,-2.851,-2.851,-2.851,-2.851,-2.851,-2.851,-2.851,-2.851,-2.851,-2.8578,-2.8657,-2.8803,-2.8961,-2.9131,-2.9341,-2.9509,-2.9611,-2.9792,-2.9792,-2.9792,-2.9792,-2.9792,-2.9845,-2.9871,-2.9925,-2.9843,-2.9286,-2.9663,-3.0086,-3.028,-3.0702,-3.1014,-3.1087,-3.1132,-3.1057,-3.0746,-3.049,-3.0276,-2.9978,-2.9406,-2.9116,-2.9116,-2.8442,-2.8113,-2.8113,-2.779,-2.7625,-2.7625,-2.7625,-2.771,-2.8139,-2.8828,-2.9534,-3.0228,-3.0251,-2.9856,-2.8826,-2.8454,0.0,0.0,-2.6726,-2.6807,-2.7066,0.0,-2.7053,0.0,0.0,0.0,0.0,0.0,0.0,0.0,0.0,0.0,0.0,0.0,0.0,0.0,0.0,0.0,-3.4397,-3.423,-3.423,-3.4397,-3.4397,-3.4397,-3.4397,-3.4397,-3.4397,-3.4397,-3.4397,-3.4397,-3.4397,-3.4397,-3.4397,-3.4397,-3.4397,0.0,0.0,-3.466,-3.4825,-3.4937,-3.4459,-3.3923,-3.3411,-3.2878,-3.1851,-3.0707,-3.0343,-2.9845,-2.9294,-2.8766,-2.8527,-2.851,-2.851,-2.851,-2.851,-2.851,-2.851,-2.851,-2.851,-2.851,-2.851,-2.8724,-2.8882,-2.904,-2.9263,-2.9341,-2.9431,-2.9689,-2.9792,-2.9792,-2.9792,-2.9792,-2.9792,-2.9792,-2.9921,-2.9706,-2.9099,-2.9204,-2.928,-2.9483,-3.0003,-3.0447,-3.0762,-3.0821,-3.0895,-3.1087,-3.076,-3.052,-3.0577,-3.0078,-2.9774,-2.9774,-2.9146,-2.8742,-2.8607,-2.8053,-2.7724,-2.7625,-2.7625,-2.7625,-2.6864,-2.7797,-2.8848,-2.9529,-2.9219,-2.8698,-2.8789,0.0,0.0,-2.7011,-2.6314,-2.5886,-2.6427,0.0,0.0,0.0,0.0,-2.7882,0.0,0.0,0.0,0.0,0.0,0.0,0.0,0.0,0.0,0.0,0.0,0.0,-3.4314,-3.381,-3.3725,-3.4397,-3.4397,-3.4397,-3.4397,-3.4397,-3.4397,-3.4397,-3.4397,-3.4397,-3.4397,-3.4397,-3.4397,-3.4397,-3.4397,0.0,0.0,-3.381,-3.3907,-3.4301,-3.3028,-3.2599,-3.2648,-3.1504,-3.0721,-3.0229,-2.9709,-2.9604,-2.9582,-2.9071,-2.8745,-2.851,-2.851,-2.851,-2.851,-2.851,-2.851,-2.851,-2.851,-2.851,-2.851,-2.851,-2.8645,-2.8803,-2.887,-2.9106,-2.9419,-2.9419,-2.9611,-2.9792,-2.9792,-2.9792,-2.9792,-2.9792,-2.9831,-2.958,-2.9001,-2.9052,-2.8952,-2.8526,-2.8621,-2.9016,-2.9685,-2.987,-3.0251,-3.1073,-3.1175,-3.1261,-3.1377,-3.0776,-3.0417,-3.0417,-2.9804,-2.9205,-2.8607,-2.8532,-2.8188,-2.7625,-2.7625,-2.7625,-2.6625,-2.7359,-2.8174,-2.8906,-2.8839,-2.8363,-2.7907,0.0,-2.7002,-2.6701,-2.6151,-2.5943,-2.6496,0.0,0.0,0.0,0.0,0.0,-2.7728,0.0,0.0,0.0,0.0,0.0,0.0,0.0,0.0,0.0,0.0,0.0,-3.3091,-3.3288,-3.3725,-3.4397,-3.4397,-3.4397,-3.4397,-3.4397,-3.4397,-3.4397,-3.4397,-3.4397,-3.4397,-3.4397,-3.4397,-3.4397,-3.4397,0.0,0.0,-3.3484,-3.33,-3.3091,-3.2476,-3.2152,-3.1801,-3.1408,-3.0985,-3.0395,-2.9992,-2.9977,-3.0129,-2.9521,-2.938,-2.934,-2.8703,-2.851,-2.851,-2.851,-2.851,-2.851,-2.851,-2.851,-2.851,-2.851,-2.8578,-2.8657,-2.8803,-2.8961,-2.9106,-2.9341,-2.9509,-2.9599,-2.9792,-2.9792,-2.9792,-2.9792,-2.9792,-2.9578,-2.9001,-2.8644,-2.8303,-2.7742,-2.8213,-2.8826,-2.956,-2.9623,-3.0007,-3.0762,-3.094,-3.0999,-3.1058,-3.0924,-3.0906,-3.0991,-3.038,-2.9918,-2.9744,-2.937,-2.9041,-2.8771,-2.8368,-2.8188,-2.6073,-2.6876,-2.7699,-2.8373,-2.8195,-2.7855,0.0,0.0,-2.6663,-2.6346,-2.5791,-2.5594,-2.6082,-2.5721,0.0,0.0,0.0,-2.6017,-2.709,-2.7249,0.0,0.0,0.0,0.0,0.0,0.0,0.0,0.0,0.0,0.0,-3.1977,-3.2513,-3.3215,-3.4063,-3.4314,-3.4397,-3.4397,-3.4397,-3.4397,-3.4397,-3.4397,-3.4397,-3.4397,-3.4397,-3.4314,-3.4063,0.0,0.0,0.0,-3.2871,-3.2599,-3.2215,-3.1865,-3.1536,-3.1306,-3.1193,-3.0925,-3.0441,-3.0372,-3.042,-3.0589,-3.0055,-3.0144,-3.0158,-2.9256,-2.8871,-2.8703,-2.8558,-2.851,-2.851,-2.851,-2.851,-2.851,-2.851,-2.851,-2.851,-2.8645,-2.8724,-2.887,-2.9263,-2.9341,-2.9509,-2.9779,-2.9792,-2.9792,-2.9792,-2.9792,-2.9641,-2.9239,-2.8699,-2.8134,-2.7582,-2.788,-2.8435,-2.9233,-2.9093,-2.9345,-3.0312,-3.0447,-3.0507,-3.0553,-3.0881,-3.1132,-3.1278,-3.0832,-3.0547,-3.0507,-3.0058,-2.9759,-2.9564,-2.9101,-2.8786,-2.4975,-2.6232,-2.7537,-2.7776,-2.7255,-2.685,0.0,0.0,-2.5676,-2.5861,-2.5028,-2.4394,-2.4945,-2.4611,-2.42,-2.42,0.0,0.0,-2.6494,-2.6574,0.0,0.0,0.0,0.0,0.0,0.0,0.0,0.0,0.0,0.0,-3.1306,-3.1306,-3.2001,-3.3398,-3.4063,-3.4397,-3.4397,-3.4397,-3.4397,-3.4397,-3.4397,-3.4397,-3.4397,-3.4397,-3.4063,0.0,0.0,0.0,0.0,-3.156,-3.1725,-3.2127,-3.0734,-3.0668,-3.1205,-3.0487,-3.0216,-3.0216,-3.0476,-3.0769,-3.0968,-3.06,-3.0694,-3.0771,-3.023,-2.9701,-2.9184,-2.8655,-2.851,-2.851,-2.851,-2.851,-2.851,-2.851,-2.851,-2.851,-2.851,-2.8657,-2.8882,-2.9052,-2.9275,-2.9509,-2.9779,-2.9792,-2.9792,-2.9792,-2.9792,-2.9792,-2.9779,-2.9277,-2.8712,-2.816,-2.7607,-2.7644,-2.8417,-2.792,-2.8195,-2.9685,-2.9808,-2.9856,-3.0011,-3.0687,-3.1132,-3.1278,-3.1278,-3.1008,-3.0507,-3.0492,-3.0178,-2.9579,-2.9564,-2.922,-2.4096,-2.5025,-2.5988,-2.5906,-2.5627,-2.5429,-2.5697,0.0,-2.5123,-2.5229,-2.4671,-2.4334,-2.4874,-2.4527,-2.42,-2.42,-2.4334,0.0,0.0,0.0,0.0,0.0,0.0,0.0,0.0,0.0,0.0,0.0,0.0,0.0,-3.0578,-3.1038,-3.1737,-3.2587,-3.2834,-3.3189,-3.3725,-3.3189,-3.3433,-3.4397,-3.3894,-3.3979,-3.4397,-3.3894,0.0,0.0,0.0,0.0,0.0,-3.1383,-3.1116,-3.0824,-3.0385,-3.0306,-3.0487,-3.0306,-3.0216,-3.0216,-3.0306,-3.0601,-3.0949,-3.0873,-3.1156,-3.1312,-3.0783,-3.0013,-2.9184,-2.8655,-2.851,-2.851,-2.851,-2.851,-2.851,-2.851,-2.851,-2.851,-2.851,-2.859,-2.8736,-2.9052,-2.9131,-2.9287,-2.9714,-2.9792,-2.9792,-2.9792,-2.9792,-2.9792,-2.9792,-2.9289,-2.8712,-2.816,-2.7607,-2.7449,-2.7789,-2.7604,-2.7934,-2.8826,-2.9359,-2.9685,-2.9732,-3.0372,-3.0821,-3.094,-3.1073,-3.1087,-3.0938,-3.1096,-3.0866,-3.0223,-3.0223,-2.9879,0.0,-2.4414,-2.5312,-2.5229,-2.5158,0.0,0.0,0.0,-2.4838,-2.4743,-2.4394,-2.4334,-2.4671,-2.4394,-2.42,-2.42,-2.42,0.0,0.0,0.0,0.0,0.0,0.0,0.0,0.0,0.0,0.0,0.0,0.0,0.0,-3.0216,-3.0668,-3.1104,-3.1524,-3.204,-3.2488,-3.2945,-3.2488,-3.2735,-3.3615,-3.3189,-3.3202,-3.3615,-3.3202,0.0,0.0,0.0,0.0,0.0,-3.0847,-3.0578,-3.0216,-3.0216,-3.0216,-3.0216,-3.0216,-3.0216,-3.0216,-3.0306,-3.0589,-3.0883,-3.0984,-3.1241,-3.144,-3.0795,-2.9977,-2.9184,-2.8655,-2.851,-2.851,-2.851,-2.851,-2.851,-2.851,-2.851,-2.851,-2.851,-2.851,-2.859,-2.8882,-2.8973,-2.9131,-2.9456,-2.9624,-2.9611,-2.9611,-2.9702,-2.9792,-2.9792,-2.9478,-2.8963,-2.8185,-2.7795,-2.748,-2.7159,-2.7095,-2.7417,-2.8051,-2.8762,-2.9156,-2.9156,-3.0115,-3.0642,-3.0821,-3.0895,-3.1014,-3.1087,-3.1307,-3.1185,-3.0824,-3.0824,-3.0552,0.0,-2.4276,0.0,0.0,0.0,0.0,0.0,0.0,0.0,-2.4334,-2.42,-2.42,-2.42,-2.42,-2.42,-2.42,-2.42,0.0,0.0,0.0,0.0,0.0,0.0,0.0,0.0,0.0,0.0,0.0,0.0,0.0,0.0,-3.0216,-3.0216,-3.0216,-3.1436,-3.2215,-3.2215,-3.2215,-3.2215,-3.2302,-3.2215,-3.2215,-3.2302,-3.2215,0.0,0.0,0.0,0.0,0.0,-3.0216,-3.0216,-3.0216,-3.0216,-3.0216,-3.0216,-3.0216,-3.0216,-3.0216,-3.0487,-3.0578,-3.0668,-3.0883,-3.1139,-3.1116,-3.0325,-2.9749,-2.9232,-2.8667,-2.851,-2.851,-2.851,-2.851,-2.851,-2.851,-2.851,-2.851,-2.851,-2.851,-2.8578,-2.8724,-2.8791,-2.8882,-2.9052,-2.9275,-2.9419,-2.9419,-2.9599,-2.9792,-2.9792,-2.9792,-2.9365,-2.8222,-2.8109,-2.7657,-2.6622,-2.6533,-2.6782,-2.7417,-2.8051,-2.8427,-2.8492,-2.9794,-3.0628,-3.0762,-3.0762,-3.0895,-3.1087,-3.1234,-3.1278,-3.1278,-3.1409,-3.1195,-2.1874,0.0,-2.4406,-2.4177,-2.4105,-2.4105,0.0,0.0,0.0,0.0,0.0,-2.42,-2.42,-2.42,-2.42,-2.42,-2.42,0.0,0.0,0.0,0.0,0.0,0.0,0.0,0.0,0.0,0.0,0.0,0.0,0.0,0.0,-3.0216,-3.0216,-3.0216,-3.0476,-3.0913,-3.156,-3.1015,-3.1258,-3.2302,-3.1813,-3.1801,-3.2314,-3.1813,0.0,0.0,0.0,0.0,-3.0216,-3.0216,-3.0216,-3.0216,-3.0216,-3.0216,-3.0216,-3.0216,-3.0216,-3.0216,-3.0306,-3.0397,-3.0668,-3.0883,-3.1062,-3.095,-3.0069,-2.9834,-2.9701,-2.8775,-2.851,-2.851,-2.851,-2.851,-2.851,-2.851,-2.851,-2.851,-2.851,-2.851,-2.8578,-2.8724,-2.8791,-2.8882,-2.9052,-2.9131,-2.9209,-2.9209,-2.9353,-2.9509,-2.9509,-2.9689,-2.9365,-2.8222,-2.8109,-2.7657,-2.6622,-2.6533,-2.6589,-2.6714,-2.7351,-2.7986,-2.8492,-2.9345,-3.0068,-3.0642,-3.0642,-3.0821,-3.1087,-3.1132,-3.119,-3.1278,-3.1409,-3.145,-2.1375,-2.2855,-2.4116,-2.3897,-2.3897,-2.3897,0.0,0.0,0.0,0.0,0.0,0.0,-2.42,0.0,0.0,0.0,-2.42,0.0,0.0,0.0,0.0,0.0,0.0,0.0,0.0,0.0,0.0,0.0,0.0,0.0,0.0,-3.0216,-3.0216,-3.0216,-3.0216,-3.0397,-3.0758,-3.0397,-3.0566,-3.1347,-3.0925,-3.1015,-3.1347,-3.0925,-3.0769,0.0,0.0,0.0,-3.0216,-3.0216,-3.0216,-3.0216,-3.0216,-3.0216,-3.0216,-3.0216,-3.0216,-3.0216,-3.0216,-3.0306,-3.0453,-3.0411,-3.043,-3.0332,-2.9459,-2.932,-2.9308,-2.8659,-2.851,-2.851,-2.851,-2.851,-2.851,-2.851,-2.8179,-2.8007,-2.8431,-2.8179,-2.8087,-2.8566,-2.8657,-2.8736,-2.8816,-2.8895,-2.8961,-2.8961,-2.9118,-2.9275,-2.9275,-2.9443,-2.9287,-2.8413,-2.8174,-2.7758,-2.6917,-2.6603,-2.6533,-2.6533,-2.7095,-2.767,-2.8051,-2.903,-2.9931,-3.0568,-3.0568,-3.0702,-3.0955,-3.1073,-3.1132,-3.1234,-3.1424,-3.1467,-2.1251,-2.2681,-2.4043,-2.42,-2.42,-2.42,0.0,0.0,0.0,0.0,0.0,0.0,0.0,0.0,0.0,0.0,0.0,0.0,0.0,0.0,0.0,0.0,0.0,0.0,0.0,0.0,0.0,0.0,0.0,0.0,0.0,-3.0216,-3.0181,-3.0112,-3.0101,-3.0067,-2.9986,-3.0135,-3.0216,-3.0216,-3.0216,-3.0216,-3.0216,-3.0216,-3.0216,0.0,0.0,0.0,-3.0101,-3.0101,-3.0055,-2.9986,-2.9986,-2.9986,-2.9986,-2.9986,-2.9986,-2.9986,-2.9986,-2.9986,-2.9917,-2.9746,-2.9607,-2.952,-2.8855,-2.8657,-2.8633,-2.8426,-2.8431,-2.8431,-2.851,-2.851,-2.851,-2.8351,-2.7765,-2.7348,-2.7926,-2.751,-2.7174,-2.7926,-2.8179,-2.8259,-2.8259,-2.8566,-2.8724,-2.8724,-2.8973,-2.9131,-2.9131,-2.9275,-2.922,-2.8661,-2.8349,-2.7883,-2.7331,-2.6779,-2.6533,-2.6533,-2.704,-2.7417,-2.767,-2.8903,-2.9931,-3.0568,-3.0568,-3.0642,-3.0762,-3.0955,-3.1073,-3.1073,-3.1366,-3.1409,-2.1031,-2.223,-2.3372,-2.4043,-2.42,-2.42,0.0,0.0,0.0,0.0,0.0,0.0,0.0,0.0,0.0,0.0,0.0,0.0,0.0,0.0,0.0,0.0,0.0,0.0,0.0,0.0,0.0,0.0,0.0,0.0,0.0,-3.0216,-3.0032,-2.9619,-2.9607,-2.9389,-2.893,-2.978,-3.0216,-3.0216,-3.0216,-3.0216,-3.0216,-3.0216,-3.0216,0.0,0.0,-2.9986,-2.9607,-2.9607,-2.9343,-2.893,-2.893,-2.893,-2.893,-2.893,-2.893,-2.893,-2.893,-2.893,-2.8919,-2.8838,-2.8902,-2.8798,-2.8498,-2.8324,-2.8302,-2.8022,-2.8111,-2.8259,-2.8431,-2.851,-2.8339,-2.7592,-2.7267,-2.701,-2.6329,-2.608,-2.6069,-2.6163,-2.6835,-2.7429,-2.7429,-2.8007,-2.859,-2.859,-2.8895,-2.9131,-2.9131,-2.9456,-2.9489,-2.8913,-2.8436,-2.7883,-2.7331,-2.6779,-2.6533,-2.6533,-2.6589,-2.7162,-2.8298,-2.9156,-2.9931,-3.0568,-3.0568,-3.0628,-3.0642,-3.0762,-3.0821,-3.0821,-3.1176,-3.1351,-2.0893,-2.2126,-2.3224,-2.397,-2.42,0.0,0.0,0.0,0.0,0.0,0.0,0.0,0.0,0.0,0.0,0.0,0.0,0.0,0.0,0.0,0.0,0.0,0.0,0.0,0.0,0.0,0.0,0.0,0.0,0.0,0.0,0.0,-2.9297,-2.9079,-2.9068,-2.8941,-2.87,-2.916,-2.9401,-2.9401,-2.9401,-2.9401,-2.9401,-2.9401,-2.9401,-2.9401,0.0,-2.9274,-2.9068,-2.9068,-2.8919,-2.87,-2.87,-2.87,-2.87,-2.87,-2.87,-2.87,-2.87,-2.87,-2.8654,-2.839,-2.831,-2.8218,-2.7808,-2.7387,-2.6986,-2.7101,-2.7684,-2.8259,-2.8339,-2.8099,-2.7684,-2.7267,-2.6423,-2.5757,-2.583,-2.5411,-2.5242,-2.5735,-2.6588,-2.7185,-2.7185,-2.7926,-2.851,-2.851,-2.8669,-2.8816,-2.8882,-2.9209,-2.9356,-2.916,-2.88,-2.8335,-2.777,-2.7218,-2.6779,-2.6546,-2.6533,-2.6905,-2.792,-2.8325,-2.8776,-2.947,-2.987,-3.0129,-3.019,-3.0568,-3.0821,-3.0821,-3.1176,-3.1234,-2.0554,-2.1745,-2.2916,-2.3751,0.0,0.0,0.0,0.0,0.0,0.0,0.0,0.0,0.0,0.0,0.0,0.0,0.0,0.0,0.0,0.0,0.0,0.0,0.0,0.0,0.0,0.0,0.0,0.0,0.0,0.0,0.0,0.0,-2.8643,-2.854,-2.854,-2.8471,-2.8356,-2.8356,-2.8471,-2.87,-2.87,-2.87,-2.87,-2.87,-2.87,-2.87,-2.87,-2.8632,-2.854,-2.854,-2.8459,-2.8356,-2.8356,-2.8174,-2.7992,-2.7992,-2.7906,-2.7734,-2.7734,-2.7734,-2.7667,-2.7572,-2.7363,-2.7116,-2.6911,-2.6268,-2.5579,-2.6008,-2.6764,-2.7499,-2.758,-2.7255,-2.6846,-2.6599,-2.5505,-2.4659,-2.5073,-2.4829,-2.4659,-2.5073,-2.6257,-2.7092,-2.6928,-2.7765,-2.851,-2.851,-2.851,-2.8657,-2.8803,-2.8961,-2.9197,-2.9419,-2.9099,-2.8575,-2.7971,-2.7406,-2.6917,-2.6559,-2.6533,-2.6782,-2.7484,-2.7484,-2.7802,-2.8492,-2.9219,-2.9623,-2.9747,-3.0447,-3.0762,-3.0762,-3.1058,-3.1117,-1.9737,-2.0904,-2.2069,-2.2916,0.0,0.0,0.0,0.0,0.0,0.0,0.0,0.0,0.0,0.0,0.0,0.0,0.0,0.0,0.0,0.0,0.0,0.0,0.0,0.0,0.0,0.0,0.0,0.0,0.0,0.0,0.0,0.0,0.0,-2.8046,-2.8035,-2.7805,-2.7334,-2.7334,-2.7793,-2.87,-2.87,-2.87,-2.87,-2.87,-2.87,-2.87,-2.87,-2.8448,-2.8035,-2.8035,-2.7759,-2.7334,-2.7334,-2.6806,-2.6012,-2.6012,-2.5518,-2.4763,-2.4763,-2.4763,-2.4924,-2.5728,-2.538,-2.4882,-2.5673,-2.5326,-2.4669,-2.4829,-2.5158,-2.5484,-2.5913,-2.5913,-2.5663,-2.4914,-2.4584,-2.4241,-2.3474,-2.3897,-2.4241,-2.3474,-2.5411,-2.6928,-2.608,-2.7336,-2.851,-2.851,-2.8657,-2.8803,-2.8791,-2.8961,-2.9197,-2.9419,-2.8922,-2.8263,-2.7431,-2.6841,-2.6571,-2.6533,-2.6533,-2.6782,-2.7484,-2.7484,-2.7802,-2.8492,-2.9219,-2.9623,-2.9623,-3.0312,-3.0628,-3.0642,-3.0762,-3.0821,-2.0275,-2.1201,-2.2145,-2.3434,0.0,0.0,0.0,0.0,0.0,0.0,0.0,0.0,0.0,0.0,0.0,0.0,0.0,0.0,0.0,0.0,0.0,0.0,0.0,0.0,0.0,0.0,0.0,0.0,0.0,0.0,0.0,0.0,0.0,-2.7518,-2.7518,-2.7426,-2.7231,-2.7231,-2.7415,-2.7793,-2.7793,-2.7793,-2.7793,-2.7793,-2.7793,-2.7793,-2.7793,-2.7679,-2.7424,-2.6891,-2.6873,-2.7138,-2.6528,-2.6091,-2.5746,-2.5158,-2.4744,-2.4498,-2.4498,-2.4498,-2.4573,-2.4914,-2.4744,-2.4584,-2.4914,-2.4392,-2.3704,-2.3887,-2.3714,-2.379,-2.5231,-2.5326,-2.4914,-2.4584,-2.4069,-2.356,-2.3135,-2.3396,-2.3474,-2.3135,-2.4402,-2.5579,-2.5746,-2.6412,-2.6999,-2.7592,-2.7244,-2.7232,-2.7879,-2.8051,-2.8383,-2.9118,-2.8857,-2.8375,-2.7858,-2.7293,-2.6829,-2.6546,-2.6533,-2.6589,-2.6837,-2.6905,-2.6973,-2.7229,-2.8312,-2.8889,-2.8889,-3.0054,-3.0568,-3.0568,-3.0762,-3.0895,-2.042,-2.1364,-2.2306,0.0,0.0,0.0,0.0,0.0,0.0,0.0,0.0,0.0,0.0,0.0,0.0,0.0,0.0,0.0,0.0,0.0,0.0,0.0,0.0,0.0,0.0,0.0,0.0,0.0,0.0,0.0,0.0,0.0,0.0,0.0,-2.7231,-2.7231,-2.7231,-2.7231,-2.7231,-2.7231,-2.7231,-2.7231,-2.7149,-2.688,-2.6787,-2.6704,-2.6456,-2.6373,-2.629,-2.5673,-2.5757,-2.6279,-2.5673,-2.5231,-2.4893,-2.4307,-2.3887,-2.3637,-2.3637,-2.3637,-2.3637,-2.3973,-2.3887,-2.3637,-2.3973,-2.3367,-2.2677,-2.294,-2.2696,-2.2696,-2.4135,-2.4317,-2.4069,-2.4069,-2.356,-2.3135,-2.3135,-2.3309,-2.3474,-2.3135,-2.4069,-2.4999,-2.5326,-2.5663,-2.5997,-2.667,-2.6494,-2.6494,-2.7313,-2.7649,-2.8143,-2.8973,-2.887,-2.8612,-2.8398,-2.7708,-2.7118,-2.681,-2.6553,-2.6533,-2.6533,-2.6533,-2.6533,-2.6533,-2.7604,-2.8182,-2.8182,-2.9331,-3.0054,-3.0312,-3.0387,-3.0642,-1.9904,-2.1155,0.0,0.0,0.0,0.0,0.0,0.0,0.0,0.0,0.0,0.0,0.0,0.0,0.0,0.0,0.0,0.0,0.0,0.0,0.0,0.0,0.0,0.0,0.0,0.0,0.0,0.0,0.0,0.0,0.0,0.0,0.0,0.0,-2.7231,-2.7231,-2.7231,-2.7231,-2.7231,-2.7231,-2.7231,-2.7231,-2.7149,-2.6268,-2.5819,-2.5735,-2.4914,-2.4498,-2.4498,-2.4498,-2.4498,-2.4498,-2.4498,-2.3887,-2.3096,-2.3096,-2.2501,-2.1741,-2.1741,-2.1741,-2.182,-2.2755,-2.2501,-2.1909,-2.2843,-2.2413,-2.1741,-2.2008,-2.2097,-2.2185,-2.2353,-2.2696,-2.3047,-2.3135,-2.3135,-2.3135,-2.3135,-2.382,-2.4241,-2.3309,-2.4563,-2.5495,-2.4669,-2.5242,-2.5746,-2.583,-2.6588,-2.7185,-2.7185,-2.7926,-2.8669,-2.9052,-2.8959,-2.8938,-2.8925,-2.7921,-2.7293,-2.7281,-2.6766,-2.6533,-2.6533,-2.6533,-2.6533,-2.6533,-2.7162,-2.7484,-2.7484,-2.8182,-2.8889,-2.9623,-2.9623,-3.0007,-2.0041,-2.0971,0.0,0.0,0.0,0.0,0.0,0.0,0.0,0.0,0.0,0.0,0.0,0.0,0.0,0.0,0.0,0.0,0.0,0.0,0.0,0.0,0.0,0.0,0.0,0.0,0.0,0.0,0.0,0.0,0.0,0.0,0.0,0.0,-2.7231,-2.7231,-2.7231,-2.7231,-2.7231,-2.7231,-2.7231,-2.7231,-2.7149,-2.6268,-2.5819,-2.5735,-2.4914,-2.4498,-2.4498,-2.4498,-2.4145,-2.3531,-2.3531,-2.3357,-2.3008,-2.2334,-2.1909,-2.1741,-2.1741,-2.1741,-2.1731,-2.1989,-2.19,-2.1731,-2.1989,-2.1909,-2.1741,-2.183,-2.1919,-2.2097,-2.2185,-2.2441,-2.2618,-2.2882,-2.2882,-2.2969,-2.3057,-2.3309,-2.3396,-2.3135,-2.356,-2.4069,-2.4413,-2.4155,-2.4145,-2.4829,-2.5084,-2.5757,-2.7021,-2.7926,-2.859,-2.8882,-2.8814,-2.8802,-2.8724,-2.8051,-2.7563,-2.7306,-2.6766,-2.6533,-2.6533,-2.6533,-2.6533,-2.6533,-2.7162,-2.7484,-2.7484,-2.8182,-2.8889,-2.9623,-2.9623,-3.0007,-2.074,0.0,0.0,0.0,0.0,0.0,0.0,0.0,0.0,0.0,0.0,0.0,0.0,0.0,0.0,0.0,0.0,0.0,0.0,0.0,0.0,0.0,0.0,0.0,0.0,0.0,0.0,0.0,0.0,0.0,0.0,0.0,0.0,0.0,-2.6622,-2.6445,-2.6113,-2.6124,-2.6124,-2.6124,-2.6124,-2.6124,-2.6124,-2.5505,-2.5242,-2.5242,-2.3973,-2.3377,-2.3377,-2.3377,-2.3028,-2.2501,-2.2501,-2.2501,-2.2501,-2.1909,-2.1741,-2.1741,-2.1741,-2.1741,-2.1741,-2.1741,-2.1741,-2.1741,-2.1741,-2.1741,-2.1741,-2.1741,-2.183,-2.1919,-2.1919,-2.1998,-2.2176,-2.253,-2.2706,-2.2803,-2.2969,-2.3057,-2.3135,-2.3135,-2.3135,-2.3309,-2.382,-2.3474,-2.3309,-2.3907,-2.4241,-2.4999,-2.6423,-2.7162,-2.7557,-2.7706,-2.7799,-2.8001,-2.8239,-2.7819,-2.752,-2.7513,-2.7034,-2.6621,-2.6533,-2.6533,-2.6533,-2.6533,-2.6905,-2.7095,-2.7095,-2.7802,-2.8441,-2.9156,-2.9484,-3.0007,0.0,0.0,0.0,0.0,0.0,0.0,0.0,0.0,0.0,0.0,0.0,0.0,0.0,0.0,0.0,0.0,0.0,0.0,0.0,0.0,0.0,0.0,0.0,0.0,0.0,0.0,0.0,0.0,0.0,0.0,0.0,0.0,0.0,-2.5746,-2.5652,-2.5326,-2.4498,-2.4498,-2.4498,0.0,-2.4498,-2.4498,-2.4498,-2.4413,-2.4327,-2.4155,-2.2422,-2.1741,-2.1741,-2.1741,-2.1741,-2.1741,-2.1741,-2.1741,-2.1741,-2.1741,-2.1741,-2.1741,-2.1741,-2.1741,-2.1741,-2.1741,-2.1741,-2.1741,-2.1741,-2.1741,-2.1741,-2.1741,-2.1741,-2.1741,-2.1741,-2.1741,-2.183,-2.2255,-2.253,-2.2794,-2.2794,-2.2969,-2.3135,-2.3135,-2.3135,-2.3135,-2.3135,-2.3135,-2.3135,-2.3222,-2.3983,-2.4829,-2.5663,-2.5964,-2.6036,-2.6036,-2.6295,-2.6812,-2.7718,-2.7249,-2.721,-2.7718,-2.7247,-2.6843,-2.649,-2.6465,-2.6533,-2.6533,-2.6533,-2.6533,-2.6533,-2.7095,-2.7736,-2.8441,-2.9093,-2.987,0.0,0.0,0.0,0.0,0.0,0.0,0.0,0.0,0.0,0.0,0.0,0.0,0.0,0.0,0.0,0.0,0.0,0.0,0.0,0.0,0.0,0.0,0.0,0.0,0.0,0.0,0.0,0.0,0.0,0.0,0.0,0.0,0.0,-2.4829,-2.4744,-2.4659,-2.4498,-2.4498,-2.4498,0.0,-2.4498,-2.4498,-2.4498,-2.3714,-2.3018,-2.2255,-2.1909,-2.1741,-2.1741,-2.1741,-2.1741,-2.1741,-2.1741,-2.1741,-2.1741,-2.1741,-2.1741,-2.1741,-2.1741,-2.1741,-2.1741,-2.1741,-2.1741,-2.1741,-2.1741,-2.1741,-2.1741,-2.1741,-2.1741,-2.1741,-2.1741,-2.1741,-2.1741,-2.183,-2.2176,-2.253,-2.2706,-2.2969,-2.3135,-2.3135,-2.3135,-2.3135,-2.3135,-2.3135,-2.3309,-2.4069,-2.4413,-2.4829,-2.5663,-2.5819,-2.5902,-2.5902,-2.5902,-2.64,-2.7464,-2.7079,-2.6978,-2.7557,-2.7089,-2.6618,-2.6295,-2.6396,-2.6533,-2.6533,-2.6533,-2.6533,-2.6533,-2.6658,-2.704,-2.7736,-2.7868,-2.8648,0.0,0.0,0.0,0.0,0.0,0.0,0.0,0.0,0.0,0.0,0.0,0.0,0.0,0.0,0.0,0.0,0.0,0.0,0.0,0.0,0.0,0.0,0.0,0.0,0.0,0.0,0.0,0.0,0.0,0.0,0.0,-2.4744,-2.4317,-2.3877,-2.379,-2.3627,-2.3202,-2.3202,-2.3202,-2.3202,-2.3202,-2.3202,-2.3202,-2.3096,-2.2589,-2.1741,-2.1741,-2.1741,-2.1741,-2.1741,-2.1741,-2.1741,-2.1741,-2.1741,-2.1741,-2.1741,-2.1741,-2.1741,-2.1741,-2.1741,-2.1741,-2.1741,-2.1741,-2.1741,-2.1741,-2.1741,-2.1741,-2.1741,-2.1741,-2.1741,-2.1741,-2.1741,-2.1741,-2.1741,-2.2087,-2.2441,-2.2618,-2.2882,-2.3135,-2.3135,-2.3135,-2.3135,-2.3135,-2.3135,-2.3309,-2.3734,-2.382,-2.3983,-2.4478,-2.4478,-2.4478,-2.4478,-2.4478,-2.5062,-2.6565,-2.6411,-2.6597,-2.7334,-2.7177,-2.6818,-2.6238,-2.6396,-2.6533,-2.6533,-2.6533,-2.6533,-2.6533,-2.685,-2.7162,-2.7484,-2.7868,-2.857,0.0,0.0,0.0,0.0,0.0,0.0,0.0,0.0,0.0,0.0,0.0,0.0,0.0,0.0,0.0,0.0,0.0,0.0,0.0,0.0,0.0,0.0,0.0,0.0,0.0,0.0,0.0,0.0,0.0,0.0,-2.4231,-2.4074,-2.3594,-2.2814,-2.266,-2.232,-2.163,-2.163,-2.1667,-2.1741,-2.1741,-2.1741,-2.1731,-2.2501,-2.2413,-2.1741,-2.1741,-2.1741,-2.1741,-2.1741,-2.1741,-2.1741,-2.1741,-2.1741,-2.1741,-2.1741,-2.1741,-2.1741,-2.1741,-2.1741,-2.1741,-2.1741,-2.1741,-2.1741,-2.1741,-2.1741,-2.1741,-2.1741,-2.1741,-2.1741,-2.1741,-2.1741,-2.1741,-2.1741,-2.1998,-2.2353,-2.2353,-2.2696,-2.296,-2.3057,-2.3057,-2.3135,-2.3135,-2.3135,-2.3135,-2.3135,-2.3135,-2.3135,-2.3135,-2.3135,-2.3135,-2.3135,-2.3135,-2.381,-2.5411,-2.5579,-2.5939,-2.6776,-2.7022,-2.6846,-2.6012,-2.6238,-2.6396,-2.6465,-2.6465,-2.6533,-2.6533,-2.704,-2.7351,-2.7351,-2.792,-2.8634,0.0,0.0,0.0,0.0,0.0,0.0,0.0,0.0,0.0,0.0,0.0,0.0,0.0,0.0,0.0,0.0,0.0,0.0,0.0,0.0,0.0,0.0,0.0,0.0,0.0,0.0,0.0,0.0,0.0,0.0,-2.327,-2.2149,-2.1528,-2.1355,-2.1022,-2.0927,-2.119,-2.119,-2.1374,-2.1741,-2.1741,-2.1741,-2.1741,-2.182,-2.182,-2.1741,-2.1741,-2.1741,-2.1741,-2.1741,-2.1741,-2.1741,-2.1741,-2.1741,-2.1741,-2.1741,-2.1741,-2.1741,-2.1741,-2.1741,-2.1741,-2.1741,-2.1741,-2.1741,-2.1741,-2.1741,-2.1741,-2.1741,-2.1741,-2.1741,-2.1741,-2.1741,-2.1741,-2.1741,-2.1919,-2.2185,-2.2185,-2.2353,-2.253,-2.2794,-2.2969,-2.3135,-2.3135,-2.3135,-2.3135,-2.3135,-2.3135,-2.3135,-2.3135,-2.3135,-2.3135,-2.3135,-2.3135,-2.356,-2.4573,-2.4659,-2.485,-2.5286,-2.5665,-2.5645,-2.5265,-2.5707,-2.605,-2.627,-2.6396,-2.6533,-2.6533,-2.6589,-2.6658,-2.6658,-2.6714,-2.7417,0.0,0.0,0.0,0.0,0.0,0.0,0.0,0.0,0.0,0.0,0.0,0.0,0.0,0.0,0.0,0.0,0.0,0.0,0.0,0.0,0.0,0.0,0.0,0.0,0.0,0.0,0.0,0.0,0.0,-2.1627,-2.1627,-2.104,-2.0778,-2.0778,-2.0613,-2.0604,-2.0778,-2.0778,-2.0869,-2.1053,-2.1053,-2.1053,-2.1062,-2.1282,-2.1511,-2.1741,-2.1741,-2.1741,-2.1741,-2.1741,-2.1741,-2.1741,-2.1741,-2.1741,-2.1741,-2.1741,-2.1741,-2.1741,-2.1741,-2.1741,-2.1741,-2.1741,-2.1741,-2.1741,-2.1741,-2.1741,-2.1741,-2.1741,-2.1741,-2.1741,-2.1741,-2.1741,-2.1741,-2.1741,-2.182,-2.1919,-2.1919,-2.2176,-2.2432,-2.253,-2.2618,-2.2696,-2.2696,-2.2794,-2.2969,-2.2969,-2.3057,-2.3135,-2.3135,-2.3135,-2.3135,-2.3135,-2.3135,-2.3484,-2.4413,-2.4498,-2.463,-2.4979,-2.5059,-2.5111,-2.5136,-2.529,-2.5688,-2.6213,-2.6396,-2.6533,-2.6533,-2.6533,-2.6533,-2.6533,-2.6533,-2.704,0.0,0.0,0.0,0.0,0.0,0.0,0.0,0.0,0.0,0.0,0.0,0.0,0.0,0.0,0.0,0.0,0.0,0.0,0.0,0.0,0.0,0.0,0.0,0.0,0.0,0.0,0.0,0.0,0.0,-2.0521,-2.0521,-2.042,-2.0365,-2.0365,-2.0264,-2.0255,-2.0365,-2.0466,-2.0521,-2.0521,-2.0521,-2.0521,-2.053,-2.0824,-2.1181,-2.1585,-2.1695,-2.1741,-2.1741,-2.1741,-2.1741,-2.1741,-2.1741,-2.1741,-2.1741,-2.1741,-2.1741,-2.1741,-2.1741,-2.1741,-2.1741,-2.1741,-2.1741,-2.1741,-2.1741,-2.1741,-2.1741,-2.1741,-2.1741,-2.1741,-2.1741,-2.1741,-2.1741,-2.1741,-2.1741,-2.1741,-2.1741,-2.1998,-2.2353,-2.2353,-2.2353,-2.2441,-2.2441,-2.2618,-2.2803,-2.2803,-2.2969,-2.3135,-2.3135,-2.3135,-2.3135,-2.3135,-2.3135,-2.3396,-2.4069,-2.4155,-2.4258,-2.4492,-2.4395,-2.4381,-2.4565,-2.4538,-2.4862,-2.5535,-2.5734,-2.6013,-2.6533,-2.6533,-2.6533,-2.6533,-2.6533,-2.685,0.0,0.0,0.0,0.0,0.0,0.0,0.0,0.0,0.0,0.0,0.0,0.0,0.0,0.0,0.0,0.0,0.0,0.0,0.0,0.0,0.0,0.0,0.0,0.0,0.0,0.0,0.0,0.0,0.0,-2.0521,-2.0521,-2.0163,-1.9962,-1.9962,-1.9577,-1.9558,-1.9962,-2.0328,-2.0521,-2.0521,-2.0521,-2.0521,-2.0521,-2.0539,-2.0769,-2.1163,-2.1566,-2.1741,-2.1741,-2.1741,-2.1741,-2.1741,-2.1741,-2.1741,-2.1741,-2.1741,-2.1741,-2.1741,-2.1741,-2.1741,-2.1741,-2.1741,-2.1741,-2.1741,-2.1741,-2.1741,-2.1741,-2.1741,-2.1741,-2.1741,-2.1741,-2.1741,-2.1741,-2.1741,-2.1741,-2.1741,-2.1741,-2.1919,-2.2097,-2.2097,-2.2264,-2.2441,-2.2441,-2.2618,-2.2803,-2.2803,-2.2969,-2.3135,-2.3135,-2.3135,-2.3135,-2.3135,-2.3135,-2.3135,-2.3135,-2.3135,-2.3212,-2.3193,-2.3235,-2.3223,-2.3202,-2.3297,-2.3368,-2.3672,-2.3818,-2.4767,-2.6533,-2.6533,-2.6533,-2.6533,-2.6533,-2.685,0.0,0.0,0.0,0.0,0.0,0.0,0.0,0.0,0.0,0.0,0.0,0.0,0.0,0.0,0.0,0.0,0.0,0.0,0.0,0.0,0.0,0.0,0.0,0.0,0.0,0.0,0.0,0.0,0.0,0.0,-1.9732,-1.9604,-1.9522,-1.9522,-1.9384,-1.9375,-1.9522,-1.9668,-1.9732,-1.9732,-1.9732,-1.9732,-1.9742,-2.0017,-2.0218,-2.0393,-2.1044,-2.1484,-2.1741,-2.1741,-2.1741,-2.1741,-2.1741,-2.1741,-2.1741,-2.1741,-2.1741,-2.1741,-2.1741,-2.1741,-2.1741,-2.1741,-2.1741,-2.1741,-2.1741,-2.1741,-2.1741,-2.1741,-2.1741,-2.1741,-2.1741,-2.1741,-2.1741,-2.1741,-2.1741,-2.1741,-2.1741,-2.1741,-2.183,-2.183,-2.1909,-2.1909,-2.1909,-2.2185,-2.2362,-2.253,-2.2794,-2.2969,-2.3047,-2.3135,-2.3135,-2.3135,-2.3135,-2.3135,-2.3135,-2.3135,-2.3135,-2.3135,-2.2597,-2.2523,-2.3082,-2.2696,-2.2702,-2.3294,-2.3661,-2.4181,-2.4992,-2.5441,-2.5746,-2.5734,-2.6245,-2.6658,0.0,0.0,0.0,0.0,0.0,0.0,0.0,0.0,0.0,0.0,0.0,0.0,0.0,0.0,0.0,0.0,0.0,0.0,0.0,0.0,0.0,0.0,0.0,0.0,0.0,0.0,0.0,0.0,0.0,0.0,-1.8727,-1.8727,-1.8807,-1.8895,-1.8399,-1.839,-1.8895,-1.8807,-1.8975,-1.9301,-1.9301,-1.9301,-1.9311,-1.9595,-1.9797,-1.9962,-2.0484,-2.1025,-2.1539,-2.1676,-2.1741,-2.1741,-2.1741,-2.1741,-2.1741,-2.1741,-2.1741,-2.1741,-2.1741,-2.1741,-2.1741,-2.1741,-2.1741,-2.1741,-2.1741,-2.1741,-2.1741,-2.1741,-2.1741,-2.1741,-2.1741,-2.1741,-2.1741,-2.1741,-2.1741,-2.1741,-2.1741,-2.1741,-2.1741,-2.1741,-2.1741,-2.1741,-2.1741,-2.1919,-2.2185,-2.2264,-2.253,-2.2706,-2.2969,-2.2969,-2.3057,-2.3047,-2.3135,-2.3135,-2.3135,-2.3135,-2.3135,-2.3135,-2.2353,-2.2122,-2.2686,-2.1941,-2.1821,-2.2424,-2.2723,-2.3021,-2.3254,-2.4348,-2.5016,-2.5312,-2.5886,-2.6245,0.0,0.0,0.0,0.0,0.0,0.0,0.0,0.0,0.0,0.0,0.0,0.0,0.0,0.0,0.0,0.0,0.0,0.0,0.0,0.0,0.0,0.0,0.0,0.0,0.0,0.0,0.0,0.0,0.0,-1.7738,-1.7738,-1.7738,-1.7747,-1.7917,-1.6667,-1.6585,-1.7917,-1.7747,-1.8149,-1.9213,-1.9222,-1.9222,-1.9222,-1.9222,-1.9441,-1.9825,-1.9843,-2.0291,-2.1117,-2.1548,-2.1722,-2.1741,-2.1741,-2.1741,-2.1741,-2.1741,-2.1741,-2.1741,-2.1741,-2.1741,-2.1741,-2.1741,-2.1741,-2.1741,-2.1741,-2.1741,-2.1741,-2.1741,-2.1741,-2.1731,-2.1642,-2.1651,-2.1731,-2.1642,-2.1651,-2.1741,-2.1741,-2.1741,-2.1741,-2.1741,-2.1741,-2.1741,-2.1741,-2.1919,-2.2097,-2.2097,-2.2264,-2.253,-2.2706,-2.2803,-2.2882,-2.3057,-2.3057,-2.3047,-2.3135,-2.3135,-2.3135,-2.3135,-2.2363,-2.1894,-2.1885,-2.1045,-2.0664,-2.0906,-2.1051,-2.1282,-2.1512,-2.3243,-2.4492,-2.5241,-2.5312,-2.5746,-1.8112,0.0,0.0,0.0,0.0,0.0,0.0,0.0,0.0,0.0,0.0,0.0,0.0,0.0,0.0,0.0,0.0,0.0,0.0,0.0,0.0,0.0,0.0,0.0,0.0,0.0,0.0,0.0,-1.8435,-1.8434,-1.8434,-1.7844,-1.718,-1.6585,-1.6167,-1.6167,-1.6585,-1.6503,-1.6577,-1.6911,-1.7082,-1.7172,-1.7253,-1.7997,-1.8388,-1.8501,-1.8798,-1.9618,-2.0714,-2.1117,-2.1456,-2.1741,-2.1741,-2.1741,-2.1741,-2.1741,-2.1741,-2.1741,-2.1741,-2.1741,-2.1741,-2.1741,-2.1741,-2.1741,-2.1741,-2.1741,-2.1741,-2.1741,-2.1741,-2.1553,-2.0898,-2.1177,-2.1553,-2.0808,-2.1177,-2.1741,-2.1741,-2.1741,-2.1741,-2.1741,-2.1741,-2.1741,-2.1741,-2.1741,-2.1919,-2.2097,-2.2185,-2.2274,-2.2441,-2.253,-2.2618,-2.2882,-2.2882,-2.2969,-2.3057,-2.3135,-2.3135,-2.3135,-2.2637,-2.2207,-2.1894,-2.1348,-2.0898,-2.0654,-2.0896,-2.0984,-2.1061,-2.2531,-2.3423,-2.3644,-2.4802,-2.5453,0.0,0.0,0.0,0.0,0.0,0.0,-1.7456,-1.7448,0.0,0.0,0.0,0.0,0.0,0.0,0.0,0.0,0.0,0.0,0.0,0.0,0.0,0.0,0.0,0.0,0.0,0.0,0.0,-1.6892,-1.6702,-1.6652,-1.6718,-1.582,-1.53,-1.5426,-1.4935,-1.4851,-1.5433,-1.535,-1.5591,-1.6003,-1.6175,-1.6265,-1.6265,-1.6919,-1.7163,-1.718,-1.7401,-1.8029,-1.8913,-1.9376,-2.0395,-2.1741,-2.1741,-2.1741,-2.1741,-2.1741,-2.1741,-2.1741,-2.1741,-2.1741,-2.1741,-2.1741,-2.1454,-2.1087,-2.1087,-2.1087,-2.0997,-2.0628,-2.0447,-2.0447,-2.0348,-2.0718,-2.1087,-2.0898,-2.1275,-2.1741,-2.1741,-2.1365,-2.1266,-2.1642,-2.1741,-2.1741,-2.1741,-2.1365,-2.1177,-2.1365,-2.1356,-2.1445,-2.1793,-2.2157,-2.253,-2.2882,-2.2969,-2.2969,-2.3057,-2.3135,-2.3135,-2.3135,-2.2744,-2.2324,-2.1904,-2.1465,-2.1025,-2.0576,-2.0819,-2.0906,-2.1061,-2.1949,-2.2628,-2.3001,-2.4215,-2.5004,0.0,0.0,0.0,0.0,0.0,0.0,-1.7708,-1.7286,-1.6952,0.0,0.0,0.0,0.0,0.0,0.0,0.0,0.0,0.0,0.0,0.0,0.0,0.0,0.0,0.0,0.0,-1.5019,-1.5042,-1.5042,-1.4229,-1.375,-1.3939,-1.3022,-1.3074,-1.4393,-1.3269,-1.3288,-1.4455,-1.428,-1.4692,-1.5591,-1.5674,-1.5674,-1.5674,-1.5838,-1.5838,-1.5838,-1.5838,-1.6118,-1.6638,-1.7077,-1.8844,-2.1302,-2.1347,-2.1365,-2.1365,-2.1365,-2.1365,-2.1365,-2.1365,-2.1365,-2.1365,-2.1365,-2.0808,-2.0158,-2.0158,-2.0158,-1.9977,-1.9063,-1.8788,-1.8972,-1.9886,-2.0249,-2.0439,-2.1186,-2.1454,-2.1553,-2.1365,-2.0718,-2.0348,-2.1186,-2.1365,-2.1365,-2.1365,-2.0718,-2.0158,-2.0158,-2.0249,-2.043,-2.0872,-2.1704,-2.253,-2.296,-2.3047,-2.3047,-2.3047,-2.3057,-2.3135,-2.3135,-2.2783,-2.2373,-2.1904,-2.1514,-2.1074,-2.0576,-2.0819,-2.0984,-2.1205,-2.1359,-2.1959,-2.2852,-2.3621,-2.442,0.0,0.0,0.0,0.0,0.0,0.0,-1.7115,-1.678,-1.678,0.0,0.0,0.0,0.0,0.0,0.0,0.0,0.0,0.0,0.0,0.0,0.0,0.0,0.0,0.0,0.0,-1.4104,-1.426,-1.426,-1.4344,-1.4137,-1.3505,-1.3413,-1.3238,-1.2794,-1.2759,-1.2875,-1.3118,-1.3039,-1.3118,-1.3366,-1.3542,-1.3633,-1.3711,-1.4538,-1.4942,-1.4942,-1.4942,-1.5715,-1.6916,-1.6483,-1.7285,-1.8742,-1.9224,-1.9347,-1.9347,-1.9347,-1.9347,-1.9347,-1.9347,-1.9347,-1.9347,-1.9347,-1.9247,-1.9063,-1.9063,-1.9063,-1.9063,-1.888,-1.8788,-1.888,-1.9063,-1.9704,-2.0158,-1.953,-1.9985,-2.0348,-1.9521,-1.9247,-1.9155,-1.9338,-1.9347,-1.9347,-1.9347,-1.9247,-1.9063,-1.9063,-1.9795,-2.0339,-2.043,-2.1266,-2.1909,-2.2274,-2.2441,-2.2618,-2.2794,-2.2969,-2.3135,-2.3135,-2.3057,-2.2676,-2.1924,-2.1807,-2.1387,-2.0586,-2.0644,-2.0731,-2.0984,-2.1138,-2.1436,-2.1807,-2.2596,-2.3463,0.0,0.0,0.0,-1.7448,0.0,0.0,0.0,-1.637,-1.6049,0.0,0.0,0.0,0.0,0.0,0.0,0.0,0.0,0.0,0.0,0.0,0.0,0.0,0.0,0.0,0.0,-1.2493,-1.258,-1.258,-1.2714,-1.2716,-1.242,-1.2561,-1.2462,-1.2113,-1.2373,-1.2506,-1.2506,-1.2638,-1.2705,-1.2705,-1.2881,-1.2881,-1.2875,-1.3457,-1.3704,-1.3704,-1.3704,-1.4122,-1.4893,-1.4933,-1.5473,-1.6353,-1.8125,-1.8788,-1.8788,-1.8788,-1.8788,-1.8788,-1.8788,-1.8788,-1.8788,-1.8788,-1.8427,-1.8056,-1.8056,-1.7684,-1.7404,-1.7878,-1.7684,-1.7404,-1.7963,-1.8427,-1.8788,-1.8788,-1.9155,-1.943,-1.888,-1.8427,-1.8056,-1.8056,-1.7684,-1.7591,-1.8603,-1.8427,-1.8056,-1.8056,-1.8519,-1.888,-1.8972,-1.9795,-2.0529,-2.0791,-2.0881,-2.106,-2.1347,-2.1427,-2.1516,-2.1686,-2.1686,-2.1328,-2.053,-2.0493,-2.0118,-1.9301,-1.9283,-1.9362,-1.945,-1.952,-2.0235,-2.1502,-2.1939,-2.2596,0.0,0.0,0.0,0.0,0.0,-1.7538,0.0,0.0,0.0,-1.5144,0.0,0.0,0.0,0.0,0.0,0.0,0.0,0.0,0.0,0.0,0.0,0.0,0.0,0.0,0.0,-1.0887,-1.0887,-1.0887,-1.1037,-1.1208,-1.1437,-1.1504,-1.163,-1.1842,-1.2149,-1.2312,-1.2312,-1.2572,-1.2705,-1.2705,-1.2705,-1.2705,-1.2705,-1.2705,-1.2705,-1.2705,-1.2705,-1.2705,-1.2832,-1.3564,-1.4057,-1.4553,-1.7139,-1.8234,-1.8234,-1.8234,-1.8234,-1.8234,-1.8234,-1.8234,-1.8234,-1.8234,-1.7692,-1.7052,-1.7052,-1.6487,-1.592,-1.6763,-1.6393,-1.592,-1.6943,-1.7131,-1.7412,-1.8234,-1.8511,-1.8427,-1.8234,-1.7598,-1.7052,-1.7052,-1.6393,-1.6292,-1.7956,-1.7598,-1.7052,-1.7052,-1.7138,-1.7419,-1.7598,-1.8411,-1.9139,-1.9314,-1.9405,-1.9505,-1.9704,-1.9795,-1.9977,-2.015,-2.0141,-1.9898,-1.9144,-1.8973,-1.8614,-1.8006,-1.7997,-1.7997,-1.7997,-1.7997,-1.9116,-2.1108,-2.1108,-2.1787,0.0,0.0,0.0,0.0,-1.7448,0.0,0.0,0.0,-1.4126,-1.4126,0.0,-1.262,-1.2527,0.0,0.0,0.0,0.0,0.0,0.0,0.0,0.0,0.0,0.0,0.0,0.0,0.0,-1.0067,-1.0067,-1.0663,-1.1123,-1.1154,-1.1395,-1.1546,-1.1576,-1.2059,-1.2312,-1.2312,-1.2572,-1.2705,-1.2705,-1.2705,-1.2705,-1.2705,-1.2705,-1.2705,-1.2705,-1.2705,-1.279,-1.3095,-1.3659,-1.4057,-1.4366,-1.5398,-1.6008,-1.6103,-1.6103,-1.6103,-1.6103,-1.6103,-1.6103,-1.6103,-1.6103,-1.6015,-1.6015,-1.6015,-1.592,-1.5825,-1.573,-1.5635,-1.5724,-1.6459,-1.6741,-1.6936,-1.7117,-1.7311,-1.7232,-1.6292,-1.6015,-1.6015,-1.6015,-1.5927,-1.5825,-1.6109,-1.6015,-1.6015,-1.6015,-1.677,-1.7326,-1.7326,-1.8241,-1.888,-1.888,-1.9047,-1.9131,-1.9231,-1.9604,-1.9886,-1.9886,-2.0059,-1.9898,-1.9144,-1.8477,-1.8083,-1.7997,-1.7997,-1.7997,-1.7997,-1.7997,-1.8638,-1.9844,-1.9844,-2.0827,0.0,0.0,0.0,0.0,0.0,0.0,-1.6288,0.0,-1.4552,0.0,0.0,0.0,0.0,0.0,0.0,0.0,0.0,0.0,0.0,0.0,0.0,0.0,0.0,0.0,0.0,0.0,0.0,0.0,0.0,-0.9911,-1.0368,-1.0545,-1.076,-1.1286,-1.1661,-1.1932,-1.2083,-1.2343,-1.2554,-1.2705,-1.2705,-1.2705,-1.2705,-1.2705,-1.2705,-1.2705,-1.2705,-1.279,-1.2924,-1.3475,-1.3785,-1.4107,-1.476,-1.5166,-1.5363,-1.5363,-1.5363,-1.5363,-1.5363,-1.5363,-1.5363,-1.5363,-1.5363,-1.5363,-1.5363,-1.5363,-1.5363,-1.5267,-1.5267,-1.5356,-1.5629,-1.573,-1.5825,-1.5825,-1.6103,-1.6103,-1.573,-1.5737,-1.5832,-1.5832,-1.5832,-1.5832,-1.5832,-1.5832,-1.5832,-1.5832,-1.6204,-1.6393,-1.6393,-1.6756,-1.703,-1.703,-1.7117,-1.721,-1.7404,-1.7591,-1.7885,-1.8164,-1.8053,-1.7872,-1.7589,-1.6836,-1.6468,-1.6468,-1.6468,-1.6468,-1.6468,-1.6468,-1.6952,-1.7989,-1.9186,-2.0605,-1.9107,0.0,0.0,0.0,0.0,0.0,0.0,0.0,0.0,0.0,0.0,0.0,0.0,0.0,-1.046,0.0,0.0,0.0,0.0,0.0,0.0,0.0,0.0,0.0,0.0,0.0,0.0,0.0,0.0,0.0,-0.9539,-0.9539,-0.9836,-1.0432,-1.0923,-1.1335,-1.1594,-1.2098,-1.2445,-1.2705,-1.2705,-1.2705,-1.2705,-1.2705,-1.2705,-1.2705,-1.2705,-1.2705,-1.2747,-1.329,-1.361,-1.3847,-1.4383,-1.4694,-1.4885,-1.5083,-1.5083,-1.5083,-1.5083,-1.5083,-1.5083,-1.5083,-1.5083,-1.5083,-1.5083,-1.5083,-1.5083,-1.4987,-1.4987,-1.4981,-1.4885,-1.4981,-1.4987,-1.4987,-1.5172,-1.5356,-1.5356,-1.5547,-1.5642,-1.5642,-1.5642,-1.5642,-1.5642,-1.5737,-1.5832,-1.5832,-1.5832,-1.5832,-1.5832,-1.5832,-1.5832,-1.5832,-1.5832,-1.5927,-1.6028,-1.613,-1.6414,-1.6878,-1.6552,-1.6279,-1.6279,-1.5682,-1.5431,-1.5431,-1.5431,-1.5431,-1.5431,-1.5431,-1.5824,-1.678,-1.8301,-1.9659,0.0,0.0,0.0,-1.8273,0.0,0.0,0.0,0.0,-1.3795,0.0,0.0,0.0,0.0,0.0,0.0,0.0,0.0,0.0,0.0,0.0,0.0,0.0,0.0,0.0,0.0,0.0,0.0,0.0,0.0,0.0,-0.8703,-0.8703,-0.878,-0.878,-0.9756,-1.0458,-1.0778,-1.1764,-1.2445,-1.2705,-1.2705,-1.2705,-1.2705,-1.2705,-1.2705,-1.2705,-1.2705,-1.2705,-1.2747,-1.329,-1.3513,-1.3568,-1.4093,-1.4298,-1.4394,-1.4885,-1.5083,-1.5083,-1.5083,-1.5083,-1.5083,-1.5083,-1.5083,-1.5083,-1.5083,-1.5083,-1.5083,-1.479,-1.4694,-1.4688,-1.4394,-1.4496,-1.4694,-1.4694,-1.4885,-1.5083,-1.5083,-1.5083,-1.5083,-1.5083,-1.5083,-1.5083,-1.5083,-1.5458,-1.5832,-1.5832,-1.5832,-1.5832,-1.5832,-1.5832,-1.5832,-1.5832,-1.5832,-1.5832,-1.5832,-1.6028,-1.6312,-1.6588,-1.628,-1.6027,-1.6027,-1.5597,-1.5431,-1.5431,-1.5431,-1.5431,-1.5431,-1.5431,-1.5824,-1.6698,-1.6772,-1.7585,0.0,0.0,-2.1278,-1.9659,0.0,0.0,0.0,0.0,0.0,0.0,0.0,0.0,0.0,0.0,0.0,0.0,0.0,0.0,0.0,0.0,0.0,0.0,0.0,0.0,0.0,0.0,0.0,0.0,0.0,0.0,0.0,-0.794,-0.8169,-0.8699,-0.9076,-0.9369,-0.9667,-1.0697,-1.1353,-1.1679,-1.236,-1.2705,-1.2705,-1.2705,-1.2705,-1.2705,-1.2705,-1.2705,-1.2747,-1.329,-1.3513,-1.3568,-1.4093,-1.4298,-1.4298,-1.4496,-1.4592,-1.4592,-1.4592,-1.4592,-1.4592,-1.4592,-1.4592,-1.4592,-1.4592,-1.4592,-1.4592,-1.449,-1.44,-1.4394,-1.4298,-1.4394,-1.44,-1.44,-1.4688,-1.4885,-1.4885,-1.4981,-1.5083,-1.5083,-1.5083,-1.5083,-1.5083,-1.5363,-1.5635,-1.5635,-1.573,-1.5832,-1.5832,-1.5832,-1.5832,-1.5832,-1.5832,-1.5832,-1.5832,-1.6028,-1.6224,-1.6312,-1.6015,-1.5761,-1.5761,-1.5426,-1.5173,-1.5173,-1.534,-1.5431,-1.5431,-1.5431,-1.559,-1.5824,-1.5824,-1.6788,-2.2606,-2.2478,0.0,-2.073,-2.0498,0.0,-1.7212,0.0,0.0,0.0,0.0,0.0,0.0,0.0,0.0,0.0,0.0,0.0,0.0,-0.6338,0.0,0.0,0.0,0.0,0.0,0.0,0.0,-0.6338,-0.6338,0.0,0.0,0.0,-0.733,-0.7863,-0.8093,-0.8413,-0.869,-0.9692,-1.0479,-1.1133,-1.1895,-1.2357,-1.2705,-1.2705,-1.2705,-1.2705,-1.2705,-1.2759,-1.2886,-1.3332,-1.3568,-1.3701,-1.4129,-1.4298,-1.4298,-1.4298,-1.4298,-1.4298,-1.4298,-1.4298,-1.4298,-1.4298,-1.4298,-1.4298,-1.4298,-1.4298,-1.4298,-1.4298,-1.4298,-1.4298,-1.4298,-1.4298,-1.4298,-1.4298,-1.4394,-1.4592,-1.4592,-1.4688,-1.479,-1.479,-1.479,-1.479,-1.479,-1.4682,-1.486,-1.5445,-1.5635,-1.5832,-1.5832,-1.5445,-1.5445,-1.573,-1.5445,-1.5445,-1.5737,-1.5927,-1.6028,-1.6028,-1.5741,-1.5582,-1.5665,-1.5333,-1.509,-1.5173,-1.534,-1.5431,-1.5431,-1.5431,-1.5431,-1.5431,-1.5431,-1.6064]}]]